GFSGBSN_sfc_thetae_003.txt.gz
Theta_e
317 317 317 318 319 319 318 317 318 317 316 315 316 316 315 315 314 314 313 312 313 314 315 315 316 316 311 306 306 312 321 317 314 311 306 306 304 303 300 301 301 300 299 300 301 299 300
317 317 318 319 319 319 317 316 316 316 315 315 315 315 315 314 314 314 313 313 313 315 314 315 316 315 310 302 311 311 309 311 311 311 308 307 305 304 303 300 301 302 301 300 301 301 301
316 317 318 319 318 317 316 315 316 315 315 315 315 315 315 315 315 314 313 313 314 314 314 315 316 314 308 307 311 310 310 311 310 312 308 307 307 305 303 301 302 300 298 298 299 299 299
316 316 318 318 318 317 316 315 315 315 315 315 315 315 315 315 315 315 315 314 313 314 315 315 315 313 307 313 313 309 309 310 309 310 310 309 308 304 302 302 299 296 296 294 298 300 300
315 316 318 318 317 317 316 315 315 315 315 315 314 314 314 313 313 313 314 313 314 315 314 314 312 311 306 314 308 309 308 307 308 309 308 306 306 301 300 296 295 294 290 291 295 298 299
314 315 318 318 318 317 316 315 315 314 314 314 314 314 313 313 313 312 312 313 314 312 312 313 309 305 306 303 306 307 308 308 306 308 306 304 300 298 297 295 288 290 290 292 292 297 299
313 314 317 317 317 317 316 315 314 314 314 314 314 314 313 313 313 312 313 312 304 305 306 301 302 301 302 306 307 305 306 307 305 302 298 299 296 293 294 295 294 293 292 292 294 296 297
313 313 315 317 317 316 316 315 314 313 313 314 314 314 314 313 312 312 312 311 308 311 300 304 303 303 305 305 302 305 307 303 301 296 297 297 293 295 296 295 294 294 292 291 294 296 297
312 311 314 316 316 315 315 314 314 313 313 313 312 313 313 312 312 313 315 316 319 315 300 301 304 303 304 306 301 302 304 303 297 295 294 294 294 297 296 294 294 293 292 291 292 295 296
311 311 313 315 315 314 313 313 313 313 313 312 312 312 312 312 311 313 312 316 318 313 293 296 300 303 304 304 300 306 306 303 300 295 296 294 296 296 295 294 294 291 294 294 293 293 291
311 311 313 314 314 313 312 312 313 313 312 312 311 312 312 313 312 310 314 318 320 308 282 297 300 307 304 301 301 304 306 304 297 296 297 293 295 295 295 294 296 294 296 294 294 293 292
311 312 313 313 313 312 312 312 312 312 311 311 311 312 312 313 312 315 318 316 313 292 282 296 300 299 299 300 301 302 302 304 302 298 299 296 299 297 296 297 298 298 295 293 293 292 288
312 312 312 312 313 312 312 312 311 311 311 311 311 314 316 314 308 316 314 309 293 285 298 294 295 297 296 296 298 298 296 296 293 291 291 295 296 299 298 296 299 297 291 287 287 287 286
312 312 312 312 313 312 312 312 311 311 310 310 311 313 313 314 315 315 310 299 287 292 294 297 296 297 294 296 296 296 295 293 297 294 291 290 288 296 299 296 293 294 292 287 280 282 285
312 312 312 312 312 312 311 311 311 311 310 310 311 309 309 313 315 311 303 289 288 292 296 295 296 293 294 297 295 295 294 293 295 296 291 290 290 298 299 299 297 294 291 293 286 279 284
312 312 312 311 311 311 311 311 311 311 310 310 310 306 308 312 313 305 296 290 294 297 298 297 292 295 292 294 294 294 293 297 295 297 298 294 289 295 297 299 298 296 296 289 289 281 279
311 311 311 311 311 311 311 311 311 310 310 310 306 303 309 313 308 299 290 290 296 300 300 298 295 294 294 294 294 293 293 296 297 298 298 295 292 291 294 293 292 294 292 291 291 288 283
310 310 310 310 310 310 310 310 309 310 309 308 301 299 309 310 297 293 292 296 298 299 301 300 299 297 295 295 294 294 293 295 298 300 295 296 291 287 290 295 297 295 292 291 286 283 287
310 310 310 310 310 310 310 307 308 309 309 307 301 302 307 307 291 288 297 297 298 298 297 298 297 298 298 294 291 295 296 300 299 299 296 296 290 284 285 291 294 293 293 291 289 288 285
310 310 310 310 310 310 308 307 308 309 309 304 300 296 300 299 298 296 294 295 296 299 298 298 297 299 296 294 296 294 295 299 300 300 299 298 290 287 283 286 290 288 290 291 291 287 286
309 309 309 309 308 309 306 306 307 308 308 305 299 296 298 291 295 296 297 296 295 294 298 299 297 296 295 290 292 293 296 297 298 299 298 297 290 289 290 291 290 290 290 290 289 290 286
309 309 308 307 307 306 306 306 307 308 308 303 300 298 297 295 296 296 292 296 295 296 297 296 295 297 297 293 293 292 296 295 294 297 296 294 288 289 286 289 288 286 289 290 290 291 290
309 309 308 307 308 307 306 306 307 308 308 303 301 301 300 290 291 291 291 295 296 298 297 299 298 295 291 297 300 301 300 298 298 295 293 292 289 286 283 286 286 283 287 289 290 292 291
308 309 308 309 309 309 305 306 307 307 307 306 303 299 295 288 287 291 296 297 296 297 296 298 298 293 299 302 300 297 293 292 294 294 296 286 286 285 284 285 279 290 293 293 291 292 292
307 308 309 309 309 309 308 307 307 307 308 307 303 300 295 286 289 292 295 295 296 297 296 297 300 299 301 297 290 286 286 284 286 291 291 292 287 284 282 283 285 290 292 290 289 289 293
307 307 308 308 308 308 308 307 307 307 308 309 305 301 298 290 292 297 295 296 291 290 292 296 301 300 297 289 287 283 283 283 286 287 289 289 286 287 284 281 279 288 291 294 294 286 295
307 307 307 308 307 307 307 307 307 306 308 310 307 304 300 292 297 298 295 294 295 293 292 292 297 294 297 287 285 285 286 286 285 280 280 283 284 283 284 282 285 291 292 294 285 287 294
306 307 307 307 307 306 307 307 307 306 307 310 307 306 303 293 298 302 301 297 296 295 292 294 294 292 290 286 286 286 284 286 286 287 285 285 283 281 281 280 279 292 292 290 294 295 296
306 306 306 306 306 306 306 306 307 307 307 308 307 306 305 301 300 305 308 306 304 301 297 293 296 293 294 288 286 286 284 282 285 285 289 285 289 287 287 287 293 294 296 298 297 295 294

GFSGBSN_sfc_thetae_006.txt.gz
Theta_e
318 318 318 319 319 319 318 318 317 316 317 316 316 316 316 316 316 315 314 313 313 313 314 315 316 317 318 312 310 318 323 322 319 316 314 313 310 308 304 305 306 304 305 306 305 305 306
317 317 318 319 319 318 317 316 316 316 316 316 315 316 316 315 315 314 314 313 312 312 315 315 316 316 316 305 317 318 317 316 318 317 315 314 311 312 307 306 305 306 306 306 306 306 306
317 317 319 319 318 317 316 316 316 315 315 315 315 315 316 315 314 314 314 313 312 314 314 315 316 319 313 310 318 318 315 316 316 316 314 314 313 310 311 307 307 306 303 305 305 305 304
316 316 318 319 318 316 316 315 316 315 315 315 315 315 315 315 315 315 314 314 315 314 315 315 315 320 309 318 320 316 315 314 316 317 316 315 315 311 308 309 305 303 303 299 303 305 306
316 316 318 318 317 316 316 314 315 315 315 314 315 315 314 314 314 314 314 314 314 315 315 314 320 317 306 317 312 315 314 312 314 314 314 312 312 308 307 305 301 301 297 296 299 304 304
314 315 317 318 317 316 316 315 315 314 314 314 315 314 314 314 314 313 313 314 315 315 316 317 314 310 310 307 311 312 314 313 312 311 311 310 310 306 305 302 295 295 296 298 297 301 304
313 314 316 318 317 317 316 315 314 313 314 314 314 314 314 313 314 313 315 321 313 312 313 306 307 306 307 312 314 312 312 311 311 309 304 306 303 299 300 301 300 298 297 296 298 302 302
313 313 315 317 317 316 316 315 314 313 314 314 314 314 314 313 313 313 322 317 315 316 305 309 308 309 310 311 307 311 315 307 306 302 304 303 298 300 302 301 298 298 296 296 299 301 302
312 312 314 316 316 315 315 314 314 313 313 313 313 314 314 313 312 320 326 322 327 321 306 306 308 307 308 312 306 308 311 307 304 301 302 299 299 300 300 301 299 298 296 297 297 300 302
312 311 313 315 315 314 314 314 314 313 313 313 312 313 313 312 315 323 319 323 328 320 302 300 304 307 308 308 304 311 311 307 304 300 301 300 301 301 300 299 300 296 299 299 298 298 296
311 312 313 314 314 313 312 313 313 313 312 312 312 313 312 314 324 318 321 328 329 322 290 301 304 312 311 306 305 307 311 310 302 301 302 297 300 300 299 298 301 298 301 299 299 298 298
312 312 313 313 313 313 312 312 312 312 312 312 312 313 313 319 328 323 328 326 326 303 288 298 304 303 304 306 305 307 308 310 306 304 304 301 304 303 302 302 301 303 299 300 300 300 293
312 313 313 313 313 313 312 312 312 311 311 311 312 314 321 323 319 328 328 321 301 294 301 297 299 303 302 301 302 303 303 302 299 296 296 299 300 304 304 300 303 303 298 294 291 292 291
312 313 312 313 313 312 312 312 311 311 311 311 312 314 316 323 329 328 325 311 293 296 297 301 301 302 299 301 301 302 300 299 302 300 298 295 293 301 304 301 298 299 298 293 283 288 290
312 312 312 312 312 312 312 311 311 311 310 311 312 323 325 324 327 326 314 302 297 298 301 300 301 298 298 300 300 300 299 298 300 302 296 295 294 302 302 303 302 298 296 298 291 286 290
312 312 311 311 311 311 311 311 311 310 310 311 320 320 320 324 324 323 312 296 299 301 302 302 296 299 296 298 298 299 298 300 299 302 303 298 293 298 300 303 303 301 301 294 295 285 281
312 311 311 311 311 310 311 310 309 310 310 311 321 311 320 324 322 316 304 300 301 304 305 302 300 298 299 298 299 298 297 300 302 301 303 299 296 295 299 298 297 299 297 296 295 293 286
310 310 310 310 311 310 309 308 309 309 310 316 318 308 319 323 309 307 303 303 301 303 306 304 305 302 300 300 298 298 297 300 303 303 298 301 298 292 293 299 301 300 297 296 291 285 291
310 310 310 310 310 310 306 307 309 309 310 319 314 313 319 319 305 304 303 302 303 303 302 303 302 303 303 300 297 299 300 303 304 303 300 301 296 289 291 296 299 297 297 297 295 293 288
310 310 310 310 310 307 306 306 307 309 309 319 314 309 312 313 309 306 303 301 300 304 303 304 302 304 302 300 302 299 299 302 303 303 299 302 297 292 287 290 294 291 293 295 295 289 289
310 310 309 307 307 306 306 307 308 309 309 318 314 308 308 305 305 306 305 303 300 299 303 304 302 302 301 297 298 298 300 301 301 300 303 302 292 295 295 295 295 294 293 294 292 294 289
309 310 308 307 307 306 306 307 308 308 308 316 312 309 308 304 305 305 300 302 300 300 302 300 300 301 301 297 297 296 297 298 296 302 300 300 293 293 290 294 294 292 294 294 294 295 294
309 309 308 307 308 305 306 307 308 308 311 317 312 310 313 297 301 305 303 302 302 304 303 305 304 302 299 301 304 305 305 304 302 300 297 297 295 291 288 291 291 287 292 293 294 296 295
309 309 307 309 309 307 307 308 307 307 311 318 314 313 312 302 303 303 302 303 303 303 302 303 305 303 303 308 307 306 302 301 302 300 301 293 294 290 287 288 283 292 298 297 295 296 297
308 309 309 310 310 309 308 308 307 307 309 317 313 313 309 291 304 301 303 303 304 305 303 303 305 305 310 306 301 294 293 291 292 296 297 299 295 288 285 285 290 292 295 294 292 293 298
307 308 309 309 309 308 307 307 307 307 308 318 313 312 311 295 303 304 303 305 303 303 303 303 306 308 307 303 297 288 290 290 290 292 295 295 295 294 287 283 282 292 296 298 298 289 299
307 307 308 308 308 308 308 307 307 307 308 319 316 314 313 309 305 306 305 304 306 304 304 304 304 302 306 296 290 292 292 293 289 287 287 288 287 286 287 285 289 297 297 298 287 291 300
306 306 307 307 308 307 307 307 307 307 307 317 316 315 314 307 306 307 306 305 304 307 304 304 304 303 300 292 289 292 289 294 292 293 291 290 290 287 287 283 282 297 297 291 298 299 297
306 306 306 306 307 307 307 307 307 307 307 311 317 314 314 313 309 312 313 311 311 310 307 306 304 304 306 298 293 291 287 287 292 289 296 290 294 292 291 293 300 302 299 301 299 297 299

GFSGBSN_sfc_thetae_009.txt.gz
Theta_e
318 318 318 318 320 320 320 319 319 317 316 317 317 317 317 317 317 316 315 314 314 314 314 315 316 317 321 315 311 320 325 327 323 320 316 314 311 309 305 306 307 304 305 306 306 306 306
318 318 318 319 319 319 319 318 317 316 317 317 316 316 317 316 316 316 315 314 313 312 314 315 316 317 320 308 319 320 319 319 319 318 314 314 311 312 307 306 306 307 307 307 308 308 307
317 317 318 319 319 318 317 316 315 316 316 316 316 316 316 316 315 315 315 313 313 313 314 315 316 321 319 311 320 320 318 318 319 319 314 316 315 311 311 307 310 308 304 307 307 308 307
317 317 317 319 318 317 316 315 315 316 316 316 316 316 316 316 315 314 314 313 314 315 316 316 317 323 311 318 321 317 318 316 318 320 318 318 317 314 311 312 308 305 306 301 306 307 308
316 315 316 319 318 316 315 314 315 315 315 315 315 316 316 315 315 315 315 315 315 316 316 316 322 322 308 316 314 316 317 313 316 318 317 315 316 311 310 305 303 304 299 299 302 307 306
316 314 316 318 318 317 316 315 315 314 315 314 314 315 315 315 315 314 314 314 316 315 317 321 321 312 311 308 313 314 317 316 314 315 313 312 311 307 306 303 297 299 298 299 299 304 304
315 313 315 317 318 317 317 315 315 314 314 315 314 315 315 315 314 314 315 322 316 315 316 310 309 308 309 313 316 313 315 314 314 312 306 309 305 303 303 303 302 301 299 298 302 304 303
315 313 314 317 317 316 316 316 314 314 314 314 314 315 315 315 315 314 323 319 319 319 306 312 312 312 313 314 308 311 317 310 309 304 306 304 301 303 304 304 302 301 299 299 301 303 303
314 312 314 316 316 315 315 315 314 314 314 314 314 314 315 314 314 320 326 323 328 326 308 308 310 310 310 313 308 309 313 309 305 302 302 302 302 304 303 303 301 301 300 300 299 303 304
314 312 314 315 315 314 314 315 314 314 313 314 313 314 314 312 315 327 322 326 332 328 303 301 305 309 311 312 306 313 314 310 305 302 303 302 305 303 302 301 303 299 302 301 300 299 297
313 312 313 314 314 314 313 313 313 313 313 313 313 314 313 313 325 319 324 332 334 329 292 303 306 315 311 308 308 309 315 311 303 303 304 300 302 302 301 301 303 301 304 302 302 300 300
312 313 314 314 314 313 313 313 312 312 313 313 313 315 313 321 331 327 330 331 330 306 290 300 306 306 306 308 307 310 310 313 311 305 306 303 307 306 304 304 304 306 303 303 303 301 294
312 313 313 314 314 313 313 312 312 312 312 313 314 315 317 329 321 333 334 324 300 296 303 299 301 305 305 303 304 306 305 304 303 299 299 302 302 306 306 303 306 305 301 295 293 293 292
313 313 313 314 314 313 312 312 311 311 312 313 314 315 322 330 333 334 327 309 296 299 299 304 304 304 301 304 303 303 303 301 305 304 301 297 295 302 305 303 300 300 301 295 286 289 292
313 313 313 313 313 312 312 311 311 311 311 313 314 331 328 331 334 332 314 302 300 300 303 302 303 300 300 302 303 303 302 301 302 304 299 297 296 304 304 306 304 300 297 301 294 292 292
313 312 312 312 312 312 311 310 310 311 311 314 321 320 321 331 333 327 312 300 302 305 304 304 298 301 298 300 300 301 300 303 301 304 305 300 296 300 302 305 305 303 303 296 297 286 283
312 312 312 312 311 311 310 308 310 310 311 315 322 311 325 333 329 314 306 303 303 306 307 304 301 300 302 300 301 300 299 302 304 303 305 301 298 298 300 300 299 301 300 298 297 294 287
311 311 311 311 311 310 308 308 310 310 310 313 321 308 326 329 309 313 306 305 303 306 309 306 307 304 303 302 301 300 299 303 306 305 300 302 299 294 295 302 304 302 299 298 292 288 292
311 311 311 311 311 308 308 307 308 309 310 326 314 314 325 325 307 310 307 305 306 305 305 305 304 306 307 303 299 302 302 306 306 305 302 303 299 292 294 299 302 298 299 298 296 295 290
310 311 310 309 309 307 308 308 309 309 310 323 316 310 314 317 315 308 305 304 303 307 306 307 306 307 305 302 305 301 302 304 306 306 300 303 299 293 290 293 296 293 295 297 296 291 291
310 310 309 307 307 307 308 308 309 309 309 323 319 312 313 307 309 309 309 306 303 301 306 308 304 305 303 299 301 300 302 303 303 300 304 303 294 296 297 297 296 295 295 295 294 294 291
310 309 307 308 306 307 307 308 308 309 309 323 313 312 314 312 311 309 303 305 303 303 305 303 303 305 304 300 299 298 300 299 299 303 302 302 295 296 292 296 295 293 295 296 296 296 296
310 309 307 308 306 307 307 309 308 308 311 321 320 320 316 303 309 307 306 305 304 307 306 307 306 304 301 303 307 308 308 306 304 302 299 299 297 293 289 295 293 289 295 295 295 297 297
309 308 307 310 310 308 309 308 307 308 310 325 321 320 315 306 308 306 306 306 306 306 304 307 307 305 307 312 311 309 306 305 305 303 305 299 296 293 289 289 284 296 300 299 296 298 299
309 309 310 310 310 310 309 308 307 308 309 323 320 319 313 297 308 306 307 307 307 308 306 307 307 310 314 309 303 295 294 291 295 300 300 303 299 291 287 287 292 295 297 296 294 294 300
308 309 310 310 309 309 308 308 307 307 309 322 319 320 318 300 307 309 308 309 306 306 306 306 310 313 312 307 299 290 291 292 293 295 299 299 300 295 290 284 283 294 299 301 300 290 301
307 308 309 309 309 309 308 308 308 307 308 322 321 322 319 313 311 311 308 308 310 309 306 307 307 306 311 299 293 293 294 296 291 289 287 290 290 289 288 286 291 298 299 302 288 292 302
307 307 307 308 308 308 308 308 307 307 308 318 321 322 320 312 310 311 311 310 310 310 306 309 306 307 306 292 293 296 291 297 295 296 293 291 290 286 289 285 283 300 299 293 300 303 302
306 306 306 307 308 307 308 308 308 307 307 310 321 320 321 318 313 317 316 316 316 315 311 311 307 307 308 303 298 297 289 291 294 291 299 292 296 294 294 294 302 303 302 305 304 301 300

GFSGBSN_sfc_thetae_012.txt.gz
Theta_e
317 318 318 318 319 320 320 319 318 317 316 316 316 318 318 318 317 317 316 315 315 315 314 315 316 316 319 315 311 319 326 328 320 321 316 313 311 309 305 306 306 304 304 305 305 304 305
318 318 318 318 319 320 319 318 317 316 315 316 317 317 317 317 317 316 316 315 314 313 313 315 316 316 318 309 318 319 319 319 319 318 314 314 311 311 307 306 305 306 305 304 305 306 306
318 317 318 318 319 318 317 317 316 315 316 317 317 317 317 317 315 316 315 314 313 313 314 315 316 319 319 312 318 319 318 317 318 318 314 316 315 310 310 305 309 307 303 305 306 307 305
317 317 316 318 319 317 317 316 315 315 317 317 317 317 316 317 315 314 314 313 313 314 315 317 316 321 314 319 319 317 317 316 318 319 317 317 316 313 311 311 306 303 304 299 305 307 307
317 316 315 317 319 318 316 315 314 316 316 316 317 317 316 315 316 314 314 314 315 316 316 317 319 321 311 317 313 316 316 313 315 317 316 315 315 310 308 303 301 302 297 300 302 307 306
316 315 314 317 318 318 317 317 316 315 316 316 316 316 316 316 315 315 315 315 316 315 317 322 322 314 313 309 313 313 317 316 314 314 312 311 310 305 305 302 294 296 297 299 298 303 303
316 315 313 316 317 317 317 317 315 315 315 315 315 317 316 315 315 314 313 318 315 314 317 310 308 309 308 312 314 313 315 314 314 311 305 308 303 300 302 303 302 301 299 298 302 304 301
315 314 312 315 317 317 316 316 315 315 315 314 314 316 315 316 315 315 317 321 318 318 306 312 311 311 312 314 307 310 316 309 308 303 306 303 300 303 305 304 302 301 299 299 302 303 301
315 313 312 315 316 316 316 316 315 315 314 315 315 314 316 314 314 316 325 322 327 328 307 308 311 309 310 313 308 308 313 309 306 303 302 301 302 304 303 303 301 301 299 300 299 302 304
315 313 313 315 315 315 315 315 314 314 314 314 315 315 315 313 314 326 321 325 330 331 302 300 305 308 311 312 306 313 314 310 305 301 303 303 305 303 302 301 302 298 303 301 299 298 294
315 312 313 314 315 314 314 314 314 314 314 314 314 315 313 313 323 319 323 329 332 329 292 303 305 315 311 308 309 308 314 311 303 303 304 301 302 302 301 301 303 300 304 301 301 298 298
314 312 313 314 314 314 313 313 312 313 313 314 315 317 313 319 330 326 330 332 330 306 291 299 306 305 305 307 307 310 309 313 311 305 306 303 307 305 304 304 304 306 303 303 302 300 294
313 312 313 314 314 314 313 313 312 312 313 315 315 315 317 330 323 333 336 325 301 296 303 299 301 305 304 303 305 306 305 304 302 298 299 302 302 306 306 303 306 304 301 295 293 294 292
313 314 313 314 314 314 313 312 311 311 312 315 316 315 324 330 333 337 330 309 296 300 299 304 304 304 301 304 303 304 304 300 304 304 300 297 294 302 305 302 299 301 299 295 286 288 291
313 314 313 313 314 313 312 311 311 311 312 315 315 333 332 334 337 335 316 301 300 299 304 302 303 300 300 302 303 303 302 300 301 304 298 297 296 304 304 305 303 300 296 300 295 293 291
313 313 312 313 313 312 311 309 311 311 312 316 322 321 320 333 336 328 312 302 303 306 305 304 298 302 298 300 300 302 300 303 301 304 305 299 296 300 302 305 305 302 302 295 298 287 284
313 313 312 313 312 311 308 308 310 311 312 316 326 311 326 333 331 314 305 306 304 307 308 303 301 300 302 299 301 300 300 303 305 303 305 302 299 297 301 299 297 299 298 298 296 294 287
311 312 312 312 312 308 307 308 309 310 311 315 325 306 328 333 308 309 307 306 303 306 309 307 307 304 302 302 301 301 300 303 306 305 300 301 299 296 296 301 303 301 298 298 293 289 294
311 311 311 312 311 307 307 309 309 309 310 324 313 314 327 327 306 312 308 306 307 305 305 305 304 306 307 304 299 302 303 306 307 305 301 302 299 293 293 299 301 297 299 298 297 295 289
310 310 311 308 307 307 307 308 309 309 311 320 317 309 312 314 316 309 306 304 303 309 307 308 306 307 305 303 305 301 302 305 306 304 302 304 298 294 290 292 296 293 295 297 295 291 291
310 310 309 307 306 307 307 308 309 309 310 319 318 311 310 305 308 309 308 306 303 302 307 308 305 305 304 300 301 301 303 302 303 301 303 303 295 297 296 296 296 295 294 295 293 294 289
310 309 308 307 306 306 307 309 309 309 308 320 314 312 314 311 311 308 304 305 304 304 305 303 303 305 305 302 301 299 301 300 300 303 302 303 297 296 293 296 295 292 294 294 295 295 295
310 309 307 307 306 307 310 309 308 308 312 321 321 322 316 305 309 308 307 306 305 307 307 308 307 305 302 304 307 307 307 306 304 302 301 300 299 294 290 293 293 290 295 295 296 297 296
309 308 307 311 309 311 310 308 308 308 310 326 324 321 316 308 310 306 307 307 306 307 304 307 308 305 308 311 310 308 307 305 305 304 305 298 296 293 288 289 284 295 300 299 296 297 298
309 307 310 311 310 310 309 308 308 308 309 325 323 322 314 295 310 307 307 306 308 308 307 307 308 310 313 309 303 294 295 292 296 301 300 303 298 288 287 286 291 294 297 295 294 293 299
308 310 310 310 309 309 309 308 308 308 309 324 321 324 321 303 309 310 307 309 306 307 306 306 312 315 312 308 298 290 291 294 292 294 300 300 301 296 287 284 282 295 299 301 300 289 302
308 309 310 310 309 309 309 308 308 308 308 320 322 326 322 315 313 313 309 309 311 309 306 307 307 308 312 299 290 293 295 297 291 289 288 289 291 288 288 285 290 298 300 302 288 291 302
307 308 308 309 309 310 308 308 308 307 308 316 322 324 322 314 312 314 314 313 311 311 307 309 306 308 307 292 293 297 292 297 296 296 291 288 288 286 289 285 283 301 299 293 300 304 302
306 307 307 308 308 309 310 308 308 308 307 310 321 322 324 319 314 319 317 318 315 314 314 313 307 308 308 302 300 300 289 291 293 292 299 293 297 295 294 293 302 305 301 304 304 301 300

GFSGBSN_sfc_thetae_015.txt.gz
Theta_e
317 317 319 319 319 319 319 319 318 317 315 315 315 315 316 318 318 318 316 315 315 315 314 315 315 315 315 313 310 315 331 328 321 316 314 312 307 303 300 300 300 298 298 300 300 301 300
318 319 319 319 318 319 318 317 317 315 315 314 315 316 317 317 317 317 315 315 314 313 313 313 315 315 313 305 316 316 315 318 315 315 314 312 308 307 304 301 299 301 300 298 298 300 301
317 319 318 318 318 319 317 316 316 315 315 315 317 317 317 317 317 315 315 315 313 312 313 315 315 316 316 314 313 311 314 311 312 312 310 311 309 306 304 301 304 302 297 298 299 300 299
318 318 318 317 317 318 317 316 315 315 315 317 317 317 316 316 316 314 314 314 313 314 315 316 316 315 311 320 311 312 312 311 313 314 313 311 312 307 305 303 301 297 297 292 299 301 301
317 317 317 316 317 318 317 315 316 316 316 316 316 316 316 315 315 314 313 313 314 315 316 317 313 314 309 315 310 311 310 310 312 313 311 313 309 304 302 296 292 294 289 293 296 302 301
317 317 316 316 317 318 317 317 317 316 315 316 316 316 315 315 314 314 313 315 316 315 315 318 318 309 315 307 310 310 310 312 310 311 309 306 302 298 296 293 288 290 292 293 293 294 296
317 316 315 315 317 318 317 317 316 315 315 316 316 316 315 315 315 314 310 308 309 308 313 306 307 310 306 307 309 307 311 310 309 306 299 303 297 292 295 297 298 297 294 293 293 299 297
317 316 315 315 317 317 317 317 316 315 315 316 316 315 315 315 315 314 309 314 312 312 303 314 309 308 312 311 305 307 311 306 305 299 302 298 293 299 302 301 299 297 295 294 296 300 295
316 315 313 315 316 316 316 316 315 315 315 315 315 316 314 314 314 310 313 318 323 321 301 307 309 308 309 311 305 304 308 306 302 299 299 295 298 303 301 299 298 297 295 295 295 297 296
315 314 312 314 315 315 315 315 315 314 314 314 314 315 314 313 311 318 317 320 325 324 294 299 304 306 310 309 304 308 309 306 302 298 300 298 303 302 300 299 298 295 301 299 297 293 287
315 313 312 314 314 314 313 313 313 314 314 315 314 315 312 315 313 316 318 323 323 319 282 302 304 312 308 306 305 306 310 308 300 299 300 297 299 299 298 298 300 298 302 298 297 293 291
314 313 313 314 314 314 313 313 312 313 313 314 314 315 312 312 312 321 326 326 317 297 283 299 304 304 302 305 305 306 306 309 308 302 301 299 303 301 299 302 301 302 300 299 297 294 284
314 313 314 314 314 313 313 312 312 312 313 314 314 314 313 322 317 326 326 315 293 286 302 296 300 303 301 301 302 303 302 300 297 293 293 299 299 301 303 299 302 299 295 284 284 282 283
313 312 314 314 314 313 312 311 311 311 312 313 314 314 320 328 329 327 321 303 288 298 298 303 302 302 299 301 301 302 299 295 299 300 295 292 289 298 302 299 295 297 295 283 281 280 283
312 313 313 313 313 312 312 310 311 311 311 313 314 320 322 324 329 323 310 292 295 298 301 300 301 298 297 301 300 300 297 295 297 298 294 293 293 300 301 301 299 297 290 295 289 285 281
313 313 312 312 312 311 308 307 309 311 312 313 315 316 315 325 327 319 304 297 302 304 303 302 296 299 294 296 297 298 297 301 300 301 300 297 291 298 300 301 302 297 298 288 287 279 279
312 312 312 312 312 309 307 307 309 310 311 314 315 304 318 326 321 307 295 301 303 305 307 303 300 298 300 297 298 298 298 300 302 301 300 297 295 293 298 295 293 295 293 294 292 286 279
311 311 311 312 311 307 307 308 309 310 311 313 313 299 321 323 300 302 298 305 301 304 307 306 305 302 300 300 299 299 298 300 303 303 297 297 294 284 293 298 300 297 295 295 282 284 283
311 310 310 311 309 307 307 309 309 309 310 316 307 308 320 320 292 293 304 305 306 303 303 304 303 304 304 300 295 300 300 304 305 301 297 298 291 283 289 295 298 293 296 296 294 286 283
310 310 310 308 306 306 307 308 309 309 310 314 311 297 306 308 308 304 304 301 302 306 305 306 304 304 302 300 302 298 299 304 304 301 301 301 295 288 283 288 291 289 292 293 292 281 283
310 310 309 306 305 306 307 309 309 309 310 315 311 303 303 293 299 303 304 303 301 300 305 306 302 303 300 294 298 297 300 300 302 300 301 298 290 292 293 293 293 292 291 291 289 289 283
309 309 306 306 305 306 309 309 308 308 308 313 310 308 305 302 301 302 300 301 301 302 303 301 300 302 302 297 298 295 299 298 297 299 298 299 287 287 286 294 292 289 292 292 291 292 291
309 308 306 306 305 307 310 308 308 308 310 313 314 313 310 302 300 298 299 302 303 304 304 306 303 300 296 300 302 302 302 301 301 298 296 295 287 283 282 289 287 281 289 292 293 294 292
309 308 306 309 307 310 309 308 307 308 309 319 316 315 302 293 300 302 305 305 304 304 301 305 305 298 304 305 302 300 298 298 301 300 302 290 287 284 278 280 273 291 297 296 293 294 295
308 306 308 310 310 309 309 308 307 308 309 317 316 315 301 289 303 304 303 304 304 305 303 303 305 305 307 304 290 286 285 284 290 298 298 299 287 279 279 278 284 292 295 292 290 289 298
307 306 310 309 309 308 308 308 307 307 309 317 314 316 309 295 297 309 302 303 298 298 299 302 308 309 308 291 285 281 280 286 286 292 296 297 290 282 278 273 271 287 296 299 297 282 298
308 309 309 309 309 308 308 308 307 307 308 316 315 317 315 300 306 307 302 300 305 302 297 301 302 299 304 288 286 283 283 293 285 283 280 281 282 277 283 272 281 294 298 299 282 284 297
307 308 308 308 309 309 308 307 307 307 307 314 314 316 315 302 305 310 311 306 305 304 293 300 296 296 289 287 283 284 282 285 286 291 286 282 279 281 284 280 276 298 296 287 292 298 298
307 307 307 308 308 310 308 307 308 307 308 310 313 317 318 311 307 313 311 311 309 309 305 303 298 302 299 290 287 288 286 288 285 281 294 285 288 285 286 284 294 298 296 299 299 297 296

GFSGBSN_sfc_thetae_018.txt.gz
Theta_e
319 318 318 319 319 319 318 318 317 316 316 315 315 315 315 315 317 318 317 315 315 314 314 313 313 314 312 311 307 315 327 329 325 315 311 308 307 303 298 298 298 295 296 298 298 300 296
318 318 318 319 319 318 318 317 316 315 315 314 314 314 315 316 317 317 316 314 314 314 313 312 313 315 310 304 316 314 317 319 314 312 311 310 308 306 301 298 297 298 297 296 297 298 299
318 318 319 318 318 317 318 316 316 315 314 314 314 315 316 317 317 317 315 314 314 313 311 312 314 314 313 310 316 313 311 310 311 313 308 309 309 304 302 299 301 298 294 295 296 297 296
318 318 318 318 316 316 317 317 315 315 314 314 316 316 316 316 316 315 314 313 313 312 313 314 315 313 307 319 314 310 309 309 311 313 311 310 310 306 302 300 299 295 295 290 296 298 299
318 318 318 318 315 316 317 317 315 316 317 316 316 315 315 314 314 314 313 313 313 314 315 316 311 311 302 319 309 310 309 309 310 311 309 310 308 301 300 293 290 292 287 290 293 299 297
318 318 318 317 315 316 317 317 316 316 315 315 315 315 314 314 314 313 312 313 315 315 315 316 316 307 312 310 309 308 308 310 309 308 306 304 300 296 294 291 286 288 289 289 291 293 295
318 318 318 316 315 317 317 317 316 315 314 315 315 315 314 314 314 313 310 308 306 305 310 301 305 308 306 305 307 305 308 308 307 304 297 301 295 291 293 295 296 296 292 291 291 296 295
317 317 316 315 315 317 317 317 315 314 314 314 314 314 314 314 314 313 309 312 308 309 298 310 311 310 310 306 303 304 309 303 302 297 300 296 292 297 299 300 298 297 293 292 295 298 294
316 316 315 313 315 317 316 316 314 314 314 313 313 314 314 314 313 310 308 313 319 319 301 304 308 306 307 308 302 302 306 304 300 297 297 293 296 301 300 297 297 295 293 292 293 295 294
315 314 313 313 315 315 314 314 314 313 313 313 313 313 312 312 309 312 309 315 317 313 291 297 302 304 307 307 301 306 306 304 301 296 297 296 301 300 298 296 296 293 298 297 295 291 285
314 314 312 312 313 314 313 313 313 313 313 313 312 313 312 313 309 314 317 322 322 312 280 299 302 310 306 303 303 303 307 306 298 297 298 295 297 297 296 296 298 296 299 296 295 290 289
314 313 312 312 313 313 312 312 312 312 312 312 312 313 311 310 309 315 323 321 310 294 281 297 302 301 299 303 302 302 303 307 305 300 298 297 300 298 297 300 299 300 298 297 295 291 283
313 313 312 312 313 313 312 312 311 311 311 312 312 313 311 320 315 322 321 307 292 283 300 295 297 301 299 298 301 301 299 297 295 291 291 297 297 299 301 297 300 297 293 283 283 281 282
313 311 312 312 313 312 312 311 310 310 311 311 312 311 313 322 324 322 312 299 288 296 296 300 299 300 297 299 299 300 297 293 297 297 292 290 288 296 300 296 293 295 292 282 281 279 282
312 311 312 312 312 311 310 306 309 310 310 311 312 312 318 320 323 317 304 290 292 296 299 298 299 295 295 298 298 297 294 293 295 296 292 291 291 298 298 298 298 295 288 294 286 283 280
312 312 312 311 311 310 306 307 308 310 311 312 312 311 308 321 320 311 300 294 299 301 302 300 294 297 292 295 295 295 295 298 298 299 298 295 288 296 298 300 299 294 296 288 285 278 279
311 312 311 311 310 306 307 308 309 310 311 311 312 300 307 322 312 302 293 297 301 304 305 300 298 296 297 294 296 295 295 298 300 299 298 296 292 291 297 293 291 293 291 291 290 284 279
310 310 310 310 308 306 306 309 309 310 310 310 307 296 315 310 294 297 295 302 301 301 305 303 302 301 298 298 297 296 296 298 302 301 293 296 291 283 291 296 297 294 293 291 281 283 281
310 310 310 310 305 306 306 309 309 309 310 309 303 305 316 307 288 288 300 302 303 301 301 301 301 302 302 298 294 298 298 302 301 298 295 295 289 282 287 293 295 291 294 295 290 284 282
309 309 309 306 306 306 306 308 309 309 310 312 307 294 302 304 301 298 299 298 299 304 303 303 301 302 300 297 300 296 297 301 300 298 299 299 292 287 283 287 289 286 290 292 289 280 282
309 309 306 305 305 306 307 308 308 309 309 310 308 298 299 291 294 298 301 300 299 298 302 303 300 300 298 292 296 295 298 298 299 299 298 296 288 290 290 291 291 289 289 289 288 288 283
308 308 305 305 306 306 309 308 308 308 310 309 306 304 300 295 299 299 298 299 299 300 300 299 297 300 299 295 296 294 296 295 294 296 296 297 285 286 286 291 291 287 290 290 289 290 289
308 306 305 305 305 308 309 307 307 308 309 310 310 310 303 297 295 295 297 299 301 302 302 303 301 297 294 298 299 299 299 300 299 296 295 292 285 281 280 286 286 280 288 290 290 291 290
308 306 306 305 308 309 308 307 307 308 311 319 315 310 300 291 296 297 303 302 301 301 299 303 302 297 302 305 299 297 295 297 299 298 298 288 285 280 276 277 272 289 294 294 291 293 294
306 306 309 309 308 308 307 306 306 307 308 313 313 310 299 287 299 301 301 301 302 302 301 301 303 303 303 299 287 285 284 286 289 296 297 294 283 279 274 277 281 289 293 291 289 288 295
305 307 309 308 307 307 306 306 306 307 309 312 311 313 302 293 294 306 300 301 296 295 296 300 306 307 301 287 283 280 279 283 285 290 294 293 286 280 280 272 270 283 294 297 295 282 296
305 308 308 308 307 307 307 307 307 307 308 313 310 314 309 298 303 304 299 299 302 297 295 298 299 298 297 281 283 278 283 290 283 282 280 281 278 276 271 271 280 289 295 296 282 283 296
307 307 307 307 307 306 306 306 306 307 307 313 310 313 309 299 302 308 308 302 303 299 292 298 295 293 288 283 280 284 278 284 284 288 285 282 279 278 278 271 275 294 294 287 290 295 296
307 306 307 307 308 306 306 306 306 307 307 312 308 314 314 306 304 309 309 309 308 306 302 299 295 296 294 288 286 288 280 286 283 281 292 284 286 283 285 284 292 295 295 295 298 296 295

GFSGBSN_sfc_thetae_021.txt.gz
Theta_e
321 321 319 319 319 319 319 318 317 317 315 315 314 314 315 315 315 315 315 316 314 314 314 313 312 313 310 307 305 312 329 329 316 311 306 305 304 303 298 298 298 294 294 297 298 298 296
321 319 318 318 318 318 318 318 317 316 315 314 314 313 313 314 314 316 317 315 314 313 313 312 311 313 307 298 311 313 318 315 314 310 308 307 306 306 301 298 295 297 295 294 297 297 297
321 319 318 318 318 318 318 317 317 316 315 314 314 313 313 315 317 317 316 315 313 313 312 311 313 313 310 304 312 312 315 313 312 310 307 310 309 304 301 296 299 296 293 294 294 295 295
320 319 318 318 317 317 316 316 317 317 314 314 314 314 315 315 315 315 315 313 312 312 311 312 314 312 304 315 314 313 305 307 310 312 310 309 308 304 300 299 297 294 293 289 294 296 296
319 318 318 318 317 316 315 316 316 317 317 316 316 315 315 314 314 314 313 312 312 313 313 315 310 310 300 315 308 310 308 307 308 309 308 309 306 299 298 292 289 290 285 289 291 296 294
319 318 318 318 317 315 316 317 316 316 316 315 315 315 314 314 313 313 312 312 314 313 314 316 314 304 308 305 307 305 306 307 306 307 304 303 299 295 293 290 284 286 287 286 289 292 293
319 318 318 318 317 315 317 318 316 315 314 315 315 314 314 314 314 313 310 308 305 304 308 299 301 304 307 306 306 304 306 306 305 302 296 299 294 290 291 292 293 292 290 288 289 294 293
318 318 318 318 317 315 317 317 316 314 314 314 314 314 314 314 314 313 308 309 306 310 298 308 310 309 311 309 301 303 308 302 301 295 298 295 291 295 299 298 296 294 291 289 292 296 293
316 316 317 317 316 315 317 316 315 314 313 313 313 314 314 313 313 309 306 309 316 313 302 302 306 305 306 306 300 300 304 302 298 296 295 292 294 299 298 296 295 294 291 290 291 292 294
316 315 315 316 314 315 316 315 315 314 313 313 313 313 312 312 307 308 306 312 318 309 290 295 300 302 305 305 299 304 304 302 299 294 295 295 300 298 296 294 294 291 296 295 293 289 286
315 314 314 314 313 313 313 313 313 313 313 313 312 313 312 312 308 313 315 321 318 308 279 296 300 307 304 302 300 300 306 303 296 296 296 294 295 296 294 294 296 294 297 294 293 288 287
314 314 313 313 312 312 313 312 312 312 312 312 312 312 311 310 307 312 320 315 308 292 280 295 300 299 298 300 300 300 303 305 302 298 297 296 298 297 295 298 297 298 296 295 293 289 282
314 313 313 312 312 312 313 312 311 311 311 312 312 312 310 316 314 320 316 304 290 284 297 293 295 298 297 296 298 298 297 295 293 290 290 295 295 297 299 295 297 296 291 282 281 281 281
313 312 312 311 312 312 312 311 310 311 311 311 311 310 311 313 321 318 307 295 286 294 293 297 298 297 295 297 297 297 295 292 295 294 291 288 286 294 298 294 292 292 291 282 282 279 281
313 312 311 311 312 312 311 308 307 310 311 311 310 309 315 317 320 312 301 287 290 294 296 297 297 294 293 296 296 295 292 292 294 295 291 289 289 296 296 297 296 292 287 292 284 282 279
313 312 311 311 311 311 308 306 307 310 311 311 310 306 306 318 315 309 297 292 297 300 300 298 293 295 291 293 294 293 293 296 296 296 297 294 287 294 296 298 297 293 295 286 283 278 278
312 311 311 311 310 308 307 306 308 310 311 312 307 297 303 317 306 300 290 294 301 301 303 297 295 294 294 293 294 293 293 296 298 298 297 295 289 289 295 291 290 291 289 289 288 283 278
311 310 310 310 309 306 306 309 309 310 310 310 303 292 311 304 293 294 294 300 301 299 303 302 301 299 295 296 295 294 294 296 300 299 292 294 289 283 289 295 296 293 291 289 280 282 280
310 310 309 310 306 306 306 309 309 310 310 308 300 304 313 302 286 287 296 301 300 299 299 299 298 300 300 296 292 296 296 300 298 297 294 293 288 281 286 291 293 290 292 291 287 283 281
309 309 309 307 306 306 305 308 309 309 310 310 301 294 300 302 296 294 296 296 297 302 301 301 299 301 298 296 298 294 295 299 297 296 299 297 290 285 282 285 288 285 288 290 288 280 281
309 308 307 306 306 306 306 309 309 309 309 310 304 295 297 291 295 298 299 298 296 296 300 301 298 298 296 291 293 293 296 296 296 298 297 294 286 288 288 289 289 287 287 288 287 286 282
308 307 306 305 306 306 308 308 308 308 309 307 304 299 298 292 296 297 297 297 297 298 299 297 296 298 297 294 295 293 294 292 290 295 294 294 284 285 285 289 289 285 287 287 287 287 288
307 305 305 305 306 308 308 307 308 308 309 305 306 307 300 294 294 294 295 298 299 300 300 301 299 296 292 296 298 297 297 297 297 294 292 289 284 281 278 284 284 278 285 289 289 289 289
305 305 305 305 308 308 307 306 307 308 310 312 311 306 298 289 291 294 300 300 299 299 298 300 299 296 299 300 297 296 294 296 298 296 295 287 282 278 275 277 271 285 291 292 290 290 292
305 306 305 308 308 307 306 306 306 308 310 314 310 305 297 287 296 298 300 299 300 300 299 300 301 301 301 294 286 285 283 285 288 294 293 292 282 278 274 275 281 286 291 289 288 287 293
305 308 308 307 307 306 306 306 306 307 310 313 310 307 301 295 296 302 299 299 294 293 295 298 304 303 297 285 282 278 278 282 284 288 293 289 284 279 277 271 270 282 291 295 292 282 294
307 307 307 307 307 306 306 306 306 307 311 311 310 310 305 297 301 302 297 297 299 295 293 297 298 295 295 280 277 278 282 287 282 281 279 280 276 275 269 271 279 287 294 294 282 282 294
306 307 306 306 308 306 306 306 306 307 309 310 309 310 306 297 301 306 306 301 300 297 291 296 294 292 285 282 279 280 276 284 283 286 285 282 281 277 278 272 276 292 292 287 290 291 296
306 306 306 306 306 307 302 303 304 306 308 310 308 312 310 303 303 307 307 307 306 303 300 296 296 294 293 286 281 283 278 286 281 280 289 283 285 283 284 284 291 293 292 294 295 295 295

GFSGBSN_sfc_thetae_027.txt.gz
Theta_e
324 323 322 321 321 320 319 319 319 318 318 317 315 315 315 315 314 315 315 314 314 316 314 313 312 312 310 307 306 318 328 327 319 309 308 306 304 303 301 302 301 299 300 299 299 306 307
323 322 322 321 320 320 319 319 318 318 317 317 315 314 314 314 314 313 313 313 314 315 313 312 311 312 306 299 311 322 318 314 311 309 307 306 305 306 304 301 300 301 298 298 297 299 300
324 322 321 320 320 319 319 318 317 317 316 317 316 315 314 313 313 314 314 314 314 313 312 312 311 311 308 306 313 319 315 313 311 310 307 308 309 306 306 299 302 299 297 298 298 299 299
323 323 322 320 319 318 317 316 317 317 316 316 317 315 313 313 313 313 314 314 314 313 311 311 313 310 305 314 316 312 313 311 312 312 310 311 310 306 305 303 299 297 297 293 298 299 298
323 322 321 320 318 317 316 316 316 316 316 316 316 316 315 314 314 313 313 313 312 311 312 313 309 308 304 315 310 312 309 308 309 311 311 310 311 305 300 297 295 295 292 292 295 299 298
322 322 321 320 318 317 317 316 316 315 315 316 316 315 314 314 313 313 312 311 311 312 312 313 312 305 307 304 310 307 310 310 310 307 306 305 302 299 297 296 290 292 292 292 294 297 299
315 322 320 320 319 318 318 317 316 314 314 315 315 315 314 314 313 312 311 310 305 304 308 303 304 303 304 310 309 306 309 309 309 306 300 301 298 295 297 296 295 294 293 293 294 296 299
315 318 320 320 319 318 318 317 316 314 315 315 314 314 314 314 313 312 309 305 306 310 304 308 307 307 309 310 304 304 311 306 305 298 300 299 295 298 300 298 296 295 294 293 295 297 299
314 314 319 319 318 318 318 317 315 314 315 314 313 313 314 313 312 311 307 309 314 316 305 304 307 305 304 308 302 303 308 305 301 298 297 296 297 300 299 297 296 295 294 294 294 297 298
313 312 317 318 318 317 317 316 315 314 314 313 312 313 312 312 308 308 306 313 314 315 294 296 300 304 305 305 302 306 307 305 301 296 298 298 300 298 297 296 296 294 298 295 294 294 292
312 312 314 317 316 315 315 315 314 314 314 313 312 312 312 312 309 308 315 322 316 308 283 297 300 308 305 301 301 302 308 304 298 297 299 296 298 296 296 296 299 296 298 296 294 293 293
312 312 310 316 315 314 314 313 312 313 313 312 312 312 311 310 308 311 317 314 309 294 284 295 301 299 300 301 301 302 304 305 303 299 299 297 301 299 299 299 298 300 298 297 295 294 288
310 311 311 314 314 314 313 312 311 312 312 311 311 312 311 312 310 321 315 305 292 287 297 293 295 298 298 298 298 299 298 297 296 293 293 296 297 299 301 298 299 299 296 289 288 288 286
309 310 311 313 314 313 312 311 311 311 311 311 310 311 310 312 314 315 305 297 288 293 293 297 297 297 296 298 297 297 296 295 297 296 293 290 289 296 299 298 296 295 296 290 282 284 287
309 309 308 313 313 312 311 311 311 311 310 310 310 308 308 315 313 311 300 289 289 293 296 296 297 294 295 297 297 296 294 294 295 297 294 291 291 298 298 299 299 294 291 295 288 285 285
308 309 309 312 312 311 311 310 311 310 310 310 307 306 309 317 316 305 296 290 295 300 299 298 293 295 292 295 295 295 295 297 296 299 299 296 290 295 297 299 299 297 297 290 289 282 280
307 308 308 309 311 310 310 310 310 308 310 310 306 303 307 314 307 299 291 292 300 304 301 298 295 295 295 294 295 294 294 298 299 299 300 295 295 293 296 294 294 295 292 291 291 287 283
306 307 307 307 310 310 310 310 308 307 309 308 300 294 311 305 296 294 293 297 301 300 303 302 300 298 296 297 295 295 295 297 299 301 297 296 293 290 291 296 298 296 293 292 287 284 284
306 305 305 307 310 309 309 309 307 307 311 306 298 305 313 303 290 290 296 300 302 299 300 301 300 301 301 297 294 296 297 300 299 299 297 297 292 287 289 293 295 294 294 291 289 288 285
305 304 306 308 309 309 309 307 306 309 311 308 303 297 302 299 297 295 296 297 298 301 301 301 300 301 299 297 298 295 296 299 299 298 298 299 291 290 287 288 291 289 292 291 291 287 286
305 305 307 309 309 308 307 306 308 309 310 308 301 298 301 294 294 294 297 298 297 297 301 301 299 299 297 294 295 294 297 296 297 299 298 296 291 290 289 290 290 289 290 290 289 290 288
306 305 307 308 308 307 306 305 308 308 310 307 299 296 295 294 298 296 296 296 296 298 299 298 298 299 300 295 296 294 296 294 292 297 296 294 289 289 288 289 289 288 289 289 290 290 290
306 307 308 307 307 306 306 305 308 309 310 305 306 303 299 292 295 292 294 297 297 300 300 300 300 297 296 299 300 298 298 297 297 296 293 291 289 286 283 285 285 283 288 290 290 291 292
306 307 307 307 306 305 306 307 307 309 308 308 307 302 295 288 293 293 297 300 298 300 299 300 300 298 299 302 300 299 297 297 297 294 294 288 286 282 283 281 280 289 293 292 291 292 292
306 307 306 306 305 306 307 307 307 309 309 311 309 304 296 286 292 295 298 298 299 300 299 300 301 300 301 297 292 290 288 289 290 292 290 291 286 281 283 281 284 288 288 290 290 291 295
306 305 305 305 306 307 306 306 307 308 309 311 310 306 300 292 292 299 298 299 295 295 296 298 302 301 296 288 287 285 285 288 286 290 292 289 287 287 280 281 279 288 290 296 295 288 295
305 305 305 307 306 305 305 306 307 308 309 312 310 308 305 298 302 301 298 297 298 297 295 297 298 298 297 287 285 285 286 287 285 283 283 286 284 284 277 283 284 290 293 296 287 289 294
305 306 306 305 305 305 305 306 306 308 308 313 308 310 306 299 303 306 305 299 299 299 295 298 297 296 290 288 288 286 286 287 287 288 287 287 284 283 279 280 282 292 295 292 296 296 296
305 305 304 303 303 304 305 306 306 308 308 311 309 311 308 304 304 307 308 308 308 304 300 297 299 296 296 290 286 285 285 285 285 286 290 286 290 289 287 289 294 294 297 298 297 296 297

GFSGBSN_sfc_thetae_030.txt.gz
Theta_e
326 325 324 323 322 321 321 321 319 319 318 318 317 316 316 316 315 315 315 314 315 315 316 313 313 312 314 310 308 322 328 326 319 314 314 310 307 306 302 304 306 304 304 305 308 310 311
321 324 323 322 322 321 321 320 319 318 317 317 317 317 316 316 314 314 314 314 314 314 314 312 312 312 312 303 315 324 324 318 315 313 314 312 308 309 307 305 305 306 304 303 304 308 310
320 323 323 321 320 320 321 319 318 318 317 317 316 316 316 314 314 313 314 314 314 314 312 312 311 313 311 309 317 323 319 317 316 314 312 315 313 308 309 306 306 304 300 301 301 304 308
319 319 323 321 320 319 319 318 317 317 317 317 317 316 315 314 314 313 314 314 314 313 312 311 312 312 309 317 320 318 319 317 318 317 315 315 315 310 308 306 303 300 301 297 301 304 303
319 319 322 321 319 318 318 317 317 317 317 316 316 316 315 314 314 314 313 313 312 311 312 313 313 312 307 318 313 316 318 311 314 315 315 314 313 308 306 301 299 299 295 296 297 303 303
318 318 318 322 320 319 318 317 316 316 316 315 315 316 315 314 314 313 312 311 312 313 313 314 316 310 314 308 313 313 315 314 312 312 309 309 308 304 302 300 293 295 296 297 297 301 302
316 317 317 320 320 319 319 318 316 315 315 315 315 316 315 314 314 312 311 314 312 311 312 308 307 309 308 314 314 310 312 313 311 310 303 306 302 298 300 301 300 299 298 298 299 303 302
314 315 316 316 320 320 319 319 316 315 315 315 315 315 314 314 314 312 315 312 312 317 308 313 311 310 312 313 307 308 314 308 307 302 304 302 299 301 303 302 301 300 298 297 299 302 304
312 313 315 315 319 320 319 318 316 315 314 314 314 314 314 313 312 311 313 313 322 321 311 307 311 308 307 310 306 306 311 308 303 302 301 300 301 304 303 301 300 300 299 298 298 301 304
311 312 314 314 316 319 318 318 317 315 314 314 313 313 313 312 310 315 311 316 320 321 301 300 304 308 309 310 304 310 312 308 305 300 303 302 303 302 302 300 301 297 301 301 300 299 295
310 311 312 313 313 317 316 316 316 315 314 314 313 313 312 312 316 311 319 320 328 320 287 302 304 312 309 305 306 307 312 309 302 301 302 299 301 301 300 300 302 300 302 301 300 300 298
309 310 311 313 312 315 315 315 314 314 313 313 312 312 312 312 316 319 323 327 321 301 287 298 304 303 304 304 304 307 308 310 308 303 304 302 305 304 303 303 303 305 302 302 301 300 292
308 309 310 311 311 314 315 314 313 312 312 312 312 312 313 318 312 328 328 318 299 292 300 297 299 302 302 300 302 304 303 302 300 297 298 301 301 304 305 302 304 304 301 293 291 291 290
307 308 309 310 311 312 314 313 312 311 311 311 310 311 313 318 323 323 318 307 291 296 297 301 301 302 299 301 301 302 302 299 302 301 299 295 293 300 303 302 300 300 299 293 283 287 291
307 308 309 310 311 311 313 313 311 311 311 311 310 312 314 318 321 320 310 297 295 298 301 299 300 297 298 300 301 301 301 300 301 303 297 296 294 302 302 304 303 299 297 301 294 291 291
307 307 307 309 309 311 312 312 311 311 310 310 313 312 313 323 325 316 305 297 300 304 303 302 295 298 296 298 298 300 300 301 301 303 305 300 294 300 301 304 304 302 302 295 297 286 283
306 306 307 308 309 308 312 312 310 311 310 311 313 307 319 328 323 312 299 300 302 308 306 301 299 298 299 298 299 299 299 301 303 302 305 303 299 297 300 299 299 299 298 296 297 294 287
305 306 306 307 308 308 311 311 310 309 310 310 312 303 321 321 307 306 301 302 304 305 307 305 305 302 300 301 300 298 299 301 305 305 301 302 301 296 297 300 302 301 299 298 292 289 293
305 305 306 306 307 306 310 310 309 308 310 312 306 311 318 313 300 301 303 303 307 303 305 305 303 304 305 303 298 301 302 302 303 304 303 303 299 293 293 297 300 298 300 298 297 296 291
304 305 305 306 306 307 309 309 308 309 310 316 309 304 311 309 307 304 301 301 302 306 305 306 305 306 305 302 303 301 301 301 302 303 298 302 300 297 293 294 298 295 297 298 297 291 291
304 304 305 305 306 305 308 308 308 309 310 315 311 306 310 300 301 304 304 302 301 301 305 307 304 305 304 300 300 300 302 299 301 300 303 303 297 297 295 295 295 295 296 297 295 296 292
304 304 304 304 303 305 308 307 307 308 310 314 307 306 306 305 304 302 300 301 301 302 304 303 304 305 306 302 302 301 302 301 300 302 302 301 296 295 293 294 294 293 296 296 297 297 296
304 304 304 303 304 306 308 307 307 307 310 314 316 310 309 299 302 301 301 302 302 307 304 305 307 305 303 304 306 307 305 304 303 302 301 299 297 293 289 291 291 289 294 296 296 298 297
304 304 304 304 306 308 307 306 307 308 309 318 319 313 308 300 301 299 302 304 304 307 305 304 307 306 304 309 308 307 305 303 303 301 301 297 295 292 291 287 285 294 297 297 297 298 300
301 303 305 306 307 307 305 306 307 307 309 321 320 314 309 295 302 301 303 305 306 306 305 305 305 306 309 306 302 297 298 297 297 298 297 298 295 289 290 288 291 293 293 293 294 294 300
303 305 306 307 306 305 305 306 307 308 309 321 321 319 314 304 301 304 304 307 305 305 304 302 305 308 304 303 300 294 292 294 292 295 297 295 296 296 288 289 287 293 296 299 299 291 299
304 306 306 306 305 305 306 306 307 307 309 321 320 318 316 310 307 309 304 305 309 307 305 302 302 303 304 301 297 297 295 294 291 290 289 292 292 291 289 290 292 296 296 300 289 292 302
305 305 304 304 305 306 306 306 306 307 309 321 317 320 319 311 309 311 309 308 307 310 305 304 304 303 302 300 299 297 296 295 293 294 293 293 292 290 289 288 287 298 299 294 300 303 302
304 305 305 305 305 305 305 306 306 307 309 314 317 318 320 315 311 315 313 314 312 312 310 307 308 305 307 303 300 298 292 290 294 293 296 292 297 296 295 296 299 301 303 304 304 303 303

GFSGBSN_sfc_thetae_033.txt.gz
Theta_e
321 320 325 324 323 322 323 322 321 319 319 318 318 318 318 317 317 316 315 315 315 315 315 315 314 313 314 313 311 326 328 327 318 317 313 311 307 307 303 305 307 305 307 308 314 312 311
318 320 321 324 323 323 323 322 321 319 318 318 318 317 317 317 316 315 315 314 314 315 315 313 313 312 313 306 317 323 322 318 316 316 313 312 309 310 307 305 306 308 307 309 311 311 311
317 319 319 321 322 322 322 321 320 319 318 318 317 317 316 317 316 315 314 314 315 315 313 313 312 314 312 311 320 325 320 318 317 316 312 315 315 310 311 307 310 307 303 306 307 309 310
317 318 319 319 321 320 320 319 319 319 318 318 317 316 316 316 315 315 314 314 314 314 312 311 312 316 310 319 322 319 323 319 320 319 316 317 317 312 310 310 306 303 303 299 304 306 310
315 317 318 319 319 320 319 318 318 318 318 317 317 316 316 315 315 314 314 314 312 312 311 313 314 316 309 318 314 318 320 314 317 317 317 316 315 311 309 304 301 301 296 298 299 306 307
314 316 317 318 318 320 319 318 318 317 317 316 316 315 316 315 315 314 313 312 312 312 314 318 318 313 316 310 315 315 319 317 314 314 312 311 310 306 305 302 293 296 296 298 299 304 306
312 315 316 317 316 318 320 319 318 316 316 316 316 316 316 315 315 313 312 316 313 314 315 311 310 310 310 315 317 314 315 314 314 312 306 309 303 300 302 303 303 301 299 298 301 304 302
311 312 314 315 316 316 319 320 318 316 316 316 315 316 315 315 314 313 315 313 316 320 311 314 312 311 314 314 308 311 315 308 309 303 305 304 300 304 305 304 301 300 298 299 301 303 304
311 311 311 314 314 316 316 320 318 316 316 315 315 315 315 314 313 312 315 315 325 324 313 310 312 310 310 312 307 309 312 310 306 303 302 300 302 306 303 301 300 300 298 299 299 302 304
310 310 311 313 313 315 315 318 318 316 315 314 314 314 313 312 310 317 314 319 321 322 306 303 305 308 310 311 305 312 313 310 306 302 303 302 306 303 301 300 302 298 303 302 301 300 294
309 310 310 311 312 313 313 315 317 316 315 314 313 313 312 312 320 314 322 324 326 325 290 304 306 315 312 307 307 308 314 310 303 303 304 301 303 301 300 301 304 301 304 303 303 300 299
309 309 309 310 311 312 312 314 315 315 314 313 313 313 312 313 317 323 326 331 327 303 290 299 306 304 304 306 305 309 308 311 310 304 304 303 308 307 305 305 305 306 303 303 303 300 293
307 308 309 310 310 311 312 313 314 314 313 313 312 312 313 319 314 326 330 323 301 294 302 298 300 303 303 302 302 304 303 303 300 296 296 302 303 306 307 303 306 304 301 293 291 292 291
305 307 308 309 310 310 312 312 314 313 312 312 311 311 313 319 323 327 326 310 294 298 299 303 302 302 299 302 302 302 301 299 303 302 298 296 294 303 306 304 301 302 300 294 286 288 291
303 304 307 308 309 310 311 311 313 312 311 311 310 314 316 319 324 326 316 300 298 299 303 300 301 298 299 302 301 301 301 299 302 304 297 296 296 304 305 306 305 301 297 303 296 296 292
303 303 305 306 308 309 310 310 312 312 311 310 312 312 313 323 324 320 309 299 302 305 305 303 297 300 297 299 298 300 300 303 303 306 308 302 295 302 303 306 306 303 305 295 296 287 286
302 303 304 306 307 308 309 310 311 311 310 310 314 308 318 325 322 312 301 302 305 307 307 303 300 299 300 299 299 299 300 304 306 306 308 304 300 300 302 300 300 301 299 299 299 297 289
302 301 302 305 306 307 309 310 311 310 310 309 314 303 322 328 303 308 303 305 304 306 310 306 305 303 301 302 300 300 300 303 308 308 303 306 301 297 299 304 305 304 301 301 294 291 294
301 299 304 305 306 306 308 307 310 310 310 312 309 310 324 321 301 305 307 305 306 305 306 305 303 305 305 302 298 301 302 306 307 307 304 306 299 294 296 300 303 299 301 301 299 298 293
301 300 303 305 306 306 307 307 309 310 310 316 310 304 311 314 311 307 304 303 302 308 307 307 304 308 305 302 305 301 302 304 306 307 301 304 301 298 293 296 300 298 299 300 299 293 293
300 302 304 304 305 306 307 306 308 309 310 313 312 306 310 303 307 308 307 304 302 302 308 309 306 306 304 301 302 302 305 303 305 301 304 306 298 300 300 299 299 298 298 299 297 297 294
301 303 303 304 305 305 305 306 307 309 310 310 307 307 311 308 309 306 302 303 301 305 306 305 304 305 306 303 304 302 305 304 303 306 306 306 298 299 297 300 298 296 299 298 298 298 298
303 303 304 304 305 305 305 305 306 309 310 310 317 316 312 306 309 304 305 303 303 308 308 309 307 306 305 307 311 311 311 309 308 306 305 303 300 296 291 295 295 291 296 298 299 300 299
302 303 304 304 305 304 302 303 306 308 310 316 317 316 309 304 307 303 304 305 305 308 306 308 311 308 310 314 313 311 309 307 306 305 308 302 300 297 292 289 284 295 300 299 298 300 301
302 303 304 304 304 303 302 302 306 307 308 318 323 316 310 301 306 304 304 304 307 310 309 309 309 312 315 311 304 299 300 299 299 301 301 303 299 293 291 289 293 295 297 296 295 295 301
302 303 303 304 303 304 304 305 306 307 308 315 323 325 317 311 305 306 304 306 305 307 307 305 311 314 311 309 304 295 293 296 295 298 300 299 301 296 291 288 285 296 299 301 301 292 301
302 302 303 303 303 304 305 306 306 306 308 314 324 326 316 308 309 309 304 305 310 309 307 306 307 306 309 306 298 299 297 299 294 293 290 295 295 293 292 291 294 300 300 302 291 295 303
302 302 303 302 304 305 305 305 306 306 308 311 324 326 320 313 312 314 312 308 311 310 307 309 306 307 306 301 303 301 299 299 297 298 296 294 294 291 295 289 287 301 301 295 302 304 304
301 301 304 305 305 305 305 305 305 306 308 310 321 325 328 317 314 320 318 318 316 317 314 311 309 309 309 306 306 306 296 295 300 294 300 295 300 299 298 298 302 303 302 305 305 304 305

GFSGBSN_sfc_thetae_039.txt.gz
Theta_e
317 318 319 319 320 320 325 324 322 321 320 319 319 319 319 318 319 318 317 315 315 315 316 316 316 316 310 307 309 320 328 326 316 311 306 306 305 303 297 298 299 297 300 309 313 312 309
315 316 317 317 319 320 321 324 323 321 320 319 318 318 318 318 318 317 317 315 315 315 316 316 315 315 307 302 314 326 321 316 312 307 308 308 306 305 301 300 299 302 302 307 308 310 310
315 315 316 316 317 319 319 320 322 321 320 319 318 318 317 317 317 317 316 316 315 315 316 316 314 311 308 305 313 310 318 313 310 308 306 310 308 305 304 301 307 304 299 304 305 307 306
315 315 315 315 316 316 317 318 320 321 320 319 319 318 316 316 315 315 315 315 314 315 316 315 314 309 304 318 314 314 312 313 312 311 311 311 312 308 304 305 304 298 298 294 301 307 308
314 315 315 315 315 316 316 317 318 320 321 319 319 317 316 315 314 314 314 314 314 315 315 314 308 307 307 321 313 315 313 313 314 314 312 314 310 305 304 297 294 295 290 293 297 306 305
312 313 314 314 314 315 316 317 317 318 319 319 318 317 316 314 314 314 313 314 314 313 312 313 312 304 310 309 314 313 313 313 312 311 310 308 303 299 298 294 287 291 292 292 294 301 302
311 312 314 313 314 315 316 317 316 317 318 318 318 317 316 315 315 314 311 309 305 305 307 306 307 306 308 313 314 310 312 309 310 307 299 306 296 293 296 298 300 299 296 294 296 299 300
309 310 313 313 313 314 316 316 316 315 318 318 317 317 316 315 315 313 309 306 311 310 305 313 312 310 311 313 307 309 311 304 304 300 304 300 295 302 303 302 301 299 296 294 298 299 298
310 310 312 312 312 313 313 315 314 314 316 317 317 316 315 314 313 310 308 309 314 312 304 309 313 311 307 310 306 305 307 305 303 301 301 296 300 305 303 300 298 298 296 296 295 296 294
309 309 308 311 312 312 312 312 314 315 314 316 316 315 314 312 307 310 308 314 313 311 297 302 307 308 308 309 304 310 309 305 304 300 301 300 305 303 301 299 299 294 300 300 299 294 287
308 309 308 309 310 311 311 311 312 314 314 315 315 314 312 312 308 309 315 321 314 314 284 304 304 312 309 305 305 305 310 304 300 301 301 299 301 299 298 300 302 297 302 299 299 294 293
307 307 308 308 309 309 310 310 311 312 313 314 314 313 312 311 309 310 313 315 318 298 287 300 305 302 301 303 303 305 304 307 305 301 301 300 305 303 301 303 302 303 300 299 298 294 287
306 306 307 307 307 309 309 310 310 312 312 313 314 313 311 314 307 315 313 312 296 288 301 297 298 302 300 299 300 301 299 297 294 292 292 299 299 303 305 299 302 300 294 286 284 284 284
305 305 305 305 307 307 308 309 309 310 311 312 312 311 311 312 314 315 315 304 290 295 297 303 300 300 297 299 299 299 297 293 297 295 293 291 290 300 304 300 298 297 295 288 281 282 285
304 304 304 305 304 307 308 308 308 310 311 312 311 310 309 310 313 313 309 295 292 298 299 300 299 295 295 298 299 297 294 294 296 297 290 292 293 303 304 304 301 298 293 298 291 289 284
304 304 303 304 304 305 307 308 308 309 311 311 309 307 307 312 315 311 302 295 299 304 304 302 295 296 292 295 295 294 294 298 298 300 302 299 291 300 302 304 302 298 299 290 290 282 281
303 302 302 302 303 304 306 307 308 309 310 311 308 302 309 314 314 305 294 297 301 307 306 301 298 296 296 295 295 294 295 299 300 303 304 300 297 296 301 297 294 296 293 294 293 291 282
301 301 302 302 302 304 305 307 307 309 310 309 306 296 310 315 297 297 295 300 303 304 307 305 303 302 297 298 297 295 295 302 302 303 298 302 296 291 294 301 301 299 297 297 285 286 287
301 301 301 301 302 303 304 305 307 308 309 306 301 302 311 311 290 292 297 300 304 303 303 303 302 303 303 297 296 297 301 307 307 303 299 301 294 285 289 296 299 296 297 297 297 291 287
300 300 301 300 299 303 303 303 306 307 309 307 302 295 304 306 299 296 294 296 298 306 305 305 303 304 300 298 300 297 299 305 306 304 301 303 297 291 285 290 296 293 296 296 293 283 285
300 299 298 297 301 302 303 303 305 306 308 306 302 297 303 296 297 296 298 297 299 299 305 305 302 301 299 295 297 296 301 301 305 302 302 300 291 293 294 296 298 297 296 296 292 293 287
299 299 299 298 300 301 302 303 303 306 307 302 299 299 304 302 302 299 297 297 298 301 302 300 300 301 300 297 298 296 301 300 298 301 299 300 292 293 291 297 295 292 295 295 294 295 293
299 299 300 300 301 302 303 303 302 305 306 300 301 304 304 299 299 297 296 299 300 303 304 304 302 301 300 303 305 305 305 304 303 300 297 297 294 288 285 290 290 282 290 293 295 296 294
299 300 301 301 301 302 302 302 302 304 305 304 302 304 301 294 299 298 299 300 303 303 302 304 305 302 307 310 308 306 304 304 306 305 304 297 294 287 282 283 275 290 297 296 294 294 294
300 301 301 301 301 301 302 302 302 304 306 304 305 303 304 288 300 299 299 302 304 306 303 306 308 309 310 307 297 293 290 289 295 300 299 302 292 285 280 281 288 291 294 294 291 290 296
300 301 301 301 301 301 302 302 303 305 306 305 304 306 306 300 298 303 299 303 300 300 300 305 310 310 309 303 290 286 284 291 290 293 299 298 296 284 283 279 275 289 295 299 297 285 297
300 301 300 302 302 302 303 303 304 304 305 303 302 306 305 302 306 304 299 300 306 303 299 304 305 303 307 288 288 284 284 296 287 286 285 284 285 281 278 277 285 297 298 299 284 286 298
301 300 301 302 301 302 303 303 304 304 304 302 300 305 307 303 306 309 308 306 306 304 297 303 303 300 297 290 288 286 284 289 290 296 290 287 284 279 285 281 280 298 297 290 296 298 298
301 301 302 302 302 302 303 303 303 304 304 304 298 307 311 304 306 316 314 314 312 311 307 305 305 302 303 296 294 290 289 287 288 283 297 287 293 288 290 287 298 298 298 301 301 299 299

GFSGBSN_sfc_thetae_042.txt.gz
Theta_e
316 316 317 318 319 319 321 322 323 321 320 319 319 318 319 319 319 318 317 316 316 315 315 315 316 316 309 305 306 318 327 327 313 308 304 303 303 302 297 297 298 296 298 304 310 309 307
316 316 316 317 317 318 320 320 320 321 320 319 318 318 318 318 318 317 316 316 316 315 315 315 316 315 306 298 312 323 316 312 310 306 304 304 304 305 300 299 298 301 302 306 308 308 308
316 316 315 316 316 317 318 318 318 321 321 319 319 318 317 317 317 316 315 315 315 315 315 315 315 311 305 299 311 310 316 309 309 306 303 307 307 303 303 300 304 303 301 304 306 305 304
316 315 316 315 315 316 316 316 317 318 321 320 319 318 316 316 315 314 314 314 314 315 315 315 314 307 301 315 314 313 309 310 310 308 307 309 308 306 303 303 302 298 300 294 302 305 306
313 315 315 315 315 315 315 315 316 317 319 320 319 318 316 315 314 313 314 314 314 315 315 314 306 305 303 318 313 316 312 310 310 308 307 311 308 303 302 296 293 293 288 292 298 304 303
311 312 312 314 314 314 314 315 316 316 317 318 319 318 316 315 313 313 312 313 313 312 312 312 310 300 307 306 313 312 311 311 309 308 307 305 300 297 296 293 287 290 291 290 291 300 300
313 311 312 311 314 314 315 315 316 315 316 318 318 318 316 315 314 313 310 307 305 305 305 303 301 301 305 311 313 310 310 308 308 306 297 304 296 292 295 296 296 296 295 294 295 299 299
312 312 310 311 313 314 314 315 315 315 314 317 318 318 316 315 314 313 308 303 308 306 300 309 309 309 312 312 304 308 309 301 303 298 302 300 294 300 302 301 298 298 296 294 295 298 299
310 311 311 311 312 314 313 313 314 314 314 314 317 317 316 314 313 308 305 306 312 311 301 307 311 310 311 311 303 304 306 304 301 299 299 294 298 304 302 299 297 296 294 293 293 295 293
309 309 310 311 310 312 313 312 312 314 313 313 315 316 314 312 306 307 306 313 313 310 295 300 305 310 308 305 302 309 307 306 301 298 299 297 302 302 299 299 298 291 298 298 297 293 287
308 308 309 310 309 308 310 310 311 312 314 313 314 315 312 311 306 306 312 312 310 311 280 301 306 313 306 303 303 303 308 304 299 299 299 295 298 298 297 298 301 295 300 297 297 293 290
308 308 308 309 309 308 308 310 310 310 312 313 313 314 312 310 308 307 311 311 315 297 283 300 304 300 299 301 302 302 302 304 305 300 299 298 302 301 300 302 302 302 299 297 296 292 285
306 307 307 307 308 308 308 307 310 309 311 312 312 313 311 312 304 312 313 310 293 288 300 297 297 299 298 297 299 299 297 295 292 290 291 296 298 301 305 299 301 299 293 284 282 282 282
304 305 307 306 307 307 308 308 308 308 310 311 311 311 312 311 309 311 312 303 288 294 296 302 299 298 295 297 297 297 295 292 295 295 291 289 289 299 301 298 296 295 292 285 280 280 284
303 304 306 306 306 306 306 307 306 308 309 310 310 311 310 311 309 311 305 293 289 296 298 297 297 294 294 297 297 295 293 292 295 295 289 290 292 301 303 303 300 296 291 296 289 286 281
304 304 306 305 305 305 306 305 307 308 308 310 306 307 307 311 311 308 300 293 296 303 303 301 293 295 291 293 293 293 292 296 295 298 298 296 289 297 302 302 301 297 297 289 288 281 280
303 304 305 305 304 304 304 305 306 306 308 310 304 300 309 313 311 301 292 294 299 304 305 301 297 294 294 293 293 292 293 297 298 298 300 298 293 292 299 296 294 293 291 292 291 287 281
302 303 304 304 304 304 304 304 304 306 307 306 302 294 309 313 296 295 294 297 300 302 306 303 303 299 295 295 293 293 293 296 301 302 297 299 294 288 294 299 301 296 294 293 283 284 285
302 303 303 303 303 302 303 304 304 305 307 301 297 300 309 308 290 289 295 298 300 300 302 302 300 302 300 295 292 296 298 303 305 300 297 299 292 285 288 293 298 295 295 296 295 289 285
301 302 303 303 302 302 302 303 303 305 307 302 298 292 301 303 298 292 291 294 295 302 300 302 302 303 299 296 298 296 298 302 304 302 301 301 294 289 284 288 293 291 294 295 292 283 284
301 302 302 301 302 302 302 303 303 304 306 302 299 294 297 292 294 294 294 295 294 294 302 304 300 300 299 293 294 294 299 299 302 300 300 297 291 292 292 294 295 294 294 294 291 290 285
301 302 301 301 301 301 302 303 304 305 306 299 295 295 299 296 298 294 294 292 292 295 297 297 299 301 299 295 295 294 298 297 296 298 296 298 289 289 288 293 292 290 292 292 293 292 292
302 301 300 300 301 301 301 302 303 303 305 297 300 301 300 296 296 293 293 293 294 296 300 301 302 300 297 299 301 300 302 302 301 297 295 295 292 286 284 288 288 282 289 291 292 293 293
301 301 300 300 300 300 301 302 302 303 303 302 301 300 298 292 296 295 296 297 296 297 295 303 303 301 303 307 304 302 300 303 303 301 301 293 291 284 281 281 275 290 295 294 291 291 292
300 300 300 300 300 300 301 301 302 302 303 301 304 300 300 288 297 299 298 297 298 299 301 300 305 306 309 304 295 291 289 290 294 298 298 300 289 284 280 280 286 290 292 290 290 289 293
299 299 300 300 300 300 300 301 301 302 303 302 301 305 301 296 294 301 299 299 295 296 298 302 308 308 309 298 289 285 284 289 289 291 297 295 292 286 281 277 275 287 293 296 295 284 295
299 299 300 300 300 300 301 301 301 302 302 302 300 304 300 298 302 303 298 297 300 298 297 301 303 302 303 287 286 283 284 293 285 285 283 283 284 281 276 276 282 292 296 297 283 284 296
299 299 299 300 300 300 300 301 301 302 303 302 301 305 300 297 302 306 304 298 300 302 296 300 299 299 295 289 287 285 282 288 287 291 288 286 282 278 282 277 279 297 295 289 292 295 297
299 300 301 301 300 301 301 301 301 302 303 304 298 305 306 298 302 306 307 309 307 307 304 301 301 301 301 296 290 289 285 283 286 284 295 286 289 285 287 286 295 297 296 298 299 298 298

GFSGBSN_sfc_thetae_045.txt.gz
Theta_e
316 316 317 317 318 319 318 320 320 322 321 320 319 319 319 319 319 318 317 316 316 316 316 315 316 316 308 301 300 313 326 327 317 306 301 300 300 299 296 296 295 293 295 303 308 308 307
316 317 316 316 317 316 316 318 319 319 321 320 319 318 318 318 318 317 316 315 315 315 315 315 316 314 304 294 307 318 314 310 308 304 302 302 303 303 299 298 296 299 303 305 306 306 306
314 315 316 316 315 316 316 317 318 317 318 320 319 318 318 318 317 316 316 315 314 314 315 315 315 310 303 297 312 308 311 308 308 305 302 305 305 302 302 299 302 302 301 303 304 304 301
313 315 315 315 315 315 315 315 315 317 317 319 320 319 317 316 316 315 314 314 314 314 315 315 313 305 300 311 311 314 309 309 310 308 304 306 306 303 301 302 300 295 298 296 302 303 304
313 313 314 314 314 314 314 315 315 316 317 317 318 318 317 315 314 314 313 313 314 315 315 314 304 303 301 314 311 315 311 308 309 307 305 309 305 300 301 296 292 292 291 291 298 303 301
312 313 313 313 313 314 314 314 314 315 315 316 317 318 317 316 314 312 312 313 313 312 311 312 309 296 302 303 310 311 310 310 307 306 305 304 299 295 294 292 286 288 288 288 294 298 300
312 313 312 313 313 313 314 314 314 314 315 316 317 318 317 316 314 313 309 306 302 303 305 301 298 296 301 309 310 307 309 306 307 304 296 302 295 291 294 295 295 294 292 292 295 298 299
312 312 312 313 313 313 313 314 313 313 315 315 315 317 317 316 314 313 307 300 303 304 297 306 307 306 309 311 305 306 307 300 301 296 300 297 292 298 300 299 297 295 294 292 296 297 298
311 311 311 312 313 312 312 313 312 313 313 314 313 316 317 315 313 309 305 304 310 308 295 303 308 307 309 311 305 303 304 302 299 297 297 293 295 301 300 297 295 294 292 294 293 295 295
308 309 310 311 311 311 311 312 313 312 312 313 312 313 315 312 306 306 305 311 310 308 292 297 305 308 310 307 299 307 305 304 299 296 297 295 299 300 297 296 296 290 297 296 295 292 287
306 307 309 310 310 309 309 310 312 312 311 312 312 312 313 312 305 304 310 310 309 307 277 296 304 312 306 300 301 302 305 303 298 297 297 294 297 296 295 296 299 294 297 296 294 291 289
306 306 307 309 309 309 309 309 309 310 310 311 312 312 313 310 307 307 310 312 311 291 279 296 304 301 297 299 300 300 301 303 302 299 297 295 300 298 297 300 299 300 296 295 293 290 283
306 305 306 307 308 308 308 308 308 309 310 310 311 312 312 312 303 310 312 312 294 284 296 296 296 297 295 295 296 297 296 294 293 289 289 294 296 299 302 296 300 296 291 283 281 281 281
306 305 305 305 307 308 308 308 307 307 309 309 309 310 312 313 308 308 313 303 286 292 293 301 298 296 293 295 295 296 293 290 293 293 289 288 286 296 300 297 294 293 291 284 279 279 282
306 305 305 305 306 308 307 307 308 307 308 308 309 307 308 312 311 306 305 292 288 293 299 294 296 292 291 295 295 294 292 291 293 294 289 288 289 298 300 301 299 294 289 293 287 284 281
306 306 305 304 305 305 306 306 307 307 307 308 300 301 304 313 312 304 297 293 295 300 303 300 291 293 290 292 292 292 291 294 294 296 296 294 288 296 299 300 299 296 296 287 286 280 279
306 306 305 304 303 305 306 306 306 307 307 307 300 295 304 312 311 297 289 292 297 302 303 299 296 294 293 292 292 290 292 295 296 295 296 296 291 290 297 294 293 293 290 290 290 286 280
306 305 304 304 303 304 305 305 305 306 306 304 294 289 307 310 297 295 289 295 299 300 303 302 301 299 296 294 292 291 292 295 297 299 294 297 291 286 291 296 298 295 293 291 283 283 283
306 305 304 303 303 304 305 305 305 305 306 301 292 294 308 307 291 291 294 294 298 298 298 299 299 300 299 294 290 293 293 300 302 298 296 297 289 283 287 291 295 293 294 295 291 287 284
305 304 303 303 303 305 304 304 304 304 305 302 295 289 298 301 299 293 292 292 294 301 298 299 299 302 298 295 296 293 295 300 302 300 301 299 292 288 284 288 292 289 293 293 291 282 284
305 304 303 303 303 304 303 303 304 303 304 301 295 291 296 291 293 294 294 293 292 293 298 299 295 298 297 292 293 293 297 298 300 298 298 297 289 290 290 291 292 292 292 292 289 289 285
305 303 302 302 303 303 303 303 303 303 303 297 291 294 295 293 296 294 294 291 292 295 296 295 295 299 297 295 295 293 296 295 295 296 295 296 288 289 287 291 291 289 292 291 291 291 290
304 303 302 302 303 303 303 302 303 303 302 296 296 300 296 295 293 292 291 292 292 296 297 298 298 298 296 299 300 300 300 299 299 296 293 292 289 285 283 286 286 282 288 290 291 292 292
303 302 302 301 303 302 302 302 302 302 301 299 298 300 296 288 293 291 293 294 293 295 293 298 298 295 301 305 302 301 300 300 300 298 298 291 288 284 280 281 275 289 293 292 290 289 290
302 302 302 302 302 302 301 301 302 302 302 297 300 299 297 286 293 295 294 294 295 297 295 296 299 301 305 302 294 291 288 290 291 296 297 296 287 282 280 280 285 289 290 290 288 286 291
301 301 302 302 301 301 301 301 301 302 303 299 299 303 300 293 293 298 295 296 293 292 293 296 301 306 304 297 288 286 285 289 288 290 295 292 290 286 279 278 276 288 292 294 293 283 293
301 301 301 301 300 300 300 301 301 302 302 299 299 304 301 293 298 300 296 295 298 294 292 295 300 300 303 289 284 284 284 292 285 285 283 283 283 282 276 277 283 290 294 295 283 284 294
300 300 300 300 299 299 300 301 301 302 302 299 299 304 300 294 297 301 302 298 298 297 292 297 299 298 291 288 287 286 283 288 286 289 287 287 283 278 278 275 279 294 293 287 290 293 295
299 299 299 299 299 299 300 301 301 302 302 301 296 304 306 297 298 302 301 302 302 303 299 299 299 299 299 293 290 288 285 282 286 282 292 286 289 286 287 285 293 295 293 295 296 296 296

GFSGBSN_sfc_thetae_048.txt.gz
Theta_e
316 315 317 316 316 317 317 318 318 319 319 321 320 320 320 320 320 318 317 316 316 315 316 316 316 316 308 298 297 309 326 326 316 307 300 300 298 298 294 295 293 291 294 300 305 306 305
314 315 316 316 316 315 314 316 316 317 318 319 320 319 319 319 319 318 317 315 314 315 315 315 316 315 303 292 302 314 314 308 306 302 301 301 301 301 298 297 294 300 303 303 306 306 305
314 314 314 314 315 315 315 315 316 315 317 317 318 319 319 319 318 317 316 315 314 314 315 315 315 310 303 295 312 306 309 307 307 305 300 302 303 300 300 297 300 300 300 303 304 303 303
313 313 314 314 314 314 314 314 315 315 315 316 317 318 318 317 317 316 315 314 313 314 315 315 313 305 298 308 309 312 309 309 308 306 303 303 305 301 299 300 299 296 297 294 302 302 301
313 314 314 313 313 313 313 314 314 315 315 315 316 316 316 316 316 315 314 313 313 315 314 314 305 302 297 311 305 310 312 307 307 306 304 307 303 298 298 294 291 291 287 290 297 302 300
313 313 313 312 312 313 313 313 312 313 314 314 315 316 316 316 315 314 312 313 313 312 312 312 309 297 298 301 307 309 310 308 305 304 302 302 298 294 293 290 286 288 289 290 294 296 300
310 312 313 313 312 313 312 313 312 311 313 314 314 315 316 316 316 313 310 306 300 302 305 301 299 294 298 307 311 305 307 306 305 302 295 299 294 290 293 294 293 292 291 290 291 297 298
310 310 310 312 312 313 312 312 312 312 312 313 314 314 315 317 316 313 306 300 302 304 298 304 305 303 306 309 305 306 306 300 300 295 298 296 291 296 297 297 295 293 291 290 295 296 295
308 309 309 309 312 312 312 312 311 311 312 312 313 313 314 316 313 310 304 303 310 309 296 299 305 304 306 309 303 303 302 300 297 295 296 292 294 300 298 295 293 292 290 291 291 294 294
307 307 307 309 310 311 311 311 311 311 311 310 311 312 311 314 308 305 303 311 311 309 290 295 302 305 308 308 300 308 303 302 298 295 296 294 297 298 295 294 294 289 295 294 293 291 285
307 307 307 307 309 309 310 309 310 310 311 311 310 311 311 312 305 304 309 310 311 306 277 294 303 311 308 300 299 300 304 302 296 296 295 293 294 295 294 295 297 293 296 294 293 289 287
307 307 307 306 307 307 309 309 309 309 310 311 310 311 311 312 309 306 311 311 309 290 278 292 302 299 297 297 298 298 299 303 301 297 295 293 298 296 296 298 298 298 294 292 291 288 283
307 307 307 307 306 306 308 309 308 308 308 309 309 310 310 313 306 308 311 308 294 283 294 293 297 297 294 293 295 295 294 294 292 288 288 292 294 297 300 294 296 293 290 282 280 281 281
307 307 307 307 306 306 307 308 308 308 308 308 308 308 309 311 311 307 309 301 286 291 291 299 297 295 291 293 293 294 292 289 291 292 288 287 285 294 298 295 293 291 290 283 279 278 282
307 307 307 306 306 306 306 307 308 307 307 308 308 303 302 306 313 308 302 290 290 291 297 294 295 291 290 293 293 292 290 290 292 294 288 286 287 296 298 298 296 292 288 292 285 284 280
307 307 306 306 306 305 305 306 307 307 307 307 302 300 298 309 313 305 295 291 293 298 301 300 289 292 288 290 291 290 290 293 292 295 295 292 286 294 297 299 297 294 295 286 285 280 279
306 306 306 306 306 305 304 305 306 307 307 307 301 293 297 310 311 300 290 291 296 301 301 297 295 293 292 290 291 289 290 293 295 293 294 293 289 288 294 293 292 291 289 289 288 284 280
305 305 306 306 306 305 304 305 306 306 306 303 297 286 301 310 294 296 291 293 297 299 301 298 299 298 296 293 290 290 291 294 296 296 292 295 290 284 289 294 296 293 291 290 283 282 283
306 305 305 306 305 304 304 305 305 306 305 299 292 291 306 304 287 289 294 294 296 297 297 297 297 299 299 293 288 292 292 296 298 296 294 295 287 282 285 289 293 291 293 292 289 285 283
305 305 305 306 305 304 304 304 305 305 305 300 293 284 296 298 295 291 291 292 290 298 297 298 297 299 297 294 294 290 292 297 300 297 300 298 290 286 283 286 290 288 291 292 290 282 283
304 305 304 305 305 304 303 304 305 304 305 300 293 287 293 287 289 291 292 292 290 290 297 298 295 296 295 291 291 290 295 297 297 299 297 295 288 289 288 290 291 291 291 290 288 288 285
304 304 304 305 305 304 303 303 304 304 304 296 289 289 293 292 291 290 292 290 290 292 295 293 293 295 297 293 295 291 296 294 294 295 294 294 288 286 286 289 289 288 290 290 289 288 288
304 304 304 305 304 304 303 303 304 303 303 294 296 294 293 293 291 288 288 290 291 294 295 298 296 295 294 296 299 300 300 298 296 294 292 292 288 284 283 286 286 282 288 289 289 290 291
304 304 304 305 304 303 303 303 303 303 303 298 297 294 291 286 291 289 290 293 292 294 292 297 298 295 298 304 302 300 298 298 297 296 296 289 287 283 280 281 276 288 291 291 290 290 290
304 304 304 304 303 303 303 303 302 302 302 297 300 296 294 285 291 292 292 291 293 295 294 295 298 301 301 301 294 291 288 288 290 294 294 293 287 282 280 280 284 287 289 289 288 287 290
303 304 304 303 302 302 302 302 301 302 302 297 296 298 297 292 290 295 293 293 290 291 290 294 299 301 302 295 289 286 284 288 287 289 293 291 289 285 279 277 276 286 291 293 292 283 292
302 303 303 303 302 302 302 302 301 302 303 297 296 301 297 292 298 296 293 292 295 292 289 292 295 298 299 284 282 285 286 291 284 286 284 284 282 280 275 276 283 291 292 293 283 285 292
303 302 302 302 302 302 302 301 301 302 303 298 295 299 297 294 296 300 298 295 296 295 288 292 292 295 290 287 287 287 281 287 286 289 288 287 283 279 278 276 281 292 291 287 290 291 293
301 301 300 301 301 301 301 301 301 301 302 300 293 298 299 297 297 300 300 300 298 299 296 295 294 295 296 292 287 285 283 280 286 284 290 286 290 286 287 287 293 293 291 293 293 293 293

GFSGBSN_sfc_thetae_051.txt.gz
Theta_e
315 314 315 314 315 315 314 314 315 316 316 317 318 320 321 321 321 319 318 316 316 316 316 316 316 316 310 300 299 315 328 326 317 311 304 303 302 302 299 300 299 296 298 301 304 308 309
314 313 314 313 314 314 315 316 315 315 315 315 317 318 320 320 320 319 318 316 315 315 315 316 316 315 305 294 308 317 317 311 309 306 304 304 305 305 303 301 299 301 307 307 308 308 308
314 314 314 315 313 312 313 314 315 314 315 315 316 317 318 319 319 319 318 316 315 315 315 315 315 310 304 298 312 310 310 310 308 308 304 305 307 305 304 301 303 303 304 307 307 307 306
314 314 314 314 314 313 313 312 314 313 314 315 315 315 315 316 317 317 317 315 314 315 315 315 314 308 300 308 311 312 313 312 311 309 306 307 308 305 303 305 302 301 301 299 305 306 304
312 312 314 313 313 312 312 312 313 313 313 314 314 314 314 314 315 315 315 314 314 315 315 314 308 307 298 310 305 309 313 310 309 308 308 308 307 303 303 299 297 296 294 295 300 306 303
309 311 312 313 313 312 312 312 312 312 312 312 313 313 313 314 314 315 313 313 313 312 312 312 309 301 302 301 308 312 313 311 308 306 305 306 303 300 299 297 290 293 293 295 296 302 303
308 308 311 312 312 313 312 312 312 311 312 312 312 313 314 314 314 315 311 308 301 302 306 303 302 300 298 307 313 309 310 309 309 306 300 303 300 296 298 298 297 296 295 294 296 301 300
309 310 310 310 311 311 313 311 312 311 312 312 312 312 313 314 316 313 310 303 302 305 299 306 305 304 306 310 305 308 309 304 304 298 302 300 297 300 300 299 298 297 295 294 297 299 299
309 309 309 309 309 310 311 312 311 311 311 311 311 311 312 312 314 311 308 305 311 311 299 301 304 304 305 308 303 305 305 304 300 298 299 297 298 301 300 299 296 296 295 295 295 298 298
309 309 309 309 309 309 310 311 311 311 310 310 310 309 310 312 308 307 305 311 312 311 292 294 299 304 308 308 302 309 305 305 301 298 299 298 300 299 299 297 298 293 298 297 296 295 291
308 308 308 308 308 307 307 309 310 310 310 310 310 309 310 312 306 304 308 312 313 308 280 296 302 311 308 302 302 303 305 305 299 298 299 297 297 298 297 298 299 297 299 297 297 294 294
307 308 308 308 308 307 307 307 309 309 309 309 309 309 309 309 310 309 312 313 311 293 281 291 302 300 301 300 299 301 302 306 304 300 299 297 302 300 300 300 300 300 298 296 295 294 288
307 307 307 307 307 307 307 307 308 308 308 309 309 310 309 312 305 310 312 309 293 285 295 292 297 298 297 295 296 298 297 297 296 292 293 296 297 301 302 298 300 298 294 289 287 287 286
307 307 307 307 307 307 307 306 306 307 308 308 308 308 308 308 312 310 311 298 286 291 291 298 297 296 293 295 295 296 294 294 295 295 291 290 288 297 301 300 297 296 295 290 282 284 287
308 307 307 307 307 307 307 306 306 307 307 307 307 305 304 306 311 310 302 289 288 292 296 295 295 292 292 294 295 295 294 294 296 297 292 290 290 298 300 301 301 296 293 296 289 287 287
307 307 307 307 307 307 307 306 306 307 307 307 301 300 299 306 310 305 295 290 294 298 300 300 291 294 290 291 292 293 292 295 295 298 300 296 290 297 299 302 300 297 299 291 290 284 282
306 307 307 307 306 306 306 306 306 306 307 306 299 293 300 306 308 298 288 290 295 300 302 297 296 295 293 291 293 291 292 295 297 295 298 296 295 292 298 297 296 295 294 292 293 290 285
304 305 305 306 306 306 306 306 305 306 306 303 296 286 299 305 291 293 289 294 297 297 302 300 300 298 297 295 292 292 292 296 297 298 295 299 295 289 293 297 299 298 296 295 291 287 288
303 304 304 305 306 306 306 306 305 306 306 299 290 291 301 301 285 287 292 293 296 296 297 298 298 300 301 296 291 293 294 299 298 297 297 298 292 287 289 293 297 296 295 294 293 291 287
303 303 303 304 306 306 306 305 305 305 305 300 292 285 293 295 294 290 289 290 291 297 296 299 298 300 299 296 297 294 294 298 299 299 299 300 293 291 287 290 294 292 294 294 295 289 290
303 303 303 303 305 305 306 305 305 305 305 299 292 287 293 285 287 289 291 291 289 290 296 299 296 296 296 292 294 292 297 299 300 300 300 300 292 292 292 292 294 294 294 293 293 294 291
303 302 303 303 304 305 306 305 304 304 305 296 289 288 292 292 290 288 290 289 289 291 293 293 294 296 297 294 296 294 297 298 297 298 298 297 293 292 290 292 293 292 293 294 293 293 292
302 302 303 303 304 305 305 304 304 304 304 294 297 295 292 292 289 287 287 290 291 294 295 297 296 296 295 297 300 301 301 301 301 298 295 294 292 289 287 289 290 287 291 293 294 295 296
303 303 303 303 304 305 305 304 303 304 303 298 297 295 290 286 288 287 288 291 292 294 292 296 298 295 299 306 305 303 301 299 299 299 300 293 292 289 286 285 282 294 295 295 295 295 295
302 302 303 303 304 305 304 303 303 303 303 299 298 295 292 285 290 290 290 289 294 296 294 295 299 301 302 301 295 292 292 292 293 296 296 297 291 286 286 286 289 291 293 294 293 294 296
301 302 303 303 303 304 303 303 303 303 303 299 299 298 296 289 288 294 291 291 290 291 292 295 301 304 302 295 290 286 286 290 290 291 294 291 292 292 284 284 283 293 295 296 296 289 296
302 303 303 303 303 303 302 303 303 303 303 299 298 302 297 291 295 295 293 291 295 293 291 294 296 297 301 288 287 286 287 294 289 287 288 288 287 287 283 287 289 294 295 297 289 293 297
303 302 301 302 303 302 302 302 302 303 303 299 296 301 298 292 294 297 297 295 295 294 289 293 294 295 293 287 288 288 287 291 291 291 290 290 287 286 285 286 286 296 293 292 299 297 298
302 302 303 302 302 302 302 302 302 302 302 300 292 299 300 293 295 301 301 301 300 300 296 296 294 295 296 293 291 290 288 287 291 288 293 289 293 291 292 293 299 297 300 299 298 299 298

GFSGBSN_sfc_thetae_054.txt.gz
Theta_e
315 315 314 314 315 315 314 316 315 314 315 315 316 316 318 320 322 321 319 318 317 317 316 316 317 317 314 305 304 316 328 327 321 315 310 307 305 306 303 304 305 303 305 309 308 309 310
316 315 315 314 314 314 313 315 315 314 314 315 315 315 317 319 320 320 319 318 317 316 316 316 316 316 310 300 310 321 321 318 315 313 308 308 309 310 307 305 305 306 309 311 311 311 313
312 314 315 314 314 314 314 313 313 313 313 314 314 314 315 317 317 318 318 317 317 316 316 316 316 314 307 305 314 320 316 314 315 312 307 310 311 309 309 305 308 307 306 311 311 312 310
311 312 312 314 314 313 313 313 313 313 314 313 314 314 313 313 314 315 316 316 316 316 316 315 315 313 304 312 315 314 317 315 316 315 311 312 313 310 308 310 307 304 307 300 310 311 309
309 310 311 312 312 314 313 312 312 312 313 313 313 313 312 312 313 314 315 316 315 316 315 315 312 311 303 312 308 312 318 313 315 315 313 311 312 309 308 303 300 303 297 298 303 309 308
310 309 310 311 311 312 313 312 312 312 312 312 312 312 312 312 313 313 314 314 315 313 315 315 313 306 308 303 310 314 315 314 312 312 309 309 309 305 305 301 293 296 297 299 299 305 308
311 311 311 311 310 311 311 313 312 311 311 311 311 311 312 312 313 314 315 318 311 308 311 306 306 306 302 310 317 314 317 313 312 310 304 309 303 299 300 302 302 301 299 298 302 305 303
309 310 310 311 310 310 310 311 313 311 311 311 311 311 311 312 313 314 315 311 310 310 302 309 309 309 311 310 307 311 315 308 307 303 306 304 299 304 304 304 302 301 299 298 301 303 302
308 309 310 310 310 310 310 310 310 311 311 311 310 310 310 310 313 314 314 312 316 314 305 305 309 306 307 310 305 307 311 309 305 302 303 300 302 305 303 302 301 301 299 298 298 302 303
308 308 308 310 310 310 310 310 309 309 311 310 310 310 310 310 308 313 311 316 318 317 298 297 300 305 307 309 304 311 313 309 305 301 302 302 306 303 302 301 302 297 303 301 300 299 294
308 308 308 308 309 309 309 309 308 309 309 310 309 309 309 310 311 311 314 320 318 314 283 299 303 312 309 304 304 306 313 308 302 302 303 300 302 301 300 301 303 299 303 301 301 299 298
308 308 308 308 308 308 308 308 308 307 308 309 309 309 309 308 310 315 318 320 315 296 284 294 304 303 301 304 303 306 306 310 309 303 304 302 306 305 303 304 305 305 302 301 301 299 292
308 308 308 308 308 308 308 308 307 307 307 309 309 309 308 309 304 316 319 314 295 287 296 293 299 302 299 299 300 302 301 301 299 295 296 300 301 305 305 301 304 303 299 292 290 291 289
308 308 308 308 308 308 308 308 307 307 307 308 308 307 308 308 311 317 312 302 286 290 293 299 300 301 296 298 299 301 299 298 302 300 296 294 292 300 305 302 300 301 300 293 285 287 292
308 308 308 308 308 308 307 307 307 307 307 307 307 305 304 307 311 313 303 290 288 292 297 296 298 297 296 295 298 299 299 297 301 302 295 294 294 302 304 305 304 300 296 301 294 294 292
308 308 308 307 307 307 307 307 307 307 307 307 303 300 300 308 311 303 295 291 293 298 300 301 292 298 295 293 294 296 297 301 300 303 304 299 293 301 303 306 304 302 304 294 296 286 285
307 308 308 307 307 307 307 307 307 307 306 307 302 292 303 307 307 294 287 292 295 301 303 300 298 296 296 295 295 295 296 299 303 302 304 302 299 297 302 300 299 299 298 298 298 295 289
302 306 307 306 306 307 307 307 306 306 306 305 296 286 305 307 289 290 289 295 297 298 304 302 302 301 299 297 295 295 296 299 303 304 299 303 299 294 296 302 304 304 301 300 294 291 295
303 303 303 305 305 305 306 307 306 306 306 302 291 292 303 304 284 284 292 293 297 297 300 300 300 302 303 299 294 297 298 304 303 303 301 303 297 292 293 297 301 299 301 301 300 298 293
303 303 303 303 304 304 305 306 306 306 306 303 291 285 292 296 296 289 289 291 291 298 298 302 301 303 300 298 299 296 297 300 303 304 302 304 299 295 291 294 298 296 298 300 299 294 294
303 303 303 303 303 304 304 305 306 306 305 300 292 290 292 284 289 291 292 292 290 292 299 301 299 300 299 295 295 295 298 300 301 301 302 304 296 298 298 298 298 297 297 298 296 298 294
303 303 302 302 303 303 304 305 305 305 305 297 288 292 296 292 293 291 292 290 291 293 295 296 296 299 300 297 297 295 298 299 299 302 301 303 296 299 295 298 297 295 297 298 298 298 299
304 303 303 302 303 303 304 304 304 305 304 296 298 299 297 292 291 289 290 290 292 295 297 298 299 298 297 299 302 302 303 303 302 301 301 300 298 296 291 296 296 290 296 298 299 301 301
303 303 303 303 302 303 303 303 303 304 303 302 299 298 293 289 290 289 290 292 292 294 294 297 299 298 301 306 306 305 303 302 303 303 305 300 299 298 292 290 286 297 302 302 300 302 303
302 302 303 303 302 303 303 303 304 304 304 302 302 299 295 289 292 291 291 291 293 295 296 296 300 302 306 301 295 291 293 293 297 301 303 304 300 294 292 291 295 295 297 299 298 299 304
301 302 303 302 302 302 302 303 304 304 304 302 303 304 300 293 290 294 292 293 291 293 295 297 303 307 306 299 296 288 285 289 291 295 299 299 300 299 291 289 288 297 303 305 303 295 305
302 302 302 302 302 302 303 303 303 303 304 301 301 307 302 293 296 297 292 292 296 296 295 298 300 300 305 297 292 290 289 295 289 291 291 293 294 293 293 292 296 302 302 303 293 297 306
301 302 302 302 302 302 302 303 303 303 302 301 301 307 303 296 297 298 300 296 296 297 294 298 297 299 298 294 294 294 293 294 295 297 295 294 293 292 294 291 289 302 300 298 305 307 307
302 302 302 302 302 302 303 303 303 303 302 302 295 304 306 299 296 300 301 302 302 303 300 301 297 297 300 296 297 297 295 295 295 291 299 294 298 297 297 298 306 304 306 307 309 308 306

GFSGBSN_sfc_thetae_057.txt.gz
Theta_e
315 316 316 315 315 314 314 315 315 315 315 315 315 315 314 316 318 320 319 319 319 319 319 318 318 318 317 310 309 321 328 326 317 316 312 309 308 308 305 306 307 305 306 308 311 309 310
313 314 314 316 315 315 313 315 315 314 314 314 314 315 315 315 317 319 318 318 318 318 318 318 318 316 313 304 314 317 322 321 318 316 312 311 308 311 308 307 306 308 307 310 311 310 311
311 312 313 314 314 315 314 314 314 313 313 314 314 314 314 313 314 316 316 316 316 318 318 317 317 316 309 308 317 318 320 318 318 315 310 312 314 311 311 306 310 308 305 309 311 311 310
310 310 311 312 312 313 314 313 313 313 313 313 314 313 313 313 312 313 315 315 315 317 317 316 316 316 307 317 318 316 319 317 317 316 314 315 315 313 311 311 308 304 306 301 304 310 310
311 310 310 311 311 312 313 313 313 313 313 312 312 312 312 312 312 312 314 314 316 318 316 315 316 313 306 314 310 314 318 315 316 316 316 314 313 310 310 304 301 303 297 300 303 311 309
310 312 312 312 311 311 311 312 313 313 312 312 312 312 311 311 312 312 313 315 318 313 315 318 316 308 311 307 311 311 316 318 314 313 311 310 309 306 305 302 294 297 298 301 301 304 306
309 311 311 312 312 311 311 310 311 312 312 312 312 311 311 311 311 313 315 318 312 311 313 305 307 304 306 311 315 311 314 316 314 311 304 308 303 300 302 304 303 302 300 299 303 306 306
309 310 309 310 311 312 311 311 310 311 312 312 311 311 311 311 311 312 317 309 310 313 302 309 310 310 313 313 308 310 317 309 307 303 306 305 300 305 306 305 302 301 300 299 303 305 304
309 309 309 309 309 310 311 311 310 309 310 311 311 311 310 310 310 311 313 311 318 318 303 302 307 307 308 311 306 307 312 310 306 303 303 301 304 306 304 303 301 301 300 300 299 303 305
309 309 309 310 310 310 310 311 311 310 309 310 310 310 310 310 306 310 310 316 318 320 297 296 304 307 309 309 304 311 312 309 307 303 304 303 306 304 303 301 303 298 304 302 301 299 294
309 309 309 309 309 309 308 310 310 310 309 309 310 310 309 308 308 310 314 319 322 317 283 300 303 313 309 305 305 306 313 309 303 303 304 300 302 302 301 302 305 300 304 302 302 300 299
309 309 309 309 309 308 308 308 309 309 309 308 309 310 309 307 307 310 318 321 318 296 283 296 305 303 304 304 304 307 307 310 309 304 304 303 308 306 304 306 306 306 303 302 303 300 292
308 309 309 309 309 309 308 308 308 308 308 308 309 309 309 310 302 313 313 312 293 286 296 294 299 303 303 301 301 303 302 299 298 296 297 301 302 306 307 302 306 304 300 293 291 291 291
308 308 308 309 309 309 308 308 308 308 308 307 308 308 307 310 312 311 308 298 286 291 293 300 300 303 299 302 301 302 301 297 301 301 298 295 293 302 306 303 301 302 300 294 286 289 292
309 308 308 308 308 308 308 308 308 308 307 307 308 307 304 310 313 310 296 287 289 292 296 295 299 298 299 300 301 300 299 298 300 303 296 296 295 304 305 305 304 300 298 303 296 298 293
308 309 308 308 308 308 308 308 308 308 307 307 304 302 301 309 313 306 291 287 293 297 297 298 293 299 297 298 297 299 298 301 300 304 306 301 295 301 303 305 306 303 306 296 297 287 287
308 308 308 308 308 308 308 308 308 307 307 306 302 294 303 310 308 297 285 291 296 298 299 296 296 295 298 299 298 298 299 301 303 303 305 303 299 298 303 300 300 301 299 301 300 297 290
307 307 307 307 307 307 307 307 307 307 307 304 298 288 304 310 289 292 288 294 296 298 300 299 302 301 297 300 298 298 297 300 303 304 300 304 300 296 298 304 305 303 301 301 295 294 297
306 305 305 304 305 307 307 307 307 307 306 301 292 293 306 304 284 288 292 293 295 296 297 297 299 302 304 301 297 300 300 304 305 303 302 304 298 292 295 299 303 300 303 303 302 301 295
304 303 304 304 304 304 307 307 307 306 306 302 292 285 293 297 297 292 290 290 291 298 297 298 299 302 301 300 303 300 300 302 306 304 304 305 300 296 292 296 300 297 299 301 300 296 295
303 303 303 303 304 304 304 306 306 306 306 301 292 291 293 285 289 293 293 291 290 290 297 299 296 299 299 297 299 299 301 302 302 302 303 304 296 298 299 300 300 299 298 299 298 299 295
303 303 303 303 303 303 304 303 305 306 306 297 287 293 296 294 293 292 292 290 290 292 294 294 295 298 300 297 299 298 300 300 298 302 302 305 297 299 296 299 299 296 298 299 299 299 299
303 303 303 302 303 303 303 303 303 303 305 296 295 300 297 292 291 290 291 291 291 294 296 297 298 297 298 300 305 306 304 304 302 300 301 301 299 297 293 298 298 294 297 298 299 301 300
303 304 304 303 303 303 303 303 303 303 304 299 299 300 295 289 292 292 292 293 292 294 294 297 299 298 302 307 306 305 304 302 302 302 303 301 299 298 294 293 287 297 304 303 300 301 303
303 303 304 304 304 303 303 302 302 303 304 300 302 301 296 291 293 291 292 293 294 295 295 296 300 303 308 304 295 292 293 293 295 299 300 303 301 296 293 292 295 298 301 301 299 299 304
303 303 303 303 303 303 302 302 302 303 303 301 304 306 300 294 292 295 293 294 292 293 294 297 303 306 306 298 293 287 285 289 287 292 300 300 303 299 295 290 287 297 303 307 306 297 306
302 302 301 302 302 303 302 302 302 303 303 301 302 310 302 294 296 297 293 293 297 295 294 297 299 302 305 296 292 291 289 293 287 287 292 294 296 295 295 292 296 302 304 307 295 298 307
301 301 301 302 302 302 302 302 302 302 303 302 304 308 301 296 297 299 300 298 296 298 294 297 296 299 299 293 293 292 293 294 292 295 295 293 293 293 296 293 290 305 304 300 306 311 309
302 302 302 302 301 302 302 302 302 303 303 303 301 306 307 300 298 305 304 305 303 302 300 301 299 299 300 297 298 298 297 298 295 291 299 294 299 297 298 299 307 307 307 310 311 310 311

GFSGBSN_sfc_thetae_063.txt.gz
Theta_e
312 313 313 313 314 314 314 316 316 315 313 312 312 311 312 314 314 315 314 314 315 316 317 318 320 320 314 307 308 319 326 323 314 311 307 305 302 301 297 300 300 299 300 303 304 306 306
311 312 313 313 313 313 313 314 315 315 314 314 313 311 311 312 314 314 314 313 312 314 315 317 319 319 311 300 315 319 319 316 312 307 307 307 304 304 300 300 300 302 302 301 304 305 306
313 312 313 313 313 313 312 314 314 314 314 314 313 312 312 311 311 312 313 312 312 313 315 316 318 317 308 304 313 312 314 314 316 311 307 309 308 302 301 301 306 304 299 300 302 304 302
311 311 312 313 313 312 312 313 313 313 313 314 314 313 312 311 311 311 311 311 311 312 314 316 318 312 303 314 314 313 313 312 315 315 312 312 309 303 303 304 303 299 298 291 299 303 305
310 311 311 312 311 312 312 312 312 313 313 313 313 313 312 311 311 310 310 311 311 312 314 316 312 307 302 316 310 312 312 310 312 313 310 312 306 302 302 296 293 295 290 292 297 304 304
309 309 311 311 311 311 312 312 312 312 312 312 313 313 313 311 311 310 310 310 310 312 314 317 314 303 309 305 309 311 312 311 309 308 306 303 300 296 296 292 287 291 292 292 294 300 302
309 309 309 310 311 311 310 311 311 311 312 311 312 312 312 312 311 310 307 304 303 305 309 305 305 301 304 309 312 307 311 307 307 305 298 300 294 292 294 296 298 297 296 293 295 302 301
309 309 309 309 310 310 309 310 310 310 311 311 311 312 312 312 311 310 305 299 305 305 298 309 310 309 311 311 304 307 308 301 301 296 300 297 293 299 301 300 299 299 295 292 297 302 300
309 309 309 309 310 310 310 310 310 309 309 311 310 311 311 311 310 305 300 301 308 304 297 300 304 302 302 306 303 303 306 302 299 298 298 294 297 302 301 299 297 297 295 294 295 299 301
309 309 309 309 310 310 310 310 310 310 310 309 310 310 310 309 302 301 299 310 309 306 291 292 296 300 302 301 298 307 308 301 300 298 299 297 302 300 300 298 299 293 300 300 298 295 288
308 308 309 309 309 309 310 310 310 310 309 309 309 310 309 309 301 299 306 309 310 308 273 293 295 306 303 297 301 302 308 303 297 299 298 296 298 298 297 299 301 296 303 301 299 294 290
308 308 309 309 309 309 310 309 309 309 309 309 309 309 309 305 302 303 307 307 307 291 279 291 301 299 298 296 297 302 302 304 304 299 300 298 303 301 299 303 302 303 300 299 297 293 285
307 308 308 309 309 309 309 310 309 309 309 309 309 309 307 304 297 305 308 304 288 281 291 288 297 299 298 295 295 297 297 295 292 291 292 297 298 301 303 298 301 299 295 286 284 284 282
307 307 308 308 309 309 309 309 309 309 309 308 308 308 306 304 303 305 305 295 281 287 287 295 296 297 295 297 297 297 295 293 297 296 292 290 288 297 302 299 296 297 295 287 282 281 285
307 307 307 308 308 309 309 309 309 309 308 308 307 305 300 302 303 304 296 284 283 287 291 290 291 289 293 297 298 296 294 294 296 297 291 290 291 300 300 302 300 297 292 298 291 292 285
307 307 307 307 308 308 308 309 309 309 308 308 302 300 298 303 303 300 290 285 288 293 293 293 287 292 288 294 295 294 294 298 297 299 301 296 290 299 300 301 301 298 299 291 292 284 282
306 306 307 307 307 307 308 308 308 308 308 308 300 293 300 304 304 293 284 284 288 294 295 291 288 288 290 290 292 292 295 299 300 299 301 298 293 294 299 296 295 295 294 293 295 293 283
304 305 305 306 306 307 307 308 308 308 308 305 297 287 301 303 289 290 285 287 292 291 294 292 292 291 289 291 290 291 293 297 302 301 296 298 295 289 293 300 302 299 296 295 287 289 292
304 305 305 306 306 306 307 307 308 308 308 302 292 292 302 300 282 284 288 289 290 290 290 290 290 292 293 290 288 293 298 301 303 301 298 298 293 286 289 295 298 295 296 297 297 295 289
304 304 305 305 306 306 306 307 307 307 308 302 291 284 292 295 292 285 285 285 286 293 291 293 291 292 289 289 293 292 296 301 302 303 303 301 293 290 286 290 296 293 295 297 296 289 290
303 304 304 304 306 305 305 306 307 307 307 302 290 287 290 285 286 287 287 288 285 286 291 292 289 290 289 286 289 291 297 298 301 304 301 300 291 293 294 296 298 297 296 296 295 296 293
303 304 304 304 304 304 304 304 305 306 307 299 285 289 291 288 291 288 288 286 286 289 289 289 287 290 290 288 290 290 297 297 297 300 298 301 291 293 291 296 297 295 297 296 296 296 298
303 303 303 303 303 304 304 304 304 305 304 298 296 294 292 289 289 286 286 286 288 290 291 292 291 289 288 291 296 301 303 302 301 298 295 296 293 291 287 294 294 287 293 295 297 299 296
302 302 303 303 303 303 303 303 303 304 303 301 297 295 289 285 286 287 288 289 288 290 288 292 293 290 293 304 305 303 300 300 300 300 301 295 294 291 285 289 282 293 299 299 298 299 299
302 302 302 302 303 303 302 302 303 303 304 299 297 296 291 286 288 288 289 289 290 292 290 292 294 296 296 293 292 290 290 290 293 298 297 297 296 287 285 286 290 294 297 297 296 295 299
302 302 303 303 303 303 303 303 303 303 304 300 298 299 296 288 288 291 290 291 287 287 288 291 297 298 296 291 288 284 282 288 287 291 297 297 296 288 285 282 281 291 299 304 302 290 300
302 302 302 303 303 303 303 303 303 303 303 301 296 300 297 289 293 294 289 289 294 291 289 291 292 292 298 286 282 281 284 291 285 284 285 286 288 286 286 285 288 298 302 304 290 290 302
303 303 302 302 302 303 303 303 303 303 303 301 296 299 297 291 293 296 298 294 294 293 288 291 291 292 289 283 285 283 281 287 287 290 290 288 285 284 287 283 282 302 301 294 298 302 303
302 302 302 302 302 302 303 303 303 303 303 302 294 299 301 296 297 301 300 301 301 301 296 294 291 291 293 288 287 287 282 284 285 282 294 286 290 288 290 289 300 304 302 305 306 305 305

GFSGBSN_sfc_thetae_066.txt.gz
Theta_e
313 312 312 312 312 313 313 314 315 315 315 315 314 313 313 312 312 312 313 313 313 313 313 314 316 319 314 306 306 315 325 323 314 308 305 303 300 299 295 296 297 296 298 300 301 303 304
313 313 313 313 313 312 312 313 314 314 313 314 314 314 314 313 313 312 311 312 312 312 313 313 316 318 309 298 310 314 318 313 308 305 305 304 302 302 298 297 296 300 300 300 300 303 304
311 311 312 312 313 313 313 313 313 313 313 313 314 314 314 313 313 312 312 311 311 312 312 312 315 315 306 302 311 309 311 310 313 308 304 307 306 301 300 297 302 301 297 298 298 300 300
310 310 311 312 312 311 311 313 313 313 313 313 313 313 313 313 312 312 311 311 311 312 312 313 314 313 300 313 311 312 312 310 311 313 310 310 308 303 299 301 300 297 295 290 296 300 302
310 310 310 311 311 311 312 312 313 313 313 313 313 313 312 312 311 311 311 311 311 311 312 314 311 306 299 315 310 312 310 307 310 311 310 313 307 300 299 294 291 292 287 290 294 300 301
309 309 311 311 311 311 311 311 311 312 312 312 312 313 312 312 311 310 310 310 310 310 310 314 314 300 304 301 308 309 308 308 306 306 305 302 298 294 293 290 285 287 289 288 290 296 299
308 308 308 310 311 310 310 311 311 310 311 312 312 312 312 312 312 310 307 302 299 301 305 303 304 300 300 307 312 306 309 307 305 302 296 298 292 290 291 294 295 294 292 291 294 299 299
307 307 307 309 309 310 311 311 311 310 310 310 311 311 311 311 311 310 305 297 299 298 291 302 306 307 309 310 304 306 307 300 299 294 298 295 291 296 297 297 296 295 293 292 295 300 299
307 307 307 308 309 310 310 311 310 310 310 310 310 311 310 310 310 305 300 300 305 303 293 298 303 303 306 308 303 303 304 300 297 294 295 293 296 300 298 296 294 294 293 293 293 295 296
306 307 308 308 309 309 310 310 310 310 310 310 310 310 309 309 302 301 298 306 307 304 287 290 296 298 301 302 296 305 305 301 297 294 296 295 300 298 296 295 296 291 298 297 296 293 287
306 307 308 307 308 309 309 309 310 310 310 310 310 309 309 309 299 298 303 306 307 302 271 289 295 305 302 295 297 299 305 301 294 297 297 295 296 296 295 296 299 295 300 298 298 293 289
306 307 307 308 308 308 309 309 309 309 310 310 309 309 309 304 300 301 305 307 304 288 275 289 296 294 294 295 296 300 299 302 301 296 298 297 302 299 298 301 300 301 297 297 295 291 284
305 306 307 307 308 308 308 309 309 309 309 309 309 309 307 304 294 301 304 302 288 280 289 286 294 297 293 291 292 295 294 292 291 288 289 295 296 299 300 296 298 297 292 284 283 283 282
305 306 306 307 308 308 308 308 308 309 309 309 308 308 307 304 300 300 302 293 280 285 285 292 292 292 293 293 291 293 292 289 294 293 290 288 286 296 299 297 294 294 293 285 281 280 284
305 305 306 306 307 308 308 308 309 309 308 308 308 304 302 302 301 301 293 283 283 286 290 287 289 286 287 295 295 292 291 290 293 295 289 289 289 298 299 300 298 295 290 297 289 289 284
304 305 305 306 307 307 308 308 308 309 309 308 302 300 298 303 301 298 288 284 287 292 292 291 285 288 285 288 290 290 291 296 294 297 298 294 288 297 299 299 299 297 298 289 290 283 281
303 304 305 305 306 306 307 308 308 308 309 308 300 293 300 302 301 292 282 284 288 293 293 290 288 286 287 288 290 290 291 295 298 297 298 296 292 292 297 294 292 293 291 292 293 291 283
303 303 304 304 305 306 306 307 308 308 308 305 298 287 299 303 286 287 283 287 292 290 293 291 292 289 287 289 288 289 291 294 301 301 294 296 293 288 291 298 299 297 295 293 286 287 288
302 303 303 304 304 305 305 306 307 307 308 302 292 291 300 298 280 282 286 287 289 288 289 289 288 290 291 288 284 290 292 299 303 301 297 297 290 285 287 292 296 293 295 296 294 291 286
302 303 303 304 305 305 305 306 306 307 307 303 288 284 292 293 289 284 284 285 285 292 289 290 289 291 288 286 289 286 289 297 302 300 302 301 295 289 285 289 293 291 293 296 294 285 287
302 302 303 303 304 304 305 305 306 306 307 302 289 286 290 283 285 286 286 286 285 284 290 291 287 287 287 284 285 285 291 297 301 302 301 299 290 293 293 294 295 294 294 294 292 292 289
301 302 302 303 303 304 305 305 305 306 306 299 284 288 291 286 290 286 286 284 284 286 287 287 286 288 288 285 286 285 289 293 296 300 298 299 291 292 290 294 295 293 295 295 294 293 293
302 302 302 303 303 304 305 305 305 305 305 297 296 294 292 289 286 286 284 284 286 287 289 290 289 288 287 289 291 292 297 299 299 297 296 295 292 290 286 291 292 287 292 294 294 295 296
302 303 303 303 304 304 304 304 304 304 304 300 298 295 289 284 285 285 288 288 287 288 286 290 291 288 292 296 297 299 297 298 298 298 301 293 291 290 284 285 281 292 298 297 295 296 298
302 302 303 303 303 303 303 303 303 304 303 298 299 296 290 285 287 287 288 288 289 290 288 290 292 294 295 291 287 286 285 287 290 296 298 298 292 285 283 283 289 292 295 295 294 292 298
301 302 302 302 302 302 302 302 303 303 304 299 298 300 295 288 286 290 287 289 286 286 287 289 295 296 293 287 283 279 277 284 285 290 297 295 294 287 284 282 280 289 296 301 301 288 298
301 302 302 302 302 302 302 302 302 302 303 300 298 299 293 286 291 292 287 287 291 288 285 288 290 290 293 283 279 278 279 288 282 283 284 285 285 284 285 284 286 295 300 302 289 289 300
302 302 302 302 302 302 302 302 302 303 303 301 297 299 293 286 290 295 294 290 291 290 285 288 288 289 287 282 281 280 278 285 285 289 287 285 284 283 285 283 280 300 300 294 296 300 303
302 302 302 302 302 302 302 302 303 303 303 302 295 299 299 293 292 299 299 298 298 297 293 291 290 290 290 285 284 283 280 280 284 281 291 285 290 287 289 288 298 301 302 304 304 302 303

GFSGBSN_sfc_thetae_069.txt.gz
Theta_e
313 314 314 313 313 313 312 312 314 314 314 313 314 314 314 313 314 314 313 312 312 313 312 312 313 315 313 303 304 312 325 323 313 305 301 301 299 298 294 294 295 294 296 298 299 300 300
310 311 312 312 312 314 313 313 313 314 314 314 313 314 314 314 314 314 313 312 312 312 312 312 312 314 308 296 308 311 315 312 305 304 302 302 299 300 297 295 293 297 298 299 299 299 305
310 310 310 312 312 311 311 311 312 313 313 313 313 313 314 313 313 314 313 312 312 312 312 312 312 310 305 300 309 308 309 307 308 305 302 305 304 299 299 296 300 299 295 296 297 297 299
310 310 310 311 312 312 312 312 311 311 312 313 313 313 313 312 312 312 312 311 311 312 312 312 312 311 299 311 309 309 308 308 310 308 308 308 306 302 299 300 298 294 293 288 295 297 299
310 309 310 310 311 311 311 311 311 311 311 312 313 312 312 312 311 311 311 311 311 312 312 312 309 307 298 313 307 311 309 305 307 309 309 312 305 300 298 292 289 290 284 288 292 296 297
309 308 309 309 310 311 311 311 311 311 310 311 312 312 312 311 311 310 310 310 310 309 308 311 312 298 301 299 305 308 309 307 303 305 304 302 298 293 291 289 283 285 287 286 288 293 297
308 308 308 307 307 309 310 311 311 311 311 311 310 311 311 311 311 310 307 302 296 298 301 298 301 300 301 306 311 306 307 304 303 300 294 297 291 288 292 292 293 292 290 288 292 296 296
307 307 306 306 307 308 309 310 311 311 311 311 311 311 311 311 311 310 305 297 297 298 292 300 298 303 307 309 302 304 306 299 298 293 296 293 290 294 295 295 294 292 290 289 293 296 296
306 306 306 306 306 308 309 310 310 310 310 310 310 310 310 310 309 304 300 300 305 304 293 296 298 297 298 305 300 301 304 299 296 292 294 291 294 298 295 293 292 292 290 290 290 294 296
305 306 305 305 306 307 308 309 309 310 310 310 310 310 309 309 300 300 298 305 305 306 285 287 294 296 300 303 297 305 305 300 295 293 294 293 298 297 294 293 293 289 295 295 293 290 286
304 306 306 305 306 307 308 309 309 309 310 310 310 309 309 309 297 296 301 304 306 301 271 288 294 302 300 295 294 298 305 299 293 294 294 291 295 294 293 294 296 293 297 295 294 290 287
304 304 304 305 306 307 308 308 309 309 309 310 309 309 309 304 300 301 303 303 304 287 274 285 294 294 293 294 294 299 298 301 300 295 294 294 299 297 297 299 297 299 296 294 292 289 283
304 304 303 304 306 306 307 308 308 309 309 309 309 309 308 303 293 300 300 299 287 279 287 284 291 292 292 291 292 295 293 291 290 287 287 292 294 297 298 294 297 295 290 283 281 281 282
302 303 303 303 305 306 307 308 308 308 308 309 308 308 307 303 300 299 297 291 280 284 283 289 290 290 290 290 290 291 290 287 292 292 288 285 283 293 298 296 293 292 291 283 280 279 282
302 303 303 304 305 305 306 307 307 308 308 308 308 304 301 301 300 299 290 281 283 286 289 288 289 284 286 292 293 289 288 288 290 292 288 286 285 296 298 298 297 292 288 294 287 286 283
302 303 303 304 304 305 305 306 307 307 308 308 302 300 299 301 301 294 285 283 288 292 292 291 283 287 283 286 289 290 290 294 292 293 296 292 286 295 297 297 297 295 297 287 287 281 280
301 302 303 303 304 304 305 306 306 307 308 308 301 293 300 302 301 289 279 283 288 293 292 288 287 286 286 285 287 287 290 294 297 297 296 294 290 289 295 292 291 291 291 291 291 287 282
302 302 302 303 303 304 305 305 306 306 307 305 298 287 300 302 286 284 280 284 291 289 292 290 290 289 287 287 285 287 288 292 299 299 293 294 290 286 290 295 297 295 293 292 285 284 286
302 302 302 303 303 303 304 304 305 306 306 302 292 291 300 298 281 280 283 285 287 288 288 288 287 289 289 286 282 287 290 296 300 298 296 298 289 284 286 290 294 291 293 294 292 289 286
301 302 302 302 303 303 304 304 305 305 306 302 287 284 290 293 288 284 282 282 283 289 288 289 288 289 287 285 287 285 287 293 298 301 302 300 293 288 283 287 291 289 292 294 293 285 285
301 301 301 302 302 303 303 304 305 305 306 301 288 286 289 283 285 285 285 285 282 283 288 290 286 286 285 282 283 283 286 289 297 302 301 299 289 292 292 294 293 293 292 293 291 291 287
301 301 301 301 302 302 303 304 304 305 305 298 284 287 291 287 289 286 286 283 283 284 286 285 284 287 287 283 285 283 286 287 291 297 297 298 290 290 288 293 292 290 293 293 292 292 292
301 301 301 301 301 302 303 303 304 304 304 295 296 294 292 288 286 285 284 285 285 288 289 289 288 287 286 287 290 291 291 291 291 295 293 294 291 288 283 290 290 286 290 292 293 294 293
301 301 301 301 302 302 303 303 303 304 304 300 298 295 289 284 285 285 287 287 286 288 285 289 290 287 291 294 293 295 292 295 296 296 298 291 289 288 284 286 280 291 296 296 293 295 296
301 302 302 302 302 303 303 303 303 303 305 300 298 296 291 285 287 287 288 287 288 288 288 287 290 293 294 290 285 283 283 286 288 293 295 295 289 284 281 282 288 289 294 293 292 292 297
301 302 302 302 302 302 303 303 303 303 305 301 298 300 295 288 286 290 287 289 285 284 286 288 294 296 292 288 283 279 275 281 283 290 298 294 292 286 284 280 278 286 294 297 298 288 297
301 302 302 302 302 302 303 303 303 303 303 300 296 299 293 287 292 292 287 287 290 287 284 287 289 289 291 282 279 277 279 285 281 282 284 285 285 285 284 283 284 293 296 300 287 288 299
301 301 302 301 301 301 301 302 302 302 303 300 296 299 293 287 290 294 294 290 290 289 283 287 288 287 284 280 280 279 276 282 283 286 284 283 283 280 285 282 277 298 298 293 296 299 300
302 302 302 302 302 302 301 301 302 302 302 301 294 300 299 292 291 294 297 299 297 295 292 291 289 289 289 283 281 281 277 278 282 279 290 283 286 283 285 286 295 297 298 300 302 302 302

GFSGBSN_sfc_thetae_072.txt.gz
Theta_e
311 311 312 312 312 313 313 313 313 313 313 314 314 313 312 313 313 314 314 313 313 313 312 312 312 313 309 300 300 309 323 323 312 304 301 299 297 296 293 293 293 292 294 295 298 298 297
310 310 310 310 311 311 311 311 311 312 313 313 313 313 313 312 312 313 313 313 313 312 312 312 312 312 306 293 305 308 309 310 304 300 300 300 298 299 296 294 293 295 295 296 297 297 299
309 309 310 311 310 310 310 311 311 311 311 312 313 313 313 311 312 312 312 312 312 312 312 312 312 308 301 297 306 307 308 305 305 302 300 302 301 298 297 294 298 296 293 294 293 294 295
309 310 310 310 311 311 311 311 310 310 311 311 311 312 312 312 312 311 312 311 311 312 312 312 311 307 297 310 308 308 306 306 308 306 305 306 304 300 297 299 296 292 291 286 292 295 297
308 308 308 309 310 310 310 311 311 310 310 311 311 311 311 311 311 311 310 310 310 311 312 312 305 303 295 311 305 308 308 303 304 306 306 309 303 298 296 292 288 288 283 286 290 294 296
307 308 307 307 308 308 308 310 310 311 311 311 311 311 310 310 310 310 309 309 310 308 308 308 310 294 297 294 304 306 308 307 302 303 303 302 298 292 290 288 282 285 285 285 286 290 292
307 307 307 307 306 306 307 308 310 311 311 311 311 311 311 310 309 310 306 301 295 294 297 296 297 295 299 307 311 305 306 303 301 299 293 296 291 289 289 291 291 289 288 287 288 293 291
306 305 305 306 306 306 306 308 310 310 311 311 311 311 310 310 311 309 303 295 296 298 290 298 298 298 302 306 299 299 306 298 296 291 294 291 289 295 295 293 292 290 288 287 291 294 292
306 306 306 306 305 306 306 307 309 310 310 310 310 310 310 310 309 302 299 299 305 303 292 294 298 296 297 300 296 297 301 299 295 292 292 291 293 297 293 291 290 290 289 288 289 291 292
305 305 305 306 305 304 305 307 308 308 309 309 310 310 309 308 299 298 297 303 303 305 285 286 292 295 297 300 294 303 302 298 296 292 293 292 297 294 292 291 291 287 292 292 290 288 284
305 305 304 305 304 305 306 306 307 308 309 309 309 310 309 309 296 294 300 304 303 301 270 287 293 300 300 293 292 297 303 297 291 293 293 290 293 293 291 292 293 290 294 292 291 288 286
304 304 304 304 304 305 304 306 307 308 309 309 309 309 309 303 301 301 302 301 302 285 273 285 294 293 293 294 292 298 297 298 298 294 292 292 297 295 295 297 295 297 293 292 290 288 281
304 304 304 303 303 303 303 305 306 307 308 308 308 309 307 302 292 299 298 297 284 277 288 284 288 293 292 290 291 292 291 289 287 286 286 290 293 296 298 293 295 293 289 282 280 280 281
304 303 303 303 303 303 303 304 306 306 308 308 308 307 307 302 298 298 295 289 279 284 284 290 288 289 288 290 290 291 289 285 290 290 285 285 284 293 297 295 292 291 289 282 279 278 282
303 302 303 302 303 302 303 305 305 306 307 307 307 304 302 302 300 299 287 279 280 284 289 287 288 284 286 290 292 289 287 286 288 292 287 286 285 294 296 297 297 291 286 292 285 284 282
302 302 303 303 303 303 304 304 304 305 306 307 301 300 299 301 301 296 283 280 285 291 290 289 282 286 283 285 287 288 289 293 290 292 294 291 285 294 296 296 295 293 294 286 285 280 279
301 302 302 302 302 303 303 304 304 305 306 306 300 293 300 302 302 290 279 279 285 290 291 287 286 284 285 284 286 286 288 293 297 297 293 291 289 289 294 290 289 290 289 289 289 285 281
301 301 301 301 301 302 303 303 304 304 305 303 297 287 300 302 286 286 282 282 289 288 291 289 289 287 286 286 284 286 287 291 297 297 291 293 288 284 288 294 295 292 291 291 285 283 285
301 300 300 301 302 302 302 303 303 304 305 299 292 289 300 299 282 282 284 283 286 286 287 287 286 288 288 285 281 285 289 295 294 296 296 296 288 281 284 289 293 289 291 292 291 288 286
299 300 300 300 301 302 302 302 303 304 305 300 285 283 289 293 289 285 283 281 281 287 287 288 287 288 286 284 286 284 285 290 293 294 301 300 293 289 282 286 291 288 290 292 291 285 284
300 300 300 300 301 301 302 302 303 303 304 299 285 284 289 282 285 286 285 283 280 282 287 288 284 285 284 281 283 282 286 288 291 297 298 297 288 291 292 294 293 292 291 291 288 290 286
300 300 300 300 300 301 301 302 302 303 303 296 284 286 291 284 289 286 285 283 281 282 285 283 283 286 285 282 283 282 284 284 285 291 294 296 287 289 287 292 292 289 292 291 290 290 290
301 301 301 301 301 301 301 301 302 302 302 294 292 293 292 288 287 285 284 284 284 286 287 288 288 287 284 286 288 289 289 289 288 286 285 290 289 286 282 290 289 283 288 289 291 292 292
302 302 302 301 301 301 301 301 301 302 302 298 295 294 288 284 286 285 287 287 286 286 285 289 289 287 291 293 292 291 289 289 289 289 291 289 289 286 282 284 277 287 295 293 291 293 294
302 302 302 302 301 301 301 301 301 302 302 299 298 294 290 284 287 286 287 286 288 289 287 288 290 293 294 290 284 282 281 284 286 289 290 295 288 283 277 280 284 286 290 293 289 289 293
301 301 302 302 301 301 301 301 302 302 303 300 298 300 294 287 286 289 287 288 285 284 285 288 293 295 293 287 283 280 275 280 281 286 292 291 290 284 284 277 275 283 293 297 296 284 296
301 301 301 301 301 301 302 302 302 302 303 300 298 300 293 288 292 291 287 288 290 287 284 287 288 288 291 284 281 280 279 283 278 282 284 286 285 283 283 281 283 290 297 299 284 284 296
302 302 301 301 301 301 302 302 302 303 303 300 297 301 293 287 291 294 294 290 290 289 284 287 288 287 285 281 281 281 277 281 281 284 284 282 281 283 284 282 279 294 297 291 294 296 297
302 302 301 301 301 301 301 302 302 302 303 302 293 299 299 292 291 296 297 298 297 295 291 291 288 287 287 282 280 281 277 277 282 278 287 280 284 282 284 284 292 294 293 299 300 298 298

GFSGBSN_sfc_thetae_075.txt.gz
Theta_e
310 310 310 311 311 311 312 312 312 312 313 313 313 312 312 312 311 312 313 313 313 313 313 313 313 313 309 298 296 309 320 323 317 308 304 303 302 301 298 298 297 296 299 299 300 300 300
309 309 310 310 311 310 310 310 311 311 312 312 312 313 312 312 311 311 312 312 312 312 312 312 312 312 306 289 304 310 309 312 308 305 303 303 302 303 300 299 297 299 298 299 301 301 301
310 310 311 311 311 310 310 310 310 310 311 311 311 312 312 311 312 311 312 312 311 311 311 312 312 308 299 293 306 308 308 307 308 305 302 304 304 302 302 298 301 300 297 298 299 300 299
309 309 309 310 310 310 309 309 310 310 310 310 310 311 311 311 311 312 311 311 310 310 311 311 312 306 295 308 310 309 309 306 308 308 306 308 307 303 302 302 299 297 296 292 296 300 301
309 308 309 309 309 309 309 309 310 310 310 311 311 311 311 310 310 310 310 310 309 311 311 312 306 302 293 309 304 309 309 302 305 306 307 309 307 302 300 297 294 293 289 290 293 298 301
309 308 308 308 307 307 307 308 309 310 311 311 311 311 311 310 310 309 309 308 309 309 308 308 308 296 296 294 303 308 309 308 303 303 304 303 301 298 296 295 287 289 290 291 292 297 298
307 307 307 306 306 307 306 306 308 309 310 310 310 310 311 310 310 310 305 301 296 295 298 297 297 293 296 306 311 307 308 305 304 301 296 300 295 293 295 296 294 293 291 291 294 296 295
307 307 307 305 306 306 306 306 307 308 309 309 310 310 310 311 310 309 303 296 297 297 290 298 297 297 300 304 297 302 307 300 298 293 297 295 292 298 297 296 295 294 292 292 294 296 296
306 306 306 306 305 305 306 305 306 308 309 309 310 309 310 310 309 301 299 298 304 302 292 294 297 296 296 299 294 295 303 300 296 293 294 293 295 298 296 294 293 293 292 292 291 294 296
305 306 305 305 305 305 305 304 306 307 307 308 309 310 309 309 299 299 297 303 303 304 285 286 292 296 297 299 293 299 301 299 297 293 294 294 298 296 294 293 295 290 295 294 293 291 287
304 306 305 305 303 305 304 304 305 305 306 308 308 309 309 309 297 295 299 304 303 302 272 288 293 301 299 292 293 296 302 298 291 294 295 292 294 294 292 293 295 293 296 294 294 291 290
303 304 305 304 305 305 304 304 304 304 305 306 307 308 308 304 303 303 303 302 301 285 274 285 294 293 292 294 294 299 297 300 298 295 295 294 299 297 296 297 296 298 295 294 294 292 286
302 303 304 304 304 304 303 303 303 304 305 306 307 308 306 304 296 301 300 297 283 278 288 285 286 293 291 291 291 294 292 290 289 285 287 292 294 298 299 294 297 296 293 286 285 285 284
302 302 304 304 304 303 302 303 303 304 305 306 306 306 305 304 301 301 296 288 276 283 284 290 290 289 287 291 291 292 290 287 292 291 287 285 284 294 299 297 293 293 292 287 281 283 286
301 301 302 303 303 302 302 303 302 304 304 305 306 302 302 303 301 302 290 277 280 284 289 287 288 286 286 289 290 290 289 288 290 292 287 286 286 295 297 299 299 293 290 296 288 289 287
300 301 301 303 303 303 303 302 302 303 304 305 300 298 298 304 303 297 284 279 284 291 290 289 283 287 283 286 286 289 290 294 293 294 297 292 286 294 295 298 298 296 298 289 290 282 281
300 300 301 301 302 302 302 301 302 302 303 304 297 291 301 304 302 290 280 281 283 288 289 287 285 284 285 285 286 287 288 293 295 296 295 294 292 291 295 293 291 293 292 293 293 290 285
299 300 300 300 300 301 301 301 301 302 303 300 294 285 300 302 287 287 282 284 288 286 290 290 289 288 286 286 285 285 287 290 293 296 293 296 290 286 288 295 297 296 294 294 288 286 288
299 299 299 299 299 300 301 300 301 302 302 297 290 289 300 299 282 283 286 284 286 285 288 287 286 288 289 286 283 286 288 294 293 291 289 296 291 285 286 291 295 292 293 294 293 291 288
299 299 299 298 299 300 300 300 301 301 302 298 287 282 289 293 291 287 284 283 282 287 286 289 288 289 287 285 288 285 286 291 293 292 297 299 293 289 284 287 293 290 293 295 292 287 288
300 300 300 300 300 300 300 300 301 301 302 297 286 284 289 282 285 287 287 285 282 282 287 289 286 286 285 282 283 284 286 288 290 293 296 296 287 289 290 291 292 291 291 292 291 292 287
300 300 300 300 300 301 301 301 301 301 302 293 284 286 290 287 288 286 286 284 282 283 285 283 284 286 286 283 284 283 286 286 285 290 290 291 288 291 288 292 291 289 292 292 293 293 292
301 301 301 301 301 301 301 301 301 301 301 292 293 292 291 288 287 285 284 285 284 286 287 288 287 286 284 287 290 291 291 291 290 287 286 287 290 288 283 290 290 284 289 292 292 294 294
302 302 302 302 302 302 301 301 301 301 301 295 293 292 287 282 285 286 287 287 286 287 285 288 289 288 291 295 294 293 290 289 289 289 290 286 286 288 283 285 278 289 296 296 293 295 296
302 302 303 303 302 302 302 301 301 301 302 296 297 293 288 283 287 287 287 287 288 289 287 288 291 293 296 291 286 283 284 286 287 288 289 290 287 285 283 282 286 289 291 291 292 291 298
302 302 303 302 302 302 302 301 301 301 302 298 297 298 293 287 285 290 288 288 285 285 286 288 294 296 294 288 284 279 278 282 282 286 291 290 291 287 283 280 278 287 294 299 297 287 298
302 303 303 303 302 301 301 301 301 301 301 298 296 299 294 286 291 292 288 287 290 288 286 288 289 289 292 286 281 280 280 285 280 283 283 284 286 283 283 281 286 293 296 301 286 289 299
302 302 302 302 302 301 301 301 301 301 301 299 295 300 294 287 291 295 295 292 291 289 285 288 287 287 287 283 283 282 281 284 283 286 286 285 283 283 284 281 280 295 297 291 296 301 299
302 302 302 302 302 301 301 300 301 302 302 301 294 300 300 292 291 297 298 298 297 295 291 291 290 288 289 285 285 285 282 283 284 280 289 285 289 287 288 288 295 298 297 299 302 300 301

GFSGBSN_sfc_thetae_078.txt.gz
Theta_e
310 310 310 311 311 311 311 311 311 312 312 311 312 311 312 312 312 312 312 312 312 312 311 312 312 313 311 301 298 309 323 323 321 314 310 308 306 305 302 304 305 302 303 306 306 306 305
309 309 310 311 311 311 310 311 310 311 312 311 312 312 311 311 311 311 313 313 312 312 311 311 311 312 306 295 305 311 313 315 315 313 310 310 308 309 304 304 303 304 304 305 305 305 306
310 309 309 310 310 310 310 309 310 310 311 311 311 312 311 311 310 310 311 311 311 311 312 311 311 310 303 299 305 311 310 308 313 311 310 312 311 305 305 302 306 304 300 303 303 305 303
310 310 309 309 310 310 309 308 308 309 311 311 311 312 311 311 311 311 311 310 310 310 311 311 310 308 298 307 310 307 307 305 306 311 310 311 311 308 305 306 303 300 301 297 302 303 303
310 310 309 308 309 308 308 308 308 308 309 310 310 312 312 311 311 311 310 310 310 310 312 311 308 305 297 308 304 306 307 302 303 306 312 311 310 305 305 300 298 300 295 297 299 304 304
307 308 309 309 308 307 307 307 308 308 309 309 310 311 311 311 311 310 309 309 308 310 311 310 308 299 301 297 302 308 313 307 303 302 303 306 305 301 301 298 291 295 296 298 297 301 302
308 308 308 308 307 306 306 307 307 308 308 309 309 310 311 311 311 310 308 305 300 300 301 298 300 298 301 306 310 308 311 308 305 299 296 303 298 295 298 300 300 300 298 297 300 301 299
307 307 307 307 307 306 306 307 307 307 307 308 309 309 310 310 310 309 306 300 298 298 292 300 300 299 302 305 298 304 310 303 301 295 299 299 295 299 301 302 300 299 296 296 300 301 299
305 306 306 306 305 306 305 306 306 306 307 307 308 309 309 310 309 306 304 299 305 302 293 294 300 298 299 301 296 298 305 301 300 297 296 296 298 300 299 298 297 298 296 296 296 299 301
305 306 305 305 306 306 304 304 305 305 306 307 308 308 309 309 304 305 303 306 306 305 288 289 294 298 300 299 294 300 302 301 299 296 297 296 300 298 298 296 298 294 300 298 297 296 292
304 304 305 305 306 305 305 306 304 305 305 305 307 307 308 308 305 302 302 308 306 303 278 290 294 303 300 295 295 297 302 297 292 294 296 294 296 295 294 296 299 296 300 298 298 296 296
303 303 304 304 305 305 305 305 304 304 304 304 305 306 307 307 307 306 308 307 304 288 277 287 295 295 293 295 293 299 296 299 299 292 297 296 301 299 298 299 300 301 298 297 297 295 289
302 303 303 303 304 304 305 304 304 303 303 304 305 306 306 308 299 308 307 300 287 281 290 287 289 292 292 292 293 294 293 290 289 284 286 293 295 299 300 295 299 298 296 290 288 288 287
302 302 302 303 303 304 304 304 303 303 303 303 305 305 307 307 308 306 303 291 280 284 287 293 291 292 289 292 293 293 292 290 292 292 290 286 285 294 299 297 294 295 296 291 284 287 291
300 301 301 302 302 302 303 303 304 303 303 304 304 304 305 308 310 305 294 282 283 285 290 290 291 287 288 291 292 292 292 290 292 293 287 287 287 297 298 299 299 295 292 298 292 294 290
300 300 301 301 302 302 302 303 303 303 302 303 300 299 300 309 310 298 288 283 286 292 292 291 286 288 285 288 289 291 292 295 294 297 296 293 287 294 297 300 301 300 301 292 293 285 284
299 299 299 300 301 301 301 302 302 302 302 302 298 294 303 310 306 292 283 285 288 292 291 289 288 287 287 287 289 290 291 292 293 296 298 294 293 292 295 294 294 296 295 296 297 294 288
299 299 300 300 300 300 300 301 302 301 302 300 295 286 304 306 289 288 285 289 291 290 292 290 291 290 288 289 287 287 289 291 295 296 293 297 294 290 292 297 300 298 296 297 291 290 293
299 299 299 299 299 300 300 300 301 302 302 299 290 292 303 301 283 284 288 289 290 289 290 289 289 291 292 289 285 288 290 294 294 293 292 296 292 286 288 294 297 296 297 297 297 296 291
300 299 300 299 299 299 299 300 301 301 302 300 289 284 292 294 292 289 285 286 286 291 290 290 290 291 290 288 291 288 289 292 294 293 297 297 295 290 285 289 294 292 294 296 296 291 292
300 300 300 300 300 299 299 300 300 301 302 299 288 286 292 283 286 288 288 288 286 286 290 291 288 289 288 285 287 287 289 290 292 295 296 296 289 291 293 294 293 293 293 294 292 294 291
301 301 301 300 300 300 300 301 301 301 301 296 285 288 290 288 290 287 287 287 287 288 288 286 287 289 289 287 288 286 288 289 288 292 292 295 289 291 288 292 292 290 293 294 294 295 295
301 302 302 301 301 301 301 301 301 301 301 294 295 294 291 287 288 286 286 289 289 290 291 291 290 288 288 290 293 294 294 294 293 290 289 289 291 289 285 291 290 287 292 293 295 298 298
302 302 302 302 302 302 302 301 301 301 301 297 297 294 286 283 286 287 288 290 289 290 288 290 291 289 293 297 297 296 295 294 294 293 294 289 290 290 286 288 280 291 297 298 297 297 300
302 302 302 302 303 303 302 302 301 301 301 299 299 295 289 283 287 286 287 289 291 292 289 289 292 294 297 293 288 286 287 288 290 293 293 293 290 287 284 284 288 290 293 294 293 293 300
302 302 303 303 302 302 302 302 302 301 301 300 299 300 294 286 286 289 288 290 288 288 288 290 294 298 296 290 285 282 281 284 284 288 293 292 293 288 286 281 279 290 297 301 299 289 300
302 302 303 303 303 302 302 302 302 302 301 299 298 302 294 287 291 293 288 289 293 291 288 290 291 291 294 288 284 283 282 287 283 284 283 284 286 283 285 284 288 295 298 302 288 290 300
302 302 302 302 302 302 303 302 302 302 302 298 296 302 294 288 292 295 295 292 293 293 287 291 289 289 287 284 285 285 285 287 286 288 287 286 285 284 285 282 281 299 298 292 297 301 302
302 302 302 302 302 302 302 302 301 302 302 301 292 300 301 291 292 300 300 301 299 297 294 293 291 291 292 288 289 289 286 290 287 283 292 286 290 288 290 289 298 301 299 302 303 302 303

GFSGBSN_sfc_thetae_081.txt.gz
Theta_e
310 310 310 310 311 310 312 311 311 311 311 311 311 311 311 311 311 311 312 313 313 312 311 312 312 312 311 304 304 312 321 322 320 318 313 311 309 308 304 306 307 305 306 307 308 308 307
309 310 309 310 310 310 310 310 310 310 311 312 312 311 311 311 311 311 311 311 311 311 311 310 311 311 307 299 312 309 311 312 316 317 313 312 310 310 307 306 305 307 307 307 308 308 307
311 311 311 311 309 309 308 309 309 309 309 311 311 312 312 311 311 311 311 312 311 311 311 310 311 310 303 303 314 313 310 308 311 316 312 313 314 309 309 305 308 307 302 305 306 307 306
310 310 311 311 310 310 309 308 308 308 308 309 310 311 312 312 312 312 312 311 311 311 311 311 313 309 299 312 315 312 310 307 308 308 309 315 316 311 308 309 306 302 303 298 305 307 307
310 308 309 310 310 309 308 308 308 307 308 308 309 311 311 311 311 311 311 311 310 311 312 312 309 306 299 311 306 309 310 305 305 305 307 311 311 307 307 302 299 301 296 299 302 306 305
309 309 308 308 309 309 308 307 308 308 307 308 309 310 311 311 311 310 310 310 310 310 311 312 310 302 304 300 304 306 312 309 302 302 301 304 304 302 302 300 291 293 296 300 300 306 304
307 308 308 308 309 309 307 307 308 308 307 307 308 309 309 311 310 310 309 308 304 304 306 300 301 302 302 308 310 307 313 307 304 301 293 300 295 294 298 300 300 300 300 300 304 305 303
305 306 307 307 307 307 307 306 307 307 306 306 308 308 309 310 310 310 309 302 301 301 294 302 301 301 303 305 299 304 312 303 301 295 297 295 293 299 301 301 300 300 298 299 303 305 302
305 306 306 306 306 306 306 306 306 307 305 306 307 308 308 309 310 309 306 303 308 308 296 298 301 300 302 303 297 300 307 303 298 298 297 293 297 302 299 299 298 299 298 299 299 303 303
305 305 305 305 306 306 306 306 304 305 305 305 306 307 308 308 305 308 302 308 310 309 290 295 296 300 302 301 295 303 305 303 297 294 298 297 301 300 299 297 299 295 302 301 300 298 294
304 304 304 304 305 305 305 305 304 304 304 304 305 306 307 307 305 301 305 310 311 304 282 292 296 306 302 297 298 298 303 304 295 295 297 295 297 297 296 298 300 297 302 301 300 298 297
303 303 303 304 304 305 304 305 306 304 304 304 304 305 306 306 307 308 310 311 306 289 281 289 297 295 296 298 298 300 297 302 301 295 296 295 302 300 299 300 300 302 299 299 299 298 290
302 302 303 303 303 304 304 304 304 305 304 303 304 304 305 306 300 311 311 304 289 283 292 289 291 294 294 294 296 295 295 293 287 285 286 292 293 300 302 296 300 299 296 290 289 289 288
301 301 302 302 302 303 303 304 304 304 304 303 304 304 305 306 310 310 304 294 282 287 288 294 293 294 291 295 295 295 294 290 291 292 289 286 284 294 301 297 295 296 296 290 284 288 291
301 300 301 301 302 302 302 303 303 303 304 303 303 302 303 307 311 310 296 286 285 288 291 290 293 289 290 294 294 294 294 292 295 293 288 288 288 296 298 299 298 295 292 298 292 295 291
300 300 300 301 301 302 302 302 301 302 303 302 299 299 300 309 312 304 289 286 289 292 293 293 287 290 287 290 292 293 293 296 293 297 297 292 287 294 296 301 300 297 300 290 292 285 285
299 300 299 300 300 300 301 301 302 302 302 302 298 292 302 309 309 294 282 287 290 294 295 291 289 289 290 289 291 292 292 295 295 295 300 293 290 292 294 294 294 295 293 295 297 294 288
300 299 300 300 300 300 300 301 301 301 302 299 296 287 305 309 290 290 287 290 293 292 294 293 294 292 291 291 289 289 290 292 297 296 293 297 293 288 292 298 300 299 296 296 290 290 294
300 299 299 300 300 300 300 300 301 301 301 298 291 291 305 303 285 287 290 290 292 291 291 291 290 293 294 291 287 290 291 296 296 294 292 294 292 285 288 294 298 295 297 298 298 297 291
300 300 300 299 299 300 300 300 300 301 301 300 293 286 293 296 293 289 287 288 287 294 293 293 292 294 292 290 292 289 290 294 295 295 297 298 293 291 287 290 295 293 296 297 296 292 292
300 301 301 300 300 300 299 300 300 300 301 299 292 287 292 286 289 290 290 289 287 287 292 293 290 291 290 287 289 289 291 293 293 295 295 295 289 293 294 296 295 295 295 296 295 296 292
301 301 301 301 301 301 300 300 301 301 301 296 286 288 293 290 291 289 289 287 288 289 290 289 289 291 292 289 289 288 291 291 290 292 292 295 288 291 289 293 294 292 294 295 295 296 296
301 301 301 301 302 301 301 301 301 301 300 293 296 297 293 289 289 288 288 288 288 291 292 293 292 291 290 292 294 295 296 295 294 292 291 291 290 288 285 291 292 288 293 294 295 297 296
301 302 302 302 302 302 302 301 301 301 301 297 296 294 288 284 287 287 289 291 290 291 291 293 294 291 294 300 298 297 295 294 294 294 295 290 289 290 287 289 281 292 298 298 297 298 300
302 302 302 303 303 303 302 302 301 301 301 299 299 295 290 285 288 288 289 289 290 292 292 293 294 295 298 296 290 286 288 288 290 294 294 295 291 287 284 284 288 291 295 294 294 295 302
302 302 302 302 302 302 302 302 302 301 301 301 299 301 294 287 287 290 288 290 287 289 291 293 297 300 297 292 288 282 282 286 286 288 295 294 294 289 287 282 279 290 298 301 300 290 302
301 302 302 302 303 303 303 303 302 302 301 300 297 302 296 287 292 292 288 289 293 292 290 293 293 292 294 288 284 283 284 290 284 285 286 287 288 285 285 284 288 297 299 301 288 291 300
302 302 302 303 303 303 303 303 303 302 302 298 296 302 297 291 292 295 295 293 292 293 288 293 290 290 287 287 286 287 287 288 287 290 289 287 285 285 286 283 281 298 298 293 299 301 303
302 302 302 302 303 303 303 303 303 303 302 301 292 302 302 294 293 299 299 300 299 298 294 294 292 292 293 289 290 291 288 291 289 284 295 286 291 289 289 290 299 303 299 303 304 302 303

GFSGBSN_sfc_thetae_084.txt.gz
Theta_e
311 310 310 311 311 311 311 310 311 311 311 311 312 311 311 311 312 311 312 312 312 311 311 311 311 311 307 301 303 313 324 323 318 315 312 308 307 307 303 304 305 303 305 307 308 308 307
311 311 311 311 310 310 309 309 309 309 310 310 311 312 312 311 312 312 313 312 312 312 311 311 311 310 304 293 310 315 313 309 309 313 312 311 308 310 306 305 304 306 305 306 307 307 307
310 310 311 311 312 310 310 309 309 309 308 309 310 311 311 311 311 311 312 312 312 312 311 311 311 309 302 297 309 311 312 309 309 309 310 314 313 309 308 304 308 306 302 304 305 306 305
310 311 310 310 311 310 310 309 308 308 308 308 308 310 311 311 311 311 311 311 311 312 311 311 312 309 298 308 311 310 312 310 312 309 308 312 312 310 307 309 306 302 302 296 303 305 306
308 308 309 310 310 310 309 309 308 308 308 308 308 309 310 311 311 311 310 310 310 311 312 312 309 306 297 312 306 310 310 306 310 309 307 306 305 306 307 301 298 299 293 296 299 305 305
307 307 308 309 309 309 309 309 308 309 308 308 307 308 310 310 310 310 309 309 310 311 310 312 310 302 305 301 306 307 310 308 305 305 302 299 299 296 300 298 291 294 294 297 297 303 305
307 306 306 307 308 307 309 309 308 308 307 307 307 308 308 309 310 309 308 307 304 302 307 302 302 302 303 307 309 307 311 309 306 301 295 298 292 290 294 300 300 299 296 296 300 305 303
306 306 306 307 307 307 307 307 308 308 307 306 306 307 308 308 309 309 307 303 302 302 294 301 300 300 302 303 297 301 308 303 301 295 298 296 290 296 297 298 299 298 295 295 301 304 303
305 305 305 305 306 306 306 307 307 307 306 306 306 306 307 308 308 306 306 304 309 307 295 297 301 301 302 304 298 297 301 303 301 298 298 293 296 297 295 296 294 296 295 296 296 301 303
304 304 304 305 305 306 306 306 306 306 306 305 305 305 306 307 303 306 302 308 309 309 289 295 297 300 302 302 296 304 303 302 300 295 297 295 299 295 294 294 297 292 300 299 298 297 293
303 303 304 304 304 305 305 304 305 305 305 304 304 304 305 306 302 300 305 309 310 304 281 296 296 306 303 298 299 299 304 300 296 296 296 293 295 295 293 296 299 295 300 299 298 296 296
303 303 303 303 303 304 304 304 305 304 304 304 304 303 305 302 304 305 308 310 306 286 280 290 298 297 297 299 299 300 298 302 303 297 297 295 299 296 298 300 301 301 299 297 298 296 289
302 302 302 302 303 303 303 303 304 304 304 304 304 303 302 303 298 307 310 303 287 282 293 290 292 294 294 293 295 296 294 292 290 287 287 292 293 296 297 296 299 297 294 285 284 286 286
301 301 301 301 301 302 303 302 302 303 303 304 304 303 303 302 305 308 305 292 281 288 290 295 293 293 291 294 296 296 294 291 293 291 287 285 285 293 297 294 294 295 294 287 282 285 288
300 300 301 301 301 301 301 302 302 302 303 303 303 300 300 303 309 310 296 283 285 289 292 291 292 289 290 294 294 295 293 293 293 292 286 286 288 297 297 298 298 294 291 296 290 291 288
301 300 300 300 300 301 301 301 302 302 300 302 298 297 297 307 311 304 290 284 289 293 293 293 286 290 287 290 291 293 293 296 295 296 296 291 285 294 297 298 298 296 299 288 290 283 283
300 300 300 300 300 300 300 300 301 302 301 302 297 291 299 307 308 294 285 286 290 294 294 291 289 289 290 289 291 291 292 294 295 295 298 293 290 288 293 292 292 293 291 293 293 291 286
300 300 300 300 300 300 300 300 301 301 301 299 295 285 303 308 290 289 285 289 292 292 295 292 292 291 290 291 290 291 291 292 296 295 292 297 293 285 288 296 299 298 295 293 288 289 291
300 300 300 300 300 300 300 300 300 301 301 298 290 290 301 304 284 285 289 289 291 290 291 291 289 292 293 291 287 291 292 297 296 294 290 292 290 284 286 292 296 293 296 296 295 294 289
300 300 301 300 301 300 300 300 300 301 301 297 291 285 291 296 294 289 287 287 287 293 291 293 291 293 291 289 292 289 291 294 296 294 296 296 291 289 284 288 293 290 293 296 295 289 290
300 301 301 301 301 301 301 300 300 300 301 296 289 287 291 285 287 288 289 289 287 286 292 292 290 290 289 286 288 288 291 292 295 294 294 293 287 290 291 293 293 294 293 294 293 294 290
301 301 301 301 301 301 301 301 301 301 301 293 286 286 290 289 291 288 288 287 286 289 290 289 288 290 290 287 288 287 290 291 291 294 292 294 287 289 287 293 292 290 293 293 295 295 296
300 301 302 302 302 301 301 301 301 301 300 292 294 296 291 288 287 287 287 288 288 290 292 292 292 290 289 291 294 295 296 295 295 292 291 290 288 287 283 290 291 287 292 293 294 296 295
300 301 302 302 302 302 302 301 301 301 300 296 294 294 288 283 285 286 288 290 289 290 288 292 294 291 294 299 299 297 296 294 294 293 294 289 288 288 284 287 280 291 298 298 295 297 298
301 301 301 302 302 303 302 302 301 301 301 297 297 295 289 283 286 286 287 289 290 293 291 292 293 297 300 296 290 286 287 288 290 292 292 294 290 286 283 283 287 290 294 293 292 292 300
301 302 302 302 302 302 302 302 302 302 301 299 298 300 294 286 285 289 287 289 287 288 288 293 298 300 298 291 287 281 280 285 285 288 294 293 294 288 286 280 278 289 295 300 299 288 300
301 301 302 302 302 302 302 302 302 302 302 299 297 301 295 287 290 291 287 287 292 290 288 291 293 293 295 288 284 282 282 289 283 284 285 286 288 284 284 283 287 294 298 300 287 290 301
301 302 302 302 302 302 302 303 303 302 302 299 296 301 294 289 290 293 294 291 292 291 287 292 288 291 288 284 285 285 285 288 288 289 288 286 284 283 285 282 280 298 297 292 298 302 301
302 302 302 302 302 302 303 303 303 303 302 301 293 299 300 292 291 297 298 299 296 296 291 292 290 291 291 288 289 289 287 291 288 283 294 286 289 287 288 287 297 302 301 302 303 301 301

GFSGBSN_sfc_thetae_087.txt.gz
Theta_e
312 312 312 311 311 311 310 310 310 311 310 310 310 310 311 312 311 311 313 313 313 312 312 312 312 312 305 297 299 309 325 324 321 316 311 308 300 298 296 300 300 298 300 302 304 304 303
311 311 311 311 311 312 311 310 310 311 310 310 310 310 310 310 310 311 312 312 312 312 312 312 312 312 301 290 304 306 307 308 313 305 308 307 304 304 301 301 299 302 302 302 303 302 303
310 310 311 311 310 311 311 311 310 310 310 310 310 310 309 309 310 311 310 311 311 311 311 312 312 308 299 295 304 304 305 304 306 307 301 307 310 304 302 300 305 303 298 300 301 300 299
309 309 308 310 311 311 310 311 310 309 309 308 308 309 309 310 310 311 311 310 310 311 311 311 312 306 296 307 304 305 305 305 309 308 305 303 303 300 301 304 302 298 298 292 299 301 301
309 308 307 308 309 310 310 310 310 309 308 309 308 309 309 310 310 310 310 310 309 311 311 312 306 302 296 311 304 306 306 303 305 307 305 308 300 295 298 295 292 294 289 291 294 301 300
308 308 308 307 307 308 309 309 310 309 309 308 308 308 308 309 309 309 309 309 308 310 309 309 307 299 303 300 305 306 306 305 302 303 301 298 292 289 291 292 286 289 290 290 291 298 300
307 307 307 307 306 307 308 308 309 309 308 308 307 307 307 308 308 308 306 300 297 297 301 299 300 299 302 306 305 300 306 307 304 298 291 294 286 283 289 293 296 296 294 293 295 300 299
305 305 306 307 306 306 307 307 308 308 308 307 307 306 306 307 308 308 302 296 298 297 291 299 299 298 302 301 295 298 301 297 297 291 293 290 286 290 294 295 294 294 293 292 297 300 299
305 305 305 305 305 305 306 306 306 307 306 307 306 305 306 306 307 302 300 302 306 304 290 294 299 298 299 301 295 295 297 295 295 293 294 290 294 298 295 293 291 290 290 290 293 297 299
303 303 303 304 305 305 305 305 305 305 306 306 306 306 306 306 300 300 298 306 308 305 285 290 295 298 300 301 295 301 301 295 296 293 295 294 298 297 294 292 292 287 295 296 295 293 287
303 303 303 303 304 304 304 304 305 305 305 305 305 305 305 304 296 295 301 306 307 301 275 296 295 304 303 297 298 296 301 295 291 294 294 291 294 294 293 293 295 291 298 296 295 293 292
302 302 303 303 303 303 303 303 304 304 304 304 305 304 305 299 297 298 303 306 302 285 276 289 296 294 295 296 297 297 295 297 298 293 295 293 297 295 296 297 297 298 295 296 295 293 286
301 301 301 302 302 302 302 303 303 303 303 304 305 304 301 300 292 302 301 299 284 278 293 288 291 294 293 291 294 294 291 288 287 284 284 289 291 295 297 292 296 297 292 285 283 283 282
301 301 301 301 301 302 302 302 302 302 303 303 304 304 301 299 299 300 298 290 278 287 289 294 293 292 289 292 292 293 289 285 289 289 283 282 282 291 296 293 292 293 292 286 279 280 285
301 301 301 301 301 301 301 301 301 302 302 303 302 295 295 298 300 300 293 280 282 286 291 290 290 286 287 291 292 293 289 289 290 289 282 283 286 295 297 297 295 292 288 294 287 289 285
300 300 300 300 300 301 300 301 301 302 302 301 294 294 293 299 300 297 288 282 285 292 292 291 285 288 284 290 289 290 291 294 293 293 292 288 283 292 295 297 298 294 297 288 288 280 281
300 300 301 301 300 300 300 300 300 301 301 301 294 288 294 299 301 291 282 284 288 292 293 289 287 286 287 288 289 288 291 293 293 292 294 291 287 287 292 291 290 291 289 292 291 290 284
300 300 300 301 301 301 301 300 300 301 301 297 292 280 296 300 286 288 284 288 292 290 292 291 291 289 287 288 288 288 290 292 294 293 288 292 290 284 286 294 296 295 291 293 287 285 290
300 300 301 301 301 301 301 300 300 300 300 292 288 285 295 298 279 284 287 288 290 289 289 289 289 291 291 287 285 289 292 296 295 293 289 290 289 283 285 289 294 291 294 294 294 292 288
300 300 300 301 301 301 301 301 300 300 300 294 286 278 284 290 288 286 284 285 285 291 290 290 289 291 289 286 290 288 290 295 295 293 296 294 288 286 282 287 289 289 292 294 293 287 287
300 301 301 301 302 302 301 301 300 300 300 294 287 284 286 274 284 286 287 288 286 285 290 291 288 288 287 284 286 285 289 291 295 296 293 291 285 288 289 291 291 289 290 292 291 292 288
300 301 301 301 301 301 301 301 301 301 300 290 284 283 286 284 287 286 287 284 285 286 288 287 287 289 288 285 286 284 289 290 289 293 290 291 285 287 285 290 291 290 292 292 291 293 294
300 300 301 301 302 302 301 301 301 301 299 290 291 289 286 284 283 283 282 286 286 288 289 290 290 288 288 289 293 292 292 292 292 290 288 288 287 285 282 288 287 285 291 292 293 295 294
299 300 300 301 302 302 302 302 302 301 299 290 289 288 284 276 281 282 286 287 287 288 287 290 292 289 293 296 296 295 294 293 292 291 292 287 286 287 280 283 277 291 297 297 294 296 298
300 300 300 301 302 302 302 302 302 301 301 293 291 288 284 276 283 284 285 286 287 290 288 290 292 295 297 293 286 283 283 284 287 290 289 290 287 280 279 280 285 288 292 292 291 293 299
300 300 300 302 302 302 302 302 302 302 302 296 293 293 288 282 281 287 284 287 283 284 286 289 295 297 296 287 283 278 276 282 282 286 291 290 289 284 280 279 275 287 295 299 299 288 299
300 300 301 302 302 302 302 302 302 302 302 298 293 295 290 283 287 287 284 284 288 287 285 287 290 290 293 284 278 277 278 286 280 282 282 283 283 281 280 279 284 293 297 300 286 287 298
300 301 301 302 303 303 303 303 303 302 302 299 295 296 292 286 287 290 291 287 289 288 281 288 285 288 286 280 280 280 278 283 284 287 286 283 281 280 281 278 277 297 297 291 295 299 298
300 301 302 302 302 302 303 303 303 303 303 301 293 297 297 289 288 293 293 294 293 294 291 290 289 288 289 283 283 283 280 284 285 281 292 282 287 283 284 284 294 298 297 299 300 297 297

GFSGBSN_sfc_thetae_090.txt.gz
Theta_e
311 312 312 312 312 311 312 312 312 311 311 311 310 309 308 310 310 310 311 312 312 311 311 311 312 312 306 296 297 306 324 319 321 319 311 307 298 295 293 296 297 296 298 301 301 301 301
310 310 310 311 311 311 311 311 311 311 311 311 311 310 309 309 309 310 311 311 311 311 310 310 311 312 300 288 301 304 303 304 313 311 306 307 305 301 297 298 296 300 300 300 301 300 300
309 309 309 309 310 310 311 310 311 311 311 310 310 310 310 308 308 309 310 310 310 310 310 310 311 307 298 293 301 300 303 302 303 303 302 303 305 303 300 298 302 301 296 299 299 298 297
308 309 309 308 308 309 309 310 310 310 310 309 309 309 309 308 309 309 310 310 310 310 309 310 311 305 293 305 304 303 302 302 304 303 305 305 302 297 297 302 301 296 295 290 298 298 298
309 308 308 308 308 308 309 309 309 309 309 309 309 309 309 308 309 309 309 309 309 309 309 310 305 301 292 309 304 306 303 301 303 303 303 307 301 293 294 293 291 292 288 290 293 297 297
308 308 307 307 307 307 307 308 309 309 309 308 308 308 308 308 308 308 307 307 307 309 308 309 306 297 300 298 303 304 302 303 300 301 300 297 292 287 288 290 285 287 288 287 287 292 296
306 306 306 306 306 307 306 306 307 308 308 308 308 308 308 307 307 307 304 298 295 294 298 297 297 297 299 305 304 300 301 303 301 296 290 292 284 282 286 290 293 292 291 290 292 298 296
304 305 305 306 306 306 306 306 306 307 306 307 306 307 306 306 307 306 301 295 299 298 290 298 298 298 302 304 295 299 300 293 297 290 291 289 284 288 290 292 291 291 289 289 294 298 297
303 303 304 304 304 305 305 305 305 306 306 306 306 306 305 306 306 300 297 298 306 305 289 293 297 296 296 298 294 295 296 293 290 290 290 286 291 294 291 289 289 289 288 288 289 295 297
303 304 303 304 304 304 304 305 305 305 305 306 306 305 306 306 294 295 293 302 304 304 282 287 293 296 299 299 292 299 299 294 291 289 293 292 297 296 294 292 292 286 292 292 292 291 285
302 302 303 303 303 303 303 303 304 304 304 304 305 305 305 304 294 291 297 301 302 300 272 293 294 303 300 295 296 295 299 294 289 293 293 290 294 292 291 293 295 290 294 293 293 291 290
301 301 301 302 302 302 302 302 303 303 303 304 304 304 305 298 292 296 300 299 300 284 274 290 295 293 293 296 296 296 295 296 295 293 293 292 296 294 293 295 297 297 293 294 293 292 283
301 301 301 301 301 301 302 302 302 302 302 303 303 303 301 299 289 299 299 295 283 278 290 288 290 293 293 292 293 292 290 289 286 283 284 288 289 293 297 291 295 295 291 283 282 282 280
301 302 301 301 301 301 301 301 301 302 302 302 303 303 299 298 296 299 296 289 276 285 287 293 292 292 289 291 291 290 287 284 288 287 282 280 279 289 295 291 289 290 291 286 278 279 282
301 301 301 301 301 301 301 301 301 301 302 302 302 293 292 295 296 298 289 280 280 285 289 287 289 286 286 290 290 290 287 286 288 289 282 281 284 293 294 295 294 290 287 293 287 288 284
301 301 300 301 301 301 301 301 301 301 301 301 290 290 291 295 296 294 285 281 284 290 290 289 284 287 284 288 290 291 290 292 290 291 290 286 281 290 294 296 296 293 296 287 288 280 279
300 301 301 301 301 301 301 301 301 301 300 300 293 287 292 295 296 288 280 283 287 291 292 287 286 285 286 285 288 289 290 293 292 291 292 288 285 285 290 289 289 291 289 289 291 288 282
300 300 300 301 301 301 301 301 301 301 300 296 291 280 292 298 281 282 280 287 291 290 292 290 290 289 287 287 286 287 289 292 293 292 287 289 287 280 284 291 297 294 291 290 287 284 288
300 300 300 301 301 301 301 301 301 300 299 292 287 284 292 296 276 280 286 287 289 288 288 288 287 289 289 286 283 289 291 295 294 290 287 288 286 281 283 289 294 290 292 292 292 291 286
299 300 300 300 301 302 302 302 301 300 300 292 285 278 282 287 287 284 283 284 284 291 289 290 289 289 287 285 288 286 289 294 294 292 296 293 286 285 281 285 289 287 288 291 291 286 285
299 299 300 300 301 301 302 302 301 300 300 290 285 276 286 281 283 282 284 286 284 284 290 291 287 288 286 282 284 283 288 290 293 296 291 289 282 287 288 289 291 290 289 290 289 290 288
298 299 300 300 301 301 302 302 301 301 300 288 282 282 285 282 286 284 285 284 284 285 287 286 286 288 288 285 285 282 287 287 287 291 289 290 282 285 284 289 288 286 291 291 291 292 293
298 299 300 300 301 301 302 302 301 301 297 289 286 286 283 282 282 280 283 285 285 288 289 290 289 287 287 289 290 291 292 291 290 288 286 287 285 283 280 287 285 282 289 291 291 294 291
298 298 300 300 300 301 302 302 302 301 299 288 287 285 279 274 279 281 283 285 285 286 286 289 291 288 293 296 294 293 292 291 291 290 291 285 284 283 279 282 274 287 293 295 293 296 296
297 298 299 300 300 301 302 302 302 302 301 289 288 286 282 273 281 282 283 284 285 286 287 288 291 294 295 292 285 283 282 283 286 289 288 289 284 278 277 278 283 286 290 292 291 292 298
297 299 299 300 301 301 302 302 302 302 301 296 292 290 286 282 278 285 283 284 281 281 283 288 293 294 293 287 282 279 276 281 281 284 289 288 287 281 278 277 273 285 294 298 298 287 298
297 298 299 300 301 302 302 302 302 302 302 298 294 294 287 280 283 285 282 283 287 285 282 285 287 288 290 281 277 278 278 285 278 280 282 282 281 279 279 277 282 292 296 299 285 287 297
297 298 300 300 301 302 302 303 302 303 302 299 295 296 289 282 285 287 289 285 288 289 283 286 282 287 285 281 280 279 276 282 282 285 284 282 281 279 279 279 276 295 297 289 293 296 296
298 299 300 301 301 302 302 302 303 303 302 302 293 296 295 287 286 291 291 291 291 292 288 289 288 288 288 285 283 282 277 278 282 278 291 283 286 282 283 282 293 295 294 296 297 295 295

GFSGBSN_sfc_thetae_093.txt.gz
Theta_e
309 310 310 310 310 311 312 311 311 312 311 311 310 310 309 309 309 309 310 310 311 310 310 310 310 311 304 294 294 304 316 311 319 314 307 304 297 294 291 293 297 295 296 298 299 299 297
309 310 309 309 308 309 310 311 310 311 311 311 311 310 309 309 308 308 309 309 310 310 309 310 310 311 299 287 299 301 301 301 303 312 307 307 301 298 294 294 294 298 298 299 299 299 298
308 308 309 309 308 308 308 308 309 310 310 310 310 310 310 308 308 308 309 309 309 309 308 309 310 306 297 292 300 301 302 299 301 304 303 302 306 301 298 296 300 299 295 297 296 296 296
308 309 308 308 308 308 308 308 308 309 309 309 309 309 309 309 308 308 308 308 308 308 309 309 309 304 293 304 303 302 301 300 302 302 301 304 302 296 295 298 298 295 294 288 296 297 298
307 308 308 308 307 308 307 307 307 307 308 308 308 308 309 309 308 308 307 307 307 308 309 308 304 300 291 307 302 305 303 299 300 301 301 306 300 293 291 289 289 290 286 288 291 297 296
306 306 307 306 306 307 307 307 307 307 307 307 307 308 309 308 308 307 306 306 305 307 307 306 305 295 298 297 305 303 304 302 299 299 298 297 291 286 287 288 283 285 286 284 287 292 294
304 304 305 305 306 306 306 306 306 307 306 306 307 307 307 307 307 306 303 295 295 293 298 296 296 295 298 304 305 300 299 298 298 295 289 290 285 282 284 289 291 291 289 287 289 295 295
302 303 303 304 304 305 305 305 305 305 306 306 306 306 306 306 306 306 298 295 298 298 290 298 297 298 301 304 296 299 300 293 295 289 290 287 282 287 288 289 289 289 287 286 291 296 294
302 303 304 304 304 304 304 304 304 305 304 305 305 305 305 306 306 297 292 293 301 300 290 292 296 295 296 298 294 295 298 292 289 289 288 285 289 293 289 286 286 285 285 286 288 292 293
301 302 302 303 303 303 304 304 304 304 304 304 304 304 305 305 294 292 291 299 300 299 283 285 290 294 296 296 291 300 298 293 289 287 289 288 294 294 292 290 291 286 291 291 289 288 282
300 300 301 301 302 302 302 303 303 303 303 304 303 304 305 304 292 289 293 299 299 297 271 288 293 301 297 292 294 293 297 292 288 292 292 290 293 292 290 291 294 289 294 291 289 288 287
299 300 301 301 302 301 302 302 302 302 302 303 303 303 304 297 291 293 297 298 298 281 272 287 293 292 291 294 294 294 293 295 294 292 292 291 295 294 292 295 295 297 292 292 291 289 281
301 301 302 302 302 302 302 302 302 302 302 302 302 303 300 299 289 295 296 294 279 275 287 287 288 292 290 290 292 291 289 288 284 282 284 288 289 293 297 290 293 293 289 277 280 280 279
301 301 301 301 301 301 301 301 302 301 301 302 302 303 298 298 295 295 294 286 275 281 284 290 289 291 288 291 291 289 287 284 287 285 282 280 278 288 294 291 288 289 289 282 276 278 281
300 301 301 301 300 301 301 301 301 301 301 301 301 291 290 292 296 294 286 277 278 284 287 285 287 286 287 289 290 288 286 284 287 288 282 280 282 291 293 293 293 289 286 293 286 287 283
300 300 300 301 301 301 301 302 301 301 301 301 289 288 288 293 295 290 282 280 283 289 289 288 283 287 282 286 288 287 288 291 289 291 288 286 281 289 293 295 293 291 295 286 287 280 279
300 299 300 301 301 301 302 302 302 301 301 299 293 284 290 294 294 288 275 281 285 290 290 286 284 284 286 284 287 289 289 292 291 290 291 288 284 284 290 289 287 289 288 289 289 287 282
298 299 300 300 301 301 301 302 302 301 300 295 289 280 290 298 278 281 274 283 289 289 291 288 289 287 285 287 286 289 288 291 293 292 287 289 287 280 283 289 295 292 290 291 284 284 286
299 299 300 300 301 301 301 302 302 301 299 289 285 285 291 293 278 271 281 285 287 287 287 286 286 289 289 286 283 290 290 294 294 291 288 289 285 279 281 287 291 289 291 290 290 289 284
299 298 299 300 300 301 302 302 302 301 300 290 285 275 281 286 287 282 279 281 282 290 288 289 287 290 287 285 287 286 289 293 294 292 296 292 285 283 278 282 288 286 289 291 289 285 286
298 298 299 299 300 301 301 302 301 301 300 289 285 277 283 277 282 281 283 284 283 283 289 291 288 287 286 281 283 282 287 289 292 295 290 288 281 284 286 288 288 288 289 290 288 289 286
297 297 298 299 300 301 301 302 302 301 300 287 281 281 284 283 285 285 284 283 283 285 286 285 285 287 287 284 285 282 286 286 286 290 288 288 281 282 281 286 287 285 286 286 290 291 290
297 297 298 299 299 301 301 302 302 301 296 284 285 284 282 280 281 281 282 282 283 285 288 289 288 286 285 287 289 290 290 290 289 288 285 286 283 281 278 283 283 279 286 287 291 292 292
297 296 298 299 300 300 301 301 302 302 297 287 285 283 277 273 279 280 282 283 284 285 284 288 289 287 291 295 293 291 290 290 289 289 290 285 283 282 278 280 272 284 290 295 292 293 295
296 297 298 298 300 300 301 301 301 302 301 289 289 284 281 274 280 281 282 283 284 286 286 288 291 293 294 291 284 282 282 282 285 288 287 288 283 278 276 276 280 284 289 289 288 290 298
296 297 297 299 299 300 301 301 302 302 302 295 290 289 284 278 277 284 281 283 280 281 282 287 292 293 292 285 281 278 276 280 280 283 288 286 285 280 277 275 271 283 292 296 296 286 297
296 297 297 298 299 301 301 301 302 302 302 298 293 292 287 279 282 283 281 281 285 284 282 284 288 288 290 281 280 278 278 284 278 280 281 280 280 278 278 277 280 289 293 297 283 284 295
296 296 297 298 299 301 301 302 302 303 303 299 295 294 289 279 283 286 286 283 285 286 282 285 281 285 285 278 279 279 277 281 281 283 281 280 277 277 279 278 274 292 293 287 292 294 295
295 295 297 298 300 300 301 302 302 303 303 301 293 295 295 288 284 289 289 290 289 289 285 286 285 286 288 284 283 283 277 277 280 277 288 279 284 282 281 280 292 294 292 294 294 290 290

GFSGBSN_sfc_thetae_096.txt.gz
Theta_e
310 310 310 309 308 309 309 310 310 310 310 310 310 310 310 310 309 308 309 309 308 307 307 308 309 309 303 292 292 300 310 307 318 311 303 301 296 293 290 291 294 293 294 296 298 298 296
308 308 308 309 308 308 308 308 308 308 309 309 310 310 310 309 308 308 308 309 308 308 307 307 308 309 299 287 298 299 301 300 299 310 308 303 299 297 293 292 292 295 296 297 298 298 298
307 308 308 307 308 308 307 307 307 307 307 309 309 310 309 309 308 308 307 308 308 307 306 307 308 304 296 291 300 301 301 298 298 299 302 305 306 300 295 293 297 296 291 293 294 295 295
307 307 308 307 307 307 307 307 307 307 307 308 308 308 309 309 309 309 308 308 307 307 308 307 308 302 291 303 302 300 299 299 301 300 299 300 300 297 294 295 294 293 292 287 294 296 297
304 306 306 306 306 306 306 306 307 306 307 307 307 308 308 308 308 308 307 307 306 306 309 309 302 298 290 306 300 303 302 297 299 299 298 303 298 292 290 287 286 288 284 286 290 295 295
304 303 304 305 305 305 305 306 306 306 306 306 306 306 307 308 308 307 306 306 305 306 306 305 303 293 294 294 303 304 303 302 298 297 297 295 291 286 285 285 280 284 285 283 286 291 293
302 303 303 303 303 304 304 305 305 305 305 305 305 306 306 307 307 306 302 294 294 291 295 292 294 293 296 303 306 301 301 299 298 295 289 291 286 282 286 288 288 288 287 286 288 294 293
301 303 304 304 303 303 304 304 304 304 304 304 304 305 305 305 305 305 294 288 292 294 287 295 295 295 299 301 294 298 302 292 295 289 290 287 283 289 289 288 287 286 285 284 288 293 292
301 300 302 302 302 303 303 303 303 303 303 303 304 304 304 304 304 295 290 291 299 297 288 291 295 294 296 298 293 294 299 293 293 290 288 286 288 291 287 285 284 283 282 283 284 289 290
300 300 300 301 301 301 302 302 302 302 303 303 303 303 304 304 294 291 289 296 298 298 283 284 289 293 296 296 290 298 300 293 289 289 289 287 291 292 289 287 286 283 289 288 287 285 280
300 299 299 300 301 301 302 302 302 302 302 302 303 303 303 303 292 289 292 296 297 297 270 286 290 299 296 290 291 292 298 292 287 288 291 287 292 290 289 290 292 288 293 291 289 284 285
299 300 301 301 302 302 301 302 302 302 302 302 302 302 303 296 290 292 294 295 295 280 270 284 292 290 288 290 292 293 291 293 294 292 291 290 295 293 291 294 294 295 291 290 289 287 278
300 301 301 301 301 301 301 301 301 301 301 301 302 302 300 298 288 293 294 290 279 273 284 284 285 288 288 288 290 290 288 287 284 283 283 288 289 292 295 289 292 292 286 275 277 279 277
299 300 300 301 301 300 301 301 302 301 301 301 301 301 298 297 293 293 290 283 272 279 281 289 288 287 285 290 289 288 287 283 287 285 283 280 278 289 294 290 287 288 286 278 275 277 280
298 299 300 300 300 301 301 301 302 302 301 301 300 290 289 291 293 292 281 273 275 281 287 286 286 284 286 289 289 287 285 284 287 287 281 280 280 289 293 293 291 287 285 290 285 284 281
298 299 299 300 300 301 301 301 302 302 302 301 289 287 287 292 293 288 276 276 280 287 288 288 282 285 281 284 285 286 287 290 287 290 288 285 280 289 292 293 292 290 294 285 286 278 275
298 299 299 300 300 301 301 301 302 302 301 299 287 283 288 292 293 285 274 276 283 288 290 285 284 283 284 284 287 288 288 289 290 289 290 287 284 284 290 288 286 287 287 288 289 286 281
299 298 299 300 300 301 301 301 302 302 300 293 288 278 289 297 283 278 272 281 286 285 290 287 287 287 284 285 287 287 287 290 292 291 287 289 285 280 283 289 293 291 288 289 284 282 286
298 299 299 299 300 300 301 301 302 301 299 288 282 282 289 294 276 278 280 281 285 285 285 286 284 287 287 284 283 287 288 293 294 290 288 289 285 280 282 287 290 289 291 291 289 288 282
299 299 298 298 300 300 301 301 301 300 300 288 284 275 278 288 287 282 280 279 279 288 287 288 286 287 286 284 287 284 286 292 294 291 296 292 285 282 278 281 286 284 288 290 290 283 284
297 298 297 297 299 300 300 301 302 300 300 288 284 277 282 275 281 280 283 281 280 281 289 289 286 286 286 282 284 283 287 288 291 293 290 288 281 284 285 286 287 286 286 288 287 288 284
296 296 296 297 298 299 300 301 301 301 299 285 276 279 284 281 282 280 282 280 281 283 286 285 284 286 288 285 284 282 285 286 286 289 287 288 281 282 281 285 286 283 285 284 285 286 287
297 296 297 297 298 299 300 301 301 301 295 283 283 284 282 279 279 279 280 281 281 284 286 288 287 287 284 287 288 288 289 289 288 286 284 285 283 281 278 282 282 277 281 288 289 291 290
297 296 296 296 298 299 300 300 301 301 295 287 285 283 277 273 278 279 280 282 282 283 283 288 290 286 290 293 291 290 288 288 288 288 289 284 283 282 278 280 270 280 287 292 289 293 294
296 296 296 297 297 298 300 300 300 301 300 290 288 286 281 275 280 280 281 281 283 283 284 286 290 292 292 289 283 281 281 282 284 287 286 287 283 278 275 276 279 282 288 288 287 288 297
296 297 296 297 297 298 299 300 300 301 301 295 291 292 287 278 276 282 280 281 278 280 281 284 290 292 290 283 280 277 275 280 280 282 287 285 284 280 277 274 269 280 290 294 294 283 294
296 297 295 297 297 298 299 300 301 301 302 298 294 294 289 280 282 282 280 282 285 282 281 283 285 288 287 279 278 277 278 283 278 279 280 280 280 278 277 277 280 287 291 294 281 283 293
296 297 295 296 297 298 299 300 301 301 302 299 294 294 290 279 281 285 285 281 282 284 281 283 280 284 283 279 278 279 277 280 281 282 281 280 278 276 279 277 274 291 291 284 289 289 291
296 296 295 296 296 298 299 300 301 302 302 301 293 295 295 288 283 288 288 289 288 288 283 283 284 287 287 284 283 283 280 279 280 277 286 278 284 283 282 281 291 292 291 291 290 287 287

GFSGBSN_sfc_thetae_099.txt.gz
Theta_e
308 307 308 309 308 308 308 308 307 307 307 308 309 309 309 309 309 309 309 309 308 308 307 307 307 308 303 294 294 302 307 306 312 313 304 301 298 298 295 297 299 296 298 299 301 301 300
308 308 307 308 308 307 307 307 307 307 307 307 308 308 308 308 308 308 308 309 309 308 307 307 307 307 298 287 301 302 301 302 300 309 307 303 300 300 296 295 295 297 298 299 300 301 301
306 307 309 308 307 307 307 307 306 307 306 307 307 308 308 308 308 307 307 308 308 308 307 307 307 303 295 291 302 302 301 300 301 299 298 308 305 300 298 295 298 297 294 296 296 298 298
305 306 307 307 306 306 306 306 306 306 306 306 307 307 307 307 307 307 307 308 307 308 308 309 309 302 292 303 305 302 303 301 302 301 299 300 304 304 300 300 296 296 296 292 297 297 299
303 304 304 305 305 305 305 305 305 305 306 306 306 306 306 307 307 307 307 307 306 307 309 309 303 298 291 305 299 304 304 298 300 300 300 303 302 298 295 292 290 292 289 290 293 298 298
302 302 303 303 303 303 303 304 305 305 305 305 305 305 305 306 306 306 306 305 305 306 306 305 303 294 296 293 303 305 304 302 299 298 297 296 296 292 290 289 283 286 288 290 291 296 297
301 301 303 303 302 303 303 304 304 304 304 304 304 304 304 304 305 305 301 294 291 291 294 289 290 292 294 299 304 302 303 301 300 296 290 294 290 287 289 291 291 291 290 290 292 297 295
300 300 301 302 302 302 303 303 303 303 303 303 303 303 304 304 304 304 296 290 292 292 285 293 293 293 296 299 292 296 303 294 295 289 292 289 288 292 292 291 291 290 288 288 291 294 293
299 300 300 301 301 301 302 302 302 302 302 302 303 303 303 304 304 295 293 292 298 297 286 289 293 293 294 297 291 292 298 295 295 291 290 288 291 292 290 289 287 287 287 286 287 290 293
299 299 299 299 300 301 302 302 302 302 302 302 302 303 302 303 294 294 291 296 298 297 282 285 289 293 295 296 290 297 299 295 291 291 291 290 293 289 288 287 289 284 289 288 288 288 284
298 298 299 300 301 302 302 301 302 302 302 302 302 302 302 302 295 292 294 297 298 296 270 286 290 299 297 291 291 293 299 295 288 291 292 289 291 291 288 290 291 289 294 291 291 289 288
298 299 300 301 301 301 301 301 301 301 301 302 301 301 302 297 294 295 295 296 295 279 270 282 292 290 289 291 291 293 293 295 295 293 293 292 297 295 294 296 296 297 293 292 292 290 282
299 299 300 300 301 300 300 301 302 302 301 301 301 302 299 298 290 295 296 291 278 272 285 282 284 289 289 287 288 289 288 287 287 284 285 290 292 295 297 292 295 293 288 282 280 280 280
299 298 300 300 300 301 300 301 301 302 302 302 302 300 296 296 296 296 292 283 271 278 280 288 287 287 285 289 289 288 286 285 289 288 286 283 281 291 295 292 290 290 288 282 276 279 283
298 297 299 299 299 300 301 301 302 302 302 302 299 292 291 293 294 294 285 273 275 280 285 284 285 284 285 289 289 287 287 285 289 289 285 283 282 292 294 295 294 289 286 292 283 285 282
297 297 299 298 299 300 301 301 302 302 302 300 291 288 288 293 295 289 279 275 279 285 286 288 280 284 279 284 285 287 287 290 288 291 291 287 283 290 292 295 296 292 295 285 286 278 277
297 297 298 298 299 300 301 301 302 302 301 299 289 283 289 295 296 286 274 276 280 285 286 284 282 281 283 283 285 287 287 289 291 290 292 289 287 286 292 289 288 290 288 288 287 285 280
297 298 298 299 299 299 301 301 302 302 299 293 287 277 290 296 281 281 277 280 285 283 286 284 287 285 283 285 286 287 286 289 294 292 288 291 287 283 285 292 295 292 290 289 284 282 285
297 298 299 298 298 299 300 301 301 300 297 289 282 282 291 294 275 278 282 281 283 281 284 284 284 286 285 284 283 289 289 294 294 291 290 292 286 282 283 288 292 290 291 291 289 288 283
297 298 298 297 297 299 300 301 301 300 299 290 282 275 280 288 286 281 280 280 280 287 285 288 286 287 286 285 288 285 286 291 295 293 296 295 287 284 280 283 288 285 288 290 289 283 285
297 298 298 296 296 298 299 300 301 301 299 289 285 277 282 275 280 281 282 282 281 282 287 288 285 286 285 283 284 284 287 289 292 293 292 290 283 286 286 287 288 287 286 287 285 287 284
297 297 296 296 296 297 299 300 301 301 298 286 278 279 283 281 282 280 281 280 279 281 284 284 284 286 287 284 285 283 286 286 287 291 289 290 283 285 283 286 287 284 286 285 286 287 287
298 296 296 297 296 297 299 300 301 301 296 285 285 286 283 280 280 279 279 280 281 283 284 287 287 287 286 287 289 290 291 290 290 288 287 287 285 282 278 284 283 279 283 285 289 292 292
296 297 296 296 296 297 298 300 300 301 296 289 286 285 280 275 279 279 280 282 281 283 281 287 290 287 291 293 293 291 290 289 290 290 290 286 285 284 280 281 272 282 289 290 288 291 295
297 298 296 296 296 297 298 300 300 300 298 291 289 287 283 276 280 280 281 281 283 283 284 286 289 291 293 290 285 282 283 284 285 288 288 289 286 281 278 278 281 284 289 288 287 286 294
297 297 296 297 296 297 298 299 300 300 301 294 292 293 288 281 279 282 282 282 280 281 283 285 290 293 291 286 283 278 276 280 280 283 288 287 287 283 280 275 272 282 289 294 293 284 292
297 296 296 297 295 297 297 299 299 300 301 297 293 294 289 282 284 284 282 282 286 283 282 285 286 288 290 283 281 279 279 283 278 279 281 282 282 280 280 278 281 288 291 294 280 282 291
297 295 296 297 295 296 297 298 299 301 301 298 294 295 290 283 283 285 286 283 283 285 281 285 283 286 286 282 281 281 280 282 282 284 283 281 280 280 281 278 275 291 291 285 288 289 289
296 295 296 296 295 296 297 298 299 300 301 301 292 295 296 288 286 289 290 290 289 290 287 285 285 285 287 282 282 283 281 283 281 279 287 282 285 282 283 283 290 291 289 289 289 286 287

GFSGBSN_sfc_thetae_102.txt.gz
Theta_e
308 308 309 309 308 307 307 307 307 307 307 307 308 308 308 309 309 308 308 309 308 308 308 308 308 308 305 297 297 304 311 310 306 310 307 305 303 303 301 303 304 301 303 304 305 304 303
308 308 307 308 307 307 307 307 306 307 307 307 307 308 308 308 308 307 307 308 309 308 307 308 308 307 301 291 303 305 304 303 303 308 307 306 304 306 303 303 301 304 304 304 304 303 304
307 309 309 308 306 306 306 306 306 306 306 306 306 307 307 307 307 307 307 307 308 308 308 308 308 306 297 295 304 305 304 303 304 303 302 310 307 304 303 300 304 302 298 300 301 302 301
306 307 307 306 305 305 305 306 305 305 306 306 306 306 306 306 306 306 306 307 307 308 308 310 310 304 294 304 307 304 305 304 304 304 302 305 306 306 303 305 301 298 299 295 302 302 302
305 305 304 304 303 303 303 304 305 305 305 305 305 305 305 306 306 306 307 307 307 306 309 309 306 301 294 307 301 307 309 303 303 303 303 302 301 303 304 299 296 298 294 296 298 304 302
303 303 302 302 302 302 302 304 304 304 304 304 304 304 304 305 306 306 306 306 305 307 307 307 304 295 299 294 302 305 309 306 302 300 296 296 297 296 298 296 289 292 292 295 296 301 301
302 302 304 303 302 302 303 303 303 303 303 303 303 303 303 304 304 305 303 301 295 295 295 290 292 294 295 299 301 300 307 303 303 298 289 294 289 289 294 296 295 294 293 293 297 300 299
302 301 300 301 301 301 301 301 302 302 302 303 303 303 303 303 304 303 302 294 293 294 286 294 293 294 297 298 293 297 302 297 298 291 292 290 287 293 295 296 293 293 292 292 296 298 297
301 300 299 300 300 300 300 301 302 302 302 303 303 303 303 303 304 300 298 295 301 300 287 290 294 294 296 298 293 294 299 299 296 292 291 288 291 293 293 292 291 292 291 292 292 295 296
301 300 299 299 300 301 301 301 301 302 302 302 302 302 303 302 298 299 295 300 302 301 283 286 291 295 298 298 292 300 300 299 296 293 292 290 295 293 291 290 292 288 295 293 292 290 288
299 299 299 300 301 301 300 301 301 301 301 302 302 302 302 301 298 294 297 302 302 298 272 288 292 302 298 294 296 296 301 297 293 294 294 290 292 291 291 292 294 291 295 293 292 292 292
299 300 301 300 300 300 300 301 301 302 302 302 302 302 302 299 299 299 302 302 300 283 272 283 290 291 291 292 294 297 295 299 300 296 295 294 298 295 294 296 295 298 295 295 295 293 286
299 300 300 299 300 300 299 300 301 302 302 302 302 302 300 300 294 302 302 296 281 275 285 283 285 289 288 288 292 292 290 290 289 287 288 293 294 297 298 294 298 296 293 286 284 283 285
300 298 298 300 299 299 300 301 301 302 302 303 302 300 298 300 302 302 298 287 273 279 281 287 287 288 286 289 291 291 289 287 293 291 288 285 283 294 297 295 292 293 292 287 280 282 287
300 297 298 299 298 299 300 301 301 302 302 302 300 300 300 301 302 302 291 278 277 280 284 283 286 283 283 286 290 290 289 287 291 293 286 285 285 296 297 298 297 292 289 295 287 289 287
299 297 298 298 298 299 300 301 302 302 303 301 297 296 296 302 302 297 288 278 281 285 285 285 279 284 278 284 285 288 288 290 290 294 296 291 285 293 295 298 298 295 297 287 290 281 280
298 298 298 298 298 299 300 301 302 302 301 299 298 291 297 303 301 292 281 281 283 287 287 282 281 279 282 282 284 286 288 291 293 294 295 294 291 289 294 292 291 292 291 291 292 289 284
298 297 299 298 298 298 300 301 302 301 299 298 295 287 298 301 289 289 283 284 287 285 287 287 286 284 282 284 282 284 288 292 295 295 290 294 292 287 289 295 297 295 292 292 288 283 288
298 298 298 299 297 298 299 300 301 300 298 298 292 291 298 298 282 283 286 285 286 286 285 286 285 287 287 283 282 289 289 295 296 295 292 295 290 284 285 291 295 291 293 293 291 291 286
298 297 298 298 297 298 299 300 301 301 298 298 292 285 291 293 290 284 282 283 283 289 287 288 288 288 285 286 288 286 289 293 295 295 297 297 290 288 284 288 292 289 291 292 291 287 287
298 298 299 298 296 296 298 299 301 301 298 297 292 285 287 283 286 286 285 285 282 281 286 288 288 287 285 283 285 285 288 290 293 295 293 293 285 288 288 290 290 289 288 289 287 288 286
298 298 298 296 295 296 298 299 300 301 297 296 287 288 289 286 286 284 284 283 281 282 283 284 285 288 288 285 285 284 286 288 287 291 291 292 285 287 284 288 288 285 287 287 287 290 291
298 298 297 296 296 296 298 299 300 301 299 296 294 294 290 284 283 283 283 282 282 284 287 288 288 288 288 288 291 292 293 292 292 290 290 289 287 284 280 285 284 281 286 287 289 292 293
298 298 297 297 297 296 297 299 300 301 299 296 296 294 289 284 284 283 283 284 283 285 284 287 291 288 292 295 297 295 293 291 292 293 294 288 286 287 282 283 274 285 293 292 289 293 295
298 297 297 296 296 296 297 298 300 301 299 297 297 294 291 285 285 284 284 285 286 287 287 288 290 293 296 294 289 283 286 287 289 292 292 293 289 284 281 280 283 288 290 290 289 289 292
297 297 298 296 296 297 297 298 300 300 301 297 294 298 294 287 286 285 285 286 285 286 287 288 294 297 296 291 288 280 279 282 282 286 292 291 291 287 284 278 275 286 292 296 295 286 292
296 297 297 296 297 296 297 297 299 299 300 297 294 297 292 288 291 288 286 285 289 287 286 289 289 291 295 289 285 282 281 286 281 281 283 286 287 283 283 281 284 291 294 296 284 283 290
296 296 297 297 297 296 296 297 298 299 300 298 295 297 293 289 291 291 291 288 289 289 285 289 289 290 288 284 283 283 283 286 285 287 285 284 284 284 284 280 277 290 293 287 287 288 288
296 296 296 297 297 296 296 297 298 299 300 301 293 296 297 290 292 295 295 296 294 293 290 291 288 287 290 285 284 285 284 286 283 281 290 283 285 283 283 281 286 287 285 286 287 285 286

GFSGBSN_sfc_thetae_105.txt.gz
Theta_e
311 311 310 310 308 307 307 306 306 306 307 307 307 308 308 308 308 308 308 309 308 307 307 308 308 308 306 298 299 309 314 313 307 307 309 309 305 303 301 304 306 304 306 308 309 309 308
309 309 310 309 308 307 307 305 306 306 306 306 307 307 307 308 308 307 307 307 308 307 307 308 308 308 303 292 307 308 306 305 305 303 307 308 307 307 303 303 305 307 307 307 308 308 307
309 310 309 308 307 306 305 305 306 306 306 306 306 306 307 307 307 306 306 307 308 308 307 308 310 309 301 297 307 307 306 304 304 304 302 308 310 306 306 303 308 306 302 305 305 307 306
309 310 309 307 306 305 305 304 304 304 305 305 305 305 305 305 305 305 306 307 307 307 307 309 311 308 297 306 308 305 306 304 306 306 303 306 309 308 305 307 304 301 302 296 304 304 305
308 307 307 306 304 303 302 303 304 304 304 304 304 304 304 305 306 306 306 307 307 307 307 311 309 303 296 309 303 306 307 304 306 307 304 304 303 302 304 299 297 299 294 296 298 305 305
306 305 305 304 303 303 303 304 304 304 304 304 304 304 304 304 305 305 306 306 307 308 308 309 307 297 301 297 303 306 309 308 306 305 300 298 298 295 296 298 290 294 295 297 298 304 305
305 304 304 304 303 302 302 302 302 302 302 303 303 303 304 304 304 305 305 304 299 298 299 293 294 298 297 300 301 299 302 304 305 302 293 295 291 289 293 297 300 298 297 297 300 304 303
304 304 304 303 302 301 301 300 301 302 302 303 303 303 303 304 304 304 304 297 296 296 288 296 295 295 298 299 294 298 302 297 298 294 296 292 287 293 296 297 297 296 295 295 298 301 300
303 302 302 302 301 301 301 301 301 302 302 302 303 303 303 303 303 303 300 298 303 302 290 291 295 295 297 301 297 297 299 297 295 294 294 289 291 294 293 293 293 294 293 293 293 297 300
302 301 301 301 301 301 301 301 301 301 301 302 302 302 303 303 300 300 299 302 304 304 284 287 292 297 300 300 295 303 303 296 294 292 295 292 295 294 292 291 294 289 296 294 293 293 289
302 301 300 301 302 301 300 301 301 302 302 302 302 303 303 302 300 297 298 303 304 300 274 289 293 304 300 295 296 297 303 296 291 293 293 291 292 292 291 291 294 291 295 293 293 292 291
301 300 301 301 301 300 300 300 301 302 303 303 303 303 302 302 301 301 304 304 301 283 275 284 291 290 290 293 294 297 297 300 297 293 295 294 299 296 294 294 295 295 294 293 293 292 286
300 301 302 301 301 300 299 300 301 302 303 303 303 303 301 302 298 306 306 298 283 277 287 283 284 288 288 288 291 294 293 291 288 285 287 292 295 297 297 292 296 294 291 285 284 285 284
300 300 300 301 300 300 300 300 301 302 303 303 303 302 300 304 306 306 301 289 276 281 281 287 286 286 285 288 288 288 291 288 291 291 289 286 283 293 298 294 290 292 291 285 279 282 286
301 300 299 301 299 300 300 301 302 302 303 303 303 304 304 304 307 304 294 281 279 282 285 283 285 283 284 286 285 286 291 289 291 294 286 287 286 296 297 298 296 292 289 295 289 292 288
301 299 299 300 299 300 300 301 302 302 303 302 300 300 300 306 307 300 290 281 284 287 287 286 279 283 279 281 282 286 289 293 291 295 296 292 285 293 296 299 298 295 298 288 290 282 281
300 299 300 299 299 299 300 301 302 302 302 300 300 294 300 305 304 295 284 284 286 289 289 284 282 281 282 281 284 286 288 291 294 295 296 293 291 289 294 292 291 293 291 293 293 291 285
299 299 298 299 299 299 300 300 301 302 300 297 298 291 301 304 292 292 286 287 290 289 291 289 288 285 284 285 284 285 287 291 296 296 291 295 292 286 289 296 298 296 293 294 288 286 290
299 298 299 299 299 299 300 300 301 301 300 301 295 294 302 302 286 287 289 287 289 288 288 288 286 288 289 284 281 284 291 297 297 296 293 295 290 284 286 292 296 293 294 295 294 293 288
299 298 299 299 299 299 299 299 301 301 300 299 296 289 294 297 294 288 286 286 286 291 290 290 288 289 288 286 286 284 289 294 298 297 298 298 292 288 284 287 293 290 292 294 293 289 288
299 298 298 300 298 298 298 299 300 301 301 299 296 289 290 288 289 288 288 288 285 284 289 291 289 288 287 283 283 285 288 292 295 296 296 295 287 290 291 293 293 292 291 292 290 290 286
299 298 299 299 297 296 297 299 300 301 300 298 287 291 292 291 288 288 287 286 284 286 286 286 287 289 289 286 286 284 288 289 288 293 293 294 286 289 286 290 291 289 289 288 288 289 291
299 298 299 298 297 297 297 299 299 301 300 296 299 297 293 288 286 287 286 285 285 288 290 290 290 289 287 289 293 293 295 295 293 290 289 288 287 286 281 287 286 283 287 289 290 293 293
299 299 298 297 297 297 297 298 299 301 300 298 299 297 293 287 287 286 286 287 286 287 286 290 291 289 293 297 298 297 295 294 294 293 295 288 287 287 282 284 277 288 294 293 293 292 292
299 298 298 298 298 297 297 298 299 300 302 299 301 295 292 286 289 286 287 287 290 290 290 290 292 294 299 297 289 286 287 287 289 292 292 294 290 286 283 282 285 288 291 291 290 287 292
298 298 298 298 297 297 297 298 298 300 301 300 302 300 294 288 288 288 288 288 287 288 289 291 296 299 298 294 289 282 280 284 283 287 293 291 292 289 286 279 278 286 293 296 296 284 291
298 298 297 298 298 297 297 297 298 299 300 299 296 299 297 290 293 291 289 288 291 289 288 291 292 293 297 291 286 284 283 287 282 283 284 287 288 285 285 284 285 286 291 295 284 281 289
298 298 297 298 298 297 297 297 298 299 299 301 299 302 296 292 293 294 294 291 291 291 287 291 291 292 290 286 285 284 285 287 286 288 286 286 284 285 286 283 279 286 292 285 285 287 288
298 297 297 298 298 298 297 297 297 298 299 301 295 300 298 295 294 299 299 299 297 296 292 293 289 290 291 287 286 286 286 289 286 283 291 284 286 284 283 281 285 286 285 287 289 287 287

GFSGBSN_sfc_thetae_108.txt.gz
Theta_e
314 313 311 310 309 309 308 306 305 306 306 306 307 307 307 308 308 308 307 308 307 307 307 307 308 309 306 296 297 308 320 316 309 305 301 303 304 304 297 299 302 302 305 307 308 308 308
312 312 311 310 309 308 308 306 305 306 306 306 306 307 307 307 307 307 306 307 307 307 307 308 308 308 303 292 306 308 307 306 304 303 301 300 302 306 302 300 300 304 305 306 307 307 308
311 310 311 310 309 308 306 305 306 305 305 305 305 306 305 305 305 306 306 306 307 307 307 308 308 307 301 297 307 308 307 304 304 303 300 303 303 303 304 301 304 303 299 304 305 306 305
310 310 310 309 307 306 306 305 304 304 304 305 305 305 305 305 305 305 305 307 307 307 307 308 309 307 297 308 308 305 306 304 305 304 302 303 303 301 302 304 302 299 300 295 303 305 306
309 311 310 308 307 306 304 303 304 303 304 304 304 304 304 304 305 306 306 307 307 307 308 309 306 303 297 310 303 306 307 301 303 304 304 304 301 296 299 297 294 297 292 295 297 305 304
310 310 308 307 305 304 304 304 304 303 303 303 303 304 304 304 306 306 306 306 308 308 307 307 307 300 302 298 302 304 308 307 302 304 302 300 296 291 292 293 288 290 292 294 295 301 302
308 308 307 305 304 304 304 303 302 301 302 303 303 304 304 304 304 305 304 303 296 297 301 295 296 298 298 302 302 299 301 299 298 299 294 298 289 286 288 292 294 295 294 294 298 302 300
306 306 305 305 304 303 302 301 301 302 302 303 303 303 304 304 304 305 303 297 296 297 289 296 296 296 298 299 293 296 301 294 292 288 295 293 288 291 292 292 292 292 292 294 299 302 301
305 306 305 304 303 302 302 302 302 301 302 302 303 303 303 303 305 303 300 298 302 302 289 290 295 295 296 298 294 295 301 298 291 288 291 289 291 294 291 290 290 291 291 294 294 299 299
304 303 303 303 302 302 303 302 301 301 301 302 303 303 303 304 300 301 298 301 303 303 284 288 292 297 299 300 294 302 303 299 294 287 290 291 295 293 290 288 291 288 295 296 295 292 287
303 302 302 302 302 302 302 301 301 301 302 303 303 303 304 303 299 297 299 304 303 300 275 290 292 303 296 293 293 297 302 298 292 289 290 288 291 291 288 289 292 290 297 295 294 291 290
303 302 301 302 303 302 301 301 301 301 302 303 304 304 303 302 302 303 305 305 301 283 275 285 289 287 288 290 290 295 296 299 298 290 290 290 296 295 292 294 294 296 293 293 291 290 283
302 301 301 302 302 301 301 301 301 301 302 303 304 304 302 302 298 305 306 299 283 277 286 282 283 287 286 286 288 291 290 289 287 283 282 288 290 294 295 291 294 293 289 282 280 281 281
301 301 302 302 302 301 301 301 301 301 302 303 304 304 305 304 306 306 302 290 278 282 282 287 286 286 284 287 287 288 286 287 292 290 284 282 283 292 296 293 289 290 289 283 277 279 283
301 302 301 301 301 301 301 301 301 302 302 303 304 304 303 304 307 305 294 282 280 283 285 284 285 282 282 286 285 285 287 289 292 291 283 284 285 295 297 296 295 290 286 293 286 289 286
301 301 300 301 300 300 300 300 301 302 303 303 299 300 300 306 307 301 291 283 284 288 288 287 280 283 279 282 282 283 287 293 290 291 295 290 285 292 296 297 296 293 295 286 287 281 280
301 300 300 301 300 300 300 301 301 302 302 301 299 294 301 306 306 295 285 284 288 292 291 287 284 282 283 283 284 284 287 292 293 294 295 290 288 289 293 291 290 290 289 291 291 288 283
301 300 300 300 300 300 300 300 301 302 302 299 299 291 301 306 292 293 286 288 291 290 293 291 290 287 285 285 284 283 285 289 295 296 290 294 291 286 288 295 297 294 292 292 286 285 289
301 300 300 300 300 299 300 300 301 302 301 300 295 294 302 303 287 287 289 289 291 290 290 289 288 289 289 285 282 284 287 297 298 296 293 294 288 283 284 290 294 291 293 295 293 291 288
300 299 299 300 300 299 300 299 300 301 302 299 295 289 294 296 294 289 287 287 287 292 291 291 290 291 289 286 287 284 287 295 297 296 297 299 291 287 283 286 292 289 292 294 292 287 287
300 299 299 299 300 299 299 299 300 301 301 299 297 290 291 288 289 288 289 289 286 285 290 291 289 289 287 283 284 285 289 292 295 297 296 293 287 287 289 293 293 291 291 292 290 290 286
300 300 300 300 299 298 298 298 299 301 301 298 286 292 291 289 289 288 288 286 285 286 288 287 287 288 288 285 286 285 288 289 289 294 292 293 285 289 284 291 291 287 289 289 291 292 292
300 299 300 300 298 297 297 298 299 300 301 297 298 297 293 289 288 287 287 286 286 289 290 291 290 288 287 288 293 295 296 295 293 292 290 289 288 286 281 287 287 282 288 290 290 290 290
299 299 299 300 298 297 297 298 299 300 301 300 298 297 291 286 287 287 287 288 288 289 287 291 292 289 292 298 299 297 296 294 294 293 294 288 287 287 281 284 277 287 295 293 289 289 291
299 300 299 298 298 298 297 298 298 300 300 300 300 296 292 287 289 287 287 288 290 292 290 291 292 294 298 296 290 286 287 288 289 292 292 293 290 286 282 281 285 288 290 288 288 284 289
299 299 299 299 299 298 297 298 298 299 300 301 301 301 296 288 288 290 288 290 287 287 289 292 295 299 297 293 290 282 279 283 283 287 293 293 294 289 286 280 278 283 287 293 293 280 288
299 299 299 299 299 298 298 298 298 299 300 301 300 303 295 289 293 292 288 288 291 289 288 291 291 292 296 290 286 283 283 288 282 283 284 287 287 285 285 282 282 284 289 293 282 279 288
299 299 299 299 299 298 298 298 298 299 300 301 300 302 296 292 293 295 295 290 291 291 286 290 290 290 289 285 284 284 284 286 286 287 286 283 283 282 284 281 277 286 288 282 284 288 288
299 298 299 299 298 299 298 298 298 298 299 300 296 302 301 294 294 298 299 299 297 296 292 292 289 290 291 287 287 286 284 289 286 282 290 282 286 282 281 280 285 287 285 288 289 286 287

GFSGBSN_sfc_thetae_111.txt.gz
Theta_e
319 317 315 313 311 310 309 307 306 306 306 306 307 307 307 308 307 307 307 306 306 307 307 307 308 308 304 295 295 304 319 319 310 304 299 297 295 299 297 295 295 293 297 301 304 305 305
317 316 314 312 310 309 309 307 305 306 306 306 306 306 306 306 306 306 306 306 306 306 306 307 308 308 299 288 302 304 305 306 306 301 297 296 294 294 294 298 297 297 297 298 302 303 304
316 315 313 312 310 309 309 306 306 305 305 305 305 306 305 305 306 306 306 306 307 306 307 308 308 304 297 292 303 304 305 302 302 300 296 298 297 293 293 293 300 300 295 297 298 300 301
315 313 312 311 310 309 307 306 306 304 304 304 305 305 305 305 305 306 306 307 307 307 307 308 309 303 293 305 304 304 303 301 303 302 300 299 298 294 292 295 294 292 294 290 297 299 300
313 312 311 310 309 307 307 306 305 304 303 304 304 304 304 305 305 306 306 306 307 308 309 309 302 300 294 310 303 305 304 300 301 301 299 301 297 292 291 286 286 290 286 289 292 299 298
312 311 310 309 308 307 305 304 305 304 302 303 303 304 304 304 305 306 306 306 307 309 307 305 304 295 301 298 303 300 301 300 301 300 297 297 292 287 286 283 278 284 287 288 289 295 298
311 312 310 309 307 305 305 305 304 302 302 303 303 304 304 304 304 305 303 296 290 290 292 289 293 295 297 298 300 296 299 296 295 291 285 292 288 284 285 285 287 288 289 289 292 297 296
311 310 309 307 306 305 305 304 303 302 302 302 303 303 304 304 304 305 300 291 292 292 285 293 293 293 296 297 291 294 298 290 289 285 288 285 284 291 291 289 286 286 285 285 290 295 297
310 308 307 306 306 305 304 303 303 302 301 302 302 303 304 304 305 301 294 294 298 298 285 288 293 293 298 300 293 293 297 295 290 287 287 283 285 294 292 288 285 285 284 285 286 291 297
307 306 306 306 305 304 303 303 302 301 302 302 303 304 304 305 299 296 292 299 299 297 277 286 292 297 297 293 290 297 299 296 290 287 289 285 289 289 290 288 287 281 288 289 288 288 286
305 305 306 305 304 303 303 302 301 302 302 303 303 304 304 303 294 294 298 300 299 294 272 287 288 301 294 288 289 290 299 295 289 288 290 286 286 286 287 289 289 284 289 289 291 289 288
305 304 304 304 303 303 302 301 302 302 302 303 304 304 304 301 296 298 301 300 296 280 272 283 288 287 286 289 291 293 293 296 296 290 290 288 292 289 290 293 292 291 290 292 291 289 280
304 303 302 302 303 303 301 302 301 301 302 303 304 304 301 301 292 300 300 294 281 272 285 282 282 286 286 285 287 289 287 285 283 280 281 285 286 289 294 288 292 289 287 278 278 276 277
303 302 302 302 302 301 301 301 301 301 302 303 304 304 301 301 300 300 296 286 275 281 281 286 286 286 283 286 286 286 284 282 288 286 282 277 275 287 294 290 288 287 286 278 275 276 279
303 301 302 302 301 301 301 301 301 301 302 303 303 297 297 299 300 298 289 275 276 281 285 284 285 281 281 285 286 285 284 284 288 289 281 280 280 293 294 295 292 286 283 290 284 287 282
302 301 303 302 301 301 301 301 301 302 303 303 293 295 295 300 300 295 284 282 283 288 289 288 280 283 278 282 282 284 285 290 290 293 292 288 280 290 293 297 296 289 292 284 286 279 278
301 301 301 302 301 300 300 300 301 302 303 301 292 289 296 300 299 290 275 281 286 291 292 288 284 282 282 282 283 284 284 289 293 293 294 292 284 287 293 290 287 289 287 289 289 287 280
301 301 300 301 300 300 300 300 300 302 302 298 292 284 296 298 284 285 278 286 291 290 292 290 289 286 284 285 282 280 283 286 294 295 289 292 286 284 287 294 297 293 291 290 284 283 285
302 300 300 301 300 300 300 300 300 302 301 294 289 288 296 297 277 277 286 288 290 289 289 288 288 288 287 283 279 280 286 292 295 294 291 292 287 281 283 288 293 289 291 292 292 289 285
301 300 300 300 299 299 299 300 300 301 302 294 288 280 287 289 287 284 283 285 285 291 289 290 289 288 285 280 285 284 286 292 295 295 298 297 289 285 281 285 290 287 291 292 290 284 285
301 300 299 300 300 299 299 299 300 301 302 293 286 282 287 277 282 283 285 286 284 283 289 290 285 286 283 278 281 280 287 289 292 295 294 291 285 286 287 290 289 287 287 288 287 289 284
300 299 300 300 300 299 299 299 299 301 301 291 278 285 285 283 287 284 286 285 284 284 285 284 284 286 286 282 284 282 287 288 287 291 290 292 285 285 284 288 289 286 288 289 289 290 289
300 300 300 300 300 298 298 298 299 300 300 292 292 290 287 287 283 281 282 284 284 287 288 288 287 286 284 286 290 291 292 293 292 291 288 288 286 284 280 286 287 282 285 286 286 288 287
300 300 299 300 299 298 298 298 299 300 300 297 293 291 285 279 283 284 286 287 286 287 286 290 289 286 290 295 294 294 293 293 292 293 293 287 287 286 280 283 277 284 290 288 285 286 288
300 300 299 300 298 298 298 298 298 300 300 297 295 290 286 279 285 287 286 286 287 289 287 290 290 291 294 292 287 284 284 286 288 292 291 293 288 283 279 280 284 284 284 284 285 282 287
300 300 299 300 299 299 298 298 298 299 300 296 295 296 290 283 283 290 286 288 282 281 284 288 291 294 292 288 284 280 278 282 283 286 292 292 290 286 282 278 275 280 284 288 290 277 287
300 299 300 300 299 299 298 298 298 299 300 296 294 296 290 281 291 289 284 284 288 285 283 286 287 288 290 281 281 279 280 287 281 281 282 282 282 280 281 279 279 282 285 289 279 277 288
300 300 300 299 299 299 299 298 299 299 300 297 294 297 293 287 289 293 293 287 287 286 279 285 283 284 282 280 280 280 280 284 284 286 284 281 280 277 279 277 273 285 285 280 285 287 288
299 299 299 299 299 299 299 299 299 299 300 299 294 299 297 288 287 293 294 295 293 292 287 287 286 287 286 280 281 283 282 283 282 278 288 279 284 279 280 278 285 286 285 287 287 285 285

GFSGBSN_sfc_thetae_114.txt.gz
Theta_e
319 319 318 317 316 313 311 309 308 307 307 306 306 307 307 307 307 306 306 307 307 307 307 307 307 308 302 294 293 303 317 316 313 303 298 296 293 293 294 294 293 290 292 294 296 299 302
318 318 318 316 314 312 311 309 308 307 307 306 306 306 306 306 306 306 306 307 307 307 306 307 308 308 298 286 300 303 303 303 304 301 298 295 292 293 289 288 291 297 296 294 295 295 297
319 318 317 315 313 312 311 309 307 308 306 305 305 305 305 305 306 306 306 306 306 306 307 308 308 305 296 290 300 301 302 300 300 299 296 297 295 291 290 288 292 294 292 296 297 297 295
318 318 316 314 312 311 311 308 308 307 305 304 304 304 305 305 305 305 305 306 307 307 308 309 309 303 292 304 302 303 301 301 302 300 299 299 297 292 290 291 290 287 288 284 293 296 298
318 317 315 313 312 311 310 307 307 306 305 304 303 304 304 305 305 306 306 307 308 308 309 309 301 298 293 309 303 302 302 299 298 299 299 301 295 290 289 283 281 283 280 283 287 295 295
317 316 314 313 312 310 308 307 307 305 304 303 303 304 304 305 306 306 306 307 307 307 306 306 303 293 298 294 300 299 297 298 295 294 293 293 290 286 285 280 275 278 280 283 285 290 294
317 315 314 313 310 309 308 306 306 305 303 303 304 304 304 304 305 306 303 296 290 288 291 286 288 289 291 295 298 295 298 295 293 290 283 287 282 280 286 285 285 284 282 281 286 292 291
315 314 313 312 309 308 307 307 305 304 303 303 303 303 304 305 305 306 300 291 292 290 284 292 292 292 294 295 290 294 297 290 290 284 289 285 280 285 287 290 288 284 281 281 285 290 289
313 312 312 310 308 307 307 306 304 303 302 301 302 303 304 305 305 300 295 293 297 295 283 288 292 292 293 296 288 289 295 294 290 286 286 283 286 289 286 284 286 285 282 281 281 286 288
311 311 310 308 307 306 305 304 303 302 302 302 303 304 304 305 298 296 294 299 298 295 278 285 289 295 296 292 287 295 297 294 290 285 287 286 291 289 286 283 286 283 288 286 284 282 278
310 309 308 307 306 305 304 304 303 302 302 303 303 304 304 304 294 294 297 299 299 293 271 286 288 297 293 288 290 291 296 293 286 287 288 284 287 287 285 284 288 285 290 286 284 282 286
308 307 305 305 305 303 303 303 302 302 302 302 303 304 304 299 296 296 298 299 294 278 271 283 288 286 287 289 289 292 292 294 293 288 288 287 292 290 288 289 289 292 289 289 288 286 279
306 305 304 305 304 304 303 302 302 302 302 303 303 304 302 301 293 298 298 293 278 271 284 281 282 286 286 285 287 288 287 285 281 278 279 285 286 288 290 284 289 289 284 274 276 277 276
304 304 304 303 303 303 302 302 302 302 302 303 303 304 300 301 298 298 294 284 274 280 280 285 286 286 282 285 286 287 285 282 286 284 281 277 276 284 290 286 284 286 284 277 273 275 278
303 302 302 302 303 302 302 301 301 301 302 303 303 296 296 299 299 297 287 274 276 281 285 285 285 281 280 285 286 285 284 284 288 288 280 278 279 289 292 294 293 286 282 288 282 284 279
302 301 302 303 302 302 301 301 301 302 302 302 293 294 294 298 298 294 282 281 282 287 289 288 279 283 279 282 281 281 284 288 289 292 291 288 279 289 290 294 295 290 291 280 281 273 271
301 301 303 302 302 301 301 301 301 301 302 301 292 289 295 298 297 287 275 280 285 291 291 286 283 283 281 282 282 282 284 288 291 291 294 291 286 284 288 289 286 286 286 287 286 283 275
302 302 302 301 301 300 301 301 301 302 301 297 291 284 295 298 283 282 277 285 291 289 291 288 288 286 282 283 282 281 283 287 293 294 289 292 285 280 287 293 296 291 289 288 278 280 285
302 301 302 301 300 300 301 301 301 302 301 294 289 287 294 295 277 276 284 287 289 287 287 286 285 288 286 282 275 279 285 292 294 292 291 293 286 281 283 287 292 289 291 292 290 287 284
302 301 301 301 300 300 300 301 301 302 302 293 287 280 285 288 285 283 282 284 284 289 288 288 287 285 282 276 281 278 283 290 293 293 298 296 287 283 278 283 287 286 289 291 289 283 281
301 301 301 300 300 299 300 300 300 301 302 293 284 281 286 277 281 282 283 285 283 282 287 287 283 284 281 273 278 277 285 288 292 294 292 290 283 285 288 288 288 285 288 288 287 286 281
301 301 301 300 300 299 299 299 300 301 301 291 280 284 284 282 287 282 283 283 282 283 283 282 282 285 283 280 281 280 284 286 285 290 288 291 284 285 283 287 286 283 285 286 287 286 284
301 300 300 300 300 299 299 299 300 301 299 290 290 289 285 285 282 279 280 282 283 285 287 287 286 284 282 284 288 289 289 289 290 288 287 286 285 283 279 285 285 278 282 283 284 285 286
300 299 299 300 300 299 298 299 300 300 300 293 291 289 283 278 281 281 286 285 285 286 284 288 287 284 288 292 292 292 290 291 291 292 293 287 285 285 280 283 273 281 287 286 283 285 285
301 300 299 300 299 298 298 299 299 300 300 295 293 289 284 277 284 286 286 286 286 286 285 287 288 289 291 289 285 283 283 284 288 291 290 291 288 282 280 279 281 281 282 281 282 280 286
301 301 300 300 299 299 299 299 299 300 300 294 293 293 287 281 281 289 284 285 280 280 282 286 290 290 289 285 281 278 278 281 282 285 291 290 289 284 282 276 272 278 283 286 287 276 286
301 300 300 300 299 299 299 299 299 300 301 295 292 293 288 280 286 287 283 282 286 283 281 283 285 286 287 278 278 277 278 286 280 280 281 281 282 278 280 277 278 281 285 289 277 277 286
300 300 300 300 300 299 299 299 300 300 301 295 292 294 289 282 285 291 292 285 286 284 277 283 281 283 281 278 278 278 279 283 282 285 283 281 279 276 279 275 272 284 284 280 283 286 286
300 300 300 300 299 299 299 299 300 300 300 298 290 296 294 286 285 291 292 293 292 290 285 285 287 286 284 278 282 281 280 281 281 275 287 278 281 278 279 277 284 285 285 286 286 284 283

GFSGBSN_sfc_thetae_117.txt.gz
Theta_e
322 321 320 318 317 317 315 313 311 309 308 307 307 307 307 307 307 307 307 307 307 308 307 307 308 309 301 290 289 300 312 308 307 304 297 294 292 292 292 290 290 287 289 291 293 293 293
321 320 319 318 318 317 315 313 310 309 308 307 307 306 306 306 306 306 306 307 307 307 307 307 308 308 297 284 297 301 301 302 301 300 297 295 292 292 288 287 288 292 290 290 292 294 295
321 320 319 317 317 316 315 313 311 308 308 307 306 305 305 305 305 306 306 306 306 307 307 308 308 305 296 292 301 302 302 301 301 299 295 297 294 290 289 286 290 290 285 287 289 291 293
321 320 319 317 316 314 313 312 310 308 308 307 305 305 304 304 305 305 306 306 307 308 308 308 308 303 292 304 302 303 301 300 301 300 298 298 297 292 289 290 288 285 284 279 287 290 292
321 320 318 317 315 313 312 311 310 308 307 306 305 304 304 305 305 305 306 306 308 309 309 309 301 297 291 308 302 302 298 297 296 296 295 300 294 289 287 282 280 280 277 280 283 288 290
321 320 318 317 315 313 312 311 308 308 307 305 304 304 304 304 305 306 306 307 306 306 307 306 303 292 295 292 297 298 297 297 293 293 291 289 287 284 282 280 276 278 277 278 278 284 288
321 320 318 317 314 313 311 309 308 307 306 304 303 303 304 304 305 306 303 294 288 287 290 285 289 289 290 293 296 294 296 294 292 288 282 285 280 276 279 283 285 284 282 280 282 286 285
320 319 318 315 314 312 310 309 308 307 305 304 303 302 303 304 305 306 296 290 290 290 284 290 291 290 293 293 289 292 295 289 289 283 287 284 279 285 286 285 283 283 282 281 284 287 286
319 317 316 314 313 311 309 308 307 305 304 303 302 302 303 304 305 297 292 292 296 295 283 288 292 291 293 293 288 287 293 292 288 285 285 282 284 289 287 284 282 281 279 282 283 286 285
317 315 314 313 312 310 308 307 306 304 303 302 302 303 304 304 296 292 292 298 297 296 277 284 289 293 293 292 287 294 294 291 289 284 285 284 288 288 287 285 285 279 285 285 286 284 276
315 314 312 311 310 308 308 306 304 304 303 303 303 303 304 304 291 291 295 298 298 293 272 286 287 295 293 288 289 289 295 292 285 285 286 282 284 285 283 285 288 283 287 287 285 283 279
313 312 310 309 308 307 306 304 304 303 303 303 303 303 304 299 293 294 297 297 294 278 272 282 287 286 286 288 288 290 291 293 291 286 286 285 290 288 287 288 289 289 288 288 286 282 272
311 310 308 307 306 305 305 303 303 303 302 302 302 303 302 300 292 296 297 292 277 272 284 281 282 286 285 284 286 288 287 285 281 278 278 284 285 288 290 285 288 286 283 275 271 271 275
309 307 306 306 305 304 303 302 302 302 302 302 303 303 300 299 297 297 293 284 275 280 280 285 285 285 281 284 285 286 284 282 288 284 281 276 276 283 286 285 281 282 283 277 271 274 277
307 305 304 304 303 302 302 302 302 302 302 302 303 295 294 297 298 296 285 274 277 280 284 285 284 281 280 283 283 283 283 284 288 290 281 280 279 287 291 292 289 285 280 286 280 283 278
303 303 303 303 302 301 301 301 302 301 302 302 292 293 294 298 299 292 282 280 282 287 289 287 279 282 274 280 277 281 283 288 289 293 293 287 281 288 290 292 293 289 290 280 280 275 274
302 302 303 303 301 301 302 301 301 302 302 301 292 289 295 298 296 285 275 279 285 290 290 285 282 280 279 277 280 281 283 288 292 291 293 290 287 283 288 286 286 287 284 285 286 284 277
302 303 302 302 301 301 301 301 302 302 302 296 292 284 294 296 283 280 278 285 290 288 290 287 286 285 280 280 282 281 281 286 292 292 288 292 286 280 284 291 295 291 286 286 278 279 284
302 302 301 301 301 301 301 302 302 302 301 293 288 287 293 294 278 277 284 287 288 286 286 285 283 285 284 276 275 278 283 291 292 290 288 292 286 279 282 288 292 288 290 289 288 287 280
303 302 301 301 300 300 301 301 302 302 301 294 288 280 285 289 285 283 282 283 283 288 286 287 285 284 280 275 281 277 281 289 291 291 296 294 287 283 278 282 287 286 289 290 287 280 279
302 302 302 301 300 301 301 301 301 302 301 293 286 281 286 278 281 282 284 284 281 280 285 285 281 282 279 272 276 276 281 286 289 292 290 291 283 284 284 285 285 285 289 287 285 284 279
302 302 301 301 300 300 300 301 301 301 300 291 284 284 283 283 286 283 283 282 281 281 282 280 281 284 282 280 280 278 282 284 283 288 287 290 284 285 282 284 283 280 283 284 283 282 281
301 301 301 301 299 300 300 300 301 301 298 290 290 289 285 283 281 280 280 282 282 284 286 286 284 282 281 283 286 287 287 287 288 286 285 285 284 283 280 285 284 276 280 281 282 284 285
301 300 300 300 299 299 299 300 300 301 299 293 290 288 283 279 281 281 285 284 284 285 283 286 285 283 287 290 290 289 288 288 289 289 289 286 285 284 280 283 272 280 285 285 282 283 284
301 300 300 300 299 299 299 300 300 301 300 294 292 288 284 279 283 285 285 284 284 285 284 285 286 288 289 287 284 282 282 283 287 289 288 289 286 283 279 277 279 280 281 281 281 279 284
301 301 300 301 300 299 299 299 300 301 301 295 292 291 287 282 282 288 283 284 280 280 281 284 289 289 287 283 280 278 277 281 280 283 289 288 287 284 282 276 272 278 282 286 286 275 285
300 300 301 300 300 300 299 299 300 301 301 295 292 292 288 282 286 286 282 282 284 282 280 282 284 285 285 277 277 277 278 285 277 279 280 281 281 278 279 276 277 280 283 288 277 276 286
300 300 300 300 299 299 299 300 300 301 301 295 292 294 289 282 285 289 290 285 284 282 277 282 279 282 279 276 277 277 277 281 282 283 282 279 278 276 278 274 272 283 283 279 282 284 285
300 300 300 300 299 299 299 300 301 301 301 297 290 295 292 286 284 289 291 292 291 289 284 286 286 284 283 277 281 279 278 280 280 275 286 277 280 278 278 276 282 284 283 285 285 281 280

GFSGBSN_sfc_thetae_120.txt.gz
Theta_e
324 323 322 321 319 318 318 317 315 314 312 309 308 307 307 307 307 307 307 307 307 307 307 307 308 309 299 287 287 297 310 307 302 301 296 293 290 291 290 287 290 288 287 290 290 290 290
323 322 322 321 319 318 318 317 315 313 311 308 308 307 307 306 306 306 306 306 306 306 307 308 308 308 294 283 295 299 302 301 299 297 295 294 291 291 287 285 285 288 287 287 288 288 289
324 322 321 320 319 318 317 316 315 312 310 308 308 307 305 305 305 305 306 306 306 307 307 308 307 304 294 289 298 300 302 298 299 298 294 296 295 291 289 286 290 288 284 287 287 285 286
324 323 321 320 318 317 316 316 314 312 309 309 308 306 304 304 305 305 306 306 307 308 309 308 308 299 289 302 301 303 299 296 300 299 297 298 296 291 288 289 287 283 282 278 285 286 287
320 323 322 320 318 317 316 315 313 312 309 308 307 306 304 304 305 305 306 306 307 309 309 309 299 295 289 305 299 298 297 294 295 294 295 299 293 288 286 281 279 279 276 278 281 286 285
317 320 322 320 318 317 316 315 312 311 310 308 306 304 304 304 304 306 306 306 307 307 306 305 302 289 292 291 295 296 295 296 292 292 291 288 285 282 280 279 275 276 276 276 278 282 286
316 317 321 320 319 317 316 314 311 310 309 307 305 304 304 303 304 305 301 291 286 285 289 284 287 290 289 293 294 292 294 293 291 287 281 284 280 277 279 281 283 281 280 279 282 286 285
313 315 318 321 319 317 316 313 310 309 308 306 304 304 303 303 304 305 293 288 287 287 281 289 289 289 292 292 288 290 294 287 288 282 285 283 278 284 285 284 281 280 278 278 282 286 285
312 313 315 320 319 317 315 312 310 308 307 305 304 303 303 303 304 296 291 291 295 292 282 287 290 290 291 292 287 287 291 290 286 283 284 280 282 287 286 284 282 281 279 279 278 282 284
313 312 314 319 318 315 313 311 309 307 305 304 303 304 304 303 296 291 291 296 295 292 276 282 287 291 291 291 286 292 292 290 287 283 284 282 287 285 285 284 284 278 284 284 282 280 275
315 313 313 317 316 312 311 309 308 306 305 303 304 304 304 303 291 289 295 297 296 291 271 284 286 293 292 287 289 289 294 291 285 284 284 281 283 283 282 283 286 282 287 285 283 281 281
315 314 314 316 313 310 308 308 306 305 303 303 304 304 304 298 293 294 296 297 293 278 272 282 286 285 286 287 287 290 290 292 290 285 284 284 287 285 285 287 287 288 285 284 284 282 275
314 314 316 313 311 309 307 306 305 303 303 303 304 304 302 299 291 295 295 291 277 272 283 280 281 285 283 283 285 287 285 284 281 280 279 282 283 286 288 283 286 284 280 272 270 270 274
315 315 313 311 308 307 306 305 304 304 304 303 304 303 302 298 296 295 292 282 274 279 279 284 285 284 281 284 284 284 283 281 286 285 281 276 276 282 287 285 281 281 280 274 271 273 276
315 312 310 308 307 306 305 304 304 303 303 303 303 294 293 295 297 295 285 273 276 279 284 284 284 280 280 282 282 282 282 282 287 289 281 280 279 287 289 289 287 281 279 284 279 280 277
307 308 307 306 305 304 303 302 302 302 303 303 293 293 293 297 298 291 282 279 280 287 288 286 279 282 275 279 276 279 281 286 287 292 293 287 279 288 290 291 290 286 290 280 279 273 273
301 300 301 302 302 301 301 301 300 302 303 301 292 288 295 297 296 285 277 280 285 290 289 284 281 280 279 276 277 280 282 287 291 290 291 290 286 284 288 285 283 285 283 285 285 282 276
302 301 301 300 300 300 300 301 302 302 303 297 291 283 293 297 284 282 280 284 290 287 289 287 286 283 278 279 277 276 279 286 292 290 285 290 287 280 284 291 292 291 285 285 277 276 281
300 300 300 301 301 300 300 301 302 303 301 293 287 287 294 293 280 278 284 286 288 286 286 285 283 284 281 276 271 273 281 288 291 289 288 290 286 279 279 287 290 287 288 289 287 284 280
301 301 301 301 301 301 301 301 302 302 302 294 287 280 286 288 285 283 283 283 283 287 286 286 284 283 279 272 277 272 280 287 290 289 294 294 286 280 275 279 286 283 287 289 286 277 277
301 301 300 300 301 301 301 301 302 302 301 292 284 282 287 280 282 283 284 284 281 281 285 285 282 282 278 271 274 276 280 284 288 291 290 290 283 284 283 283 283 282 284 286 283 282 277
301 301 301 301 301 301 301 302 301 302 300 289 284 284 284 284 285 283 284 282 281 281 281 280 281 282 282 279 279 276 280 282 283 288 286 290 283 285 281 286 282 278 280 282 283 281 279
301 301 301 300 301 301 300 301 301 301 298 290 289 289 286 283 282 282 281 283 282 283 285 285 283 282 281 282 284 285 286 286 287 285 284 285 284 282 277 283 282 276 279 279 281 281 282
301 300 300 299 300 300 300 300 300 300 299 293 291 287 284 279 281 281 285 284 283 284 283 285 284 282 285 288 288 287 286 285 286 287 288 285 285 283 280 282 271 279 285 284 280 281 282
301 300 300 299 299 299 299 300 300 300 300 293 291 288 285 280 283 284 284 284 284 284 283 285 285 286 287 286 283 282 281 282 284 288 286 289 285 283 278 276 279 280 281 281 281 278 282
300 301 300 300 299 298 299 300 300 301 300 294 291 291 288 284 282 287 283 284 280 280 281 283 287 288 286 282 279 278 276 280 280 282 287 287 286 284 280 276 272 277 281 285 285 275 282
300 300 300 300 299 299 299 299 300 301 300 294 291 292 289 283 285 286 282 282 284 282 280 281 283 284 284 276 277 277 278 283 278 278 279 280 281 278 279 276 277 280 284 287 277 275 283
299 299 300 300 299 299 299 300 301 301 300 295 291 293 289 284 284 289 289 284 284 282 277 280 278 280 278 276 277 277 277 280 279 282 280 277 277 276 278 275 272 283 284 279 282 284 284
299 299 300 299 299 299 299 300 301 301 300 297 290 294 292 286 285 289 290 290 290 288 283 283 282 283 282 276 277 278 277 278 280 273 283 277 279 277 277 276 282 283 282 283 282 280 281

GFSGBSN_sfc_thetae_123.txt.gz
Theta_e
325 325 324 322 322 321 320 319 317 316 315 314 312 309 308 308 308 307 306 306 307 307 307 308 309 310 300 291 290 299 310 307 304 303 299 297 294 295 291 292 293 292 292 291 292 292 292
322 324 323 322 322 321 321 319 317 316 315 313 311 309 308 307 307 306 306 306 306 307 307 308 308 309 296 288 298 303 304 303 303 301 299 298 295 294 291 289 288 290 290 290 292 291 292
317 320 323 322 321 321 320 318 317 316 315 312 310 309 308 307 306 305 306 306 306 307 308 308 307 304 295 292 302 304 304 301 302 301 296 299 298 295 292 289 292 291 287 290 290 290 290
314 316 318 321 321 320 319 317 317 316 314 311 310 308 307 306 305 305 305 306 307 308 309 309 308 302 290 303 305 304 304 299 303 302 300 299 298 295 293 293 290 287 287 282 288 290 290
312 312 315 316 318 319 318 317 316 316 314 312 310 308 307 305 305 305 305 306 308 309 309 309 301 297 292 306 299 300 302 297 297 297 298 299 297 293 291 287 285 284 281 282 285 290 290
312 311 313 314 316 320 319 317 316 315 313 311 310 308 306 305 304 306 306 306 310 308 306 305 302 291 295 292 296 297 299 298 295 295 294 292 290 288 287 286 278 280 281 283 282 287 288
312 311 312 313 314 317 320 318 316 314 312 310 309 307 305 305 304 306 299 296 290 289 296 289 289 291 291 294 296 295 297 296 294 292 286 289 285 282 284 286 286 285 283 281 284 288 286
311 310 311 312 313 315 319 319 316 313 311 310 308 306 305 304 304 305 296 290 289 292 286 290 290 290 293 294 290 293 297 291 291 286 288 286 282 287 287 286 284 284 281 281 285 288 287
311 309 309 311 313 314 317 320 315 311 310 309 306 305 304 304 304 298 294 294 297 296 286 288 291 291 293 293 289 290 294 292 289 285 286 283 285 288 286 285 283 283 282 283 282 286 288
308 308 309 310 312 313 315 318 314 311 309 307 306 305 304 304 299 296 295 299 297 296 283 285 288 292 293 293 288 294 295 293 289 285 286 285 288 286 285 283 285 281 287 285 284 283 278
307 308 309 311 311 311 313 316 312 310 308 306 304 303 304 304 294 292 297 299 297 294 274 285 288 296 294 290 290 291 296 293 287 286 286 285 285 285 284 285 288 284 288 286 285 283 282
307 307 310 313 313 311 312 315 310 308 306 304 304 304 304 298 296 298 299 300 296 282 274 282 287 287 287 289 289 292 292 295 292 287 287 286 290 288 287 288 288 289 286 286 286 283 276
304 306 313 315 314 312 314 311 308 306 305 305 305 305 302 300 293 298 299 294 281 277 284 281 283 286 285 285 286 288 286 287 285 282 282 285 286 289 289 285 288 287 283 277 276 277 276
303 310 315 314 313 311 312 308 306 305 304 304 304 304 301 299 299 299 296 285 276 280 280 286 286 285 282 285 285 286 285 283 288 287 282 280 280 286 289 287 284 285 284 278 271 274 276
302 314 313 313 312 313 309 306 304 304 304 304 303 296 297 298 299 297 289 279 279 280 284 284 285 281 281 284 284 284 283 284 288 290 282 282 281 289 289 290 290 284 281 286 280 281 277
302 311 313 311 310 308 306 305 304 304 304 302 294 294 293 298 299 294 284 280 282 288 288 286 280 283 279 281 281 282 282 287 288 292 292 286 282 289 291 292 292 289 290 282 282 274 274
302 301 306 308 306 305 304 304 304 303 302 302 295 290 295 299 297 288 280 281 286 290 290 286 283 282 281 280 281 281 282 287 291 290 291 289 286 285 289 287 286 287 285 286 286 283 277
302 301 300 299 303 303 303 303 302 301 302 299 293 284 295 298 287 284 281 285 291 288 290 288 287 285 282 282 282 281 281 287 292 290 286 290 287 281 285 291 293 292 288 288 281 280 283
302 301 301 300 299 299 300 301 300 300 300 295 289 288 295 295 281 282 285 287 288 287 287 286 285 286 284 280 277 278 282 289 290 289 288 290 285 279 280 286 289 288 290 291 288 286 279
300 300 299 300 301 300 300 300 300 301 301 295 288 282 288 290 287 285 284 284 284 288 287 287 285 285 282 277 280 277 282 287 290 289 293 293 285 280 276 279 283 282 286 289 288 282 278
300 300 300 300 300 300 300 301 302 302 301 293 287 284 289 283 284 285 286 285 283 282 286 287 285 284 282 275 278 278 282 285 288 291 290 291 284 285 284 284 282 280 282 284 281 282 278
300 299 300 300 300 301 301 301 302 302 300 290 286 285 287 285 287 286 286 283 282 282 284 282 283 284 284 282 281 279 282 284 285 289 288 291 284 285 281 285 283 278 280 282 282 280 279
300 299 300 301 301 301 302 302 302 301 298 291 290 290 289 284 284 284 284 283 283 286 287 286 286 285 283 284 286 288 288 288 288 285 285 286 286 284 279 284 283 276 278 280 280 281 282
301 300 301 301 300 301 301 301 301 300 299 294 292 289 286 281 283 283 285 285 284 285 284 286 287 285 287 290 290 289 287 286 287 287 288 285 284 285 281 283 273 280 285 283 280 281 281
301 300 300 300 300 300 300 300 301 300 300 294 292 290 287 281 284 285 285 284 285 286 285 286 287 288 290 288 286 284 284 285 286 288 288 288 285 283 279 277 279 281 281 281 281 278 282
300 300 300 300 299 299 299 300 301 301 300 294 292 292 290 285 284 287 284 285 282 282 283 285 288 290 289 285 284 280 278 281 281 283 289 287 287 284 281 277 274 278 282 286 286 276 282
300 300 300 299 298 299 299 300 300 301 300 295 293 293 291 285 287 288 284 284 285 284 282 283 285 286 287 283 281 280 280 284 279 278 279 281 281 279 280 277 277 281 283 287 277 278 282
300 301 300 300 299 299 299 300 301 300 300 295 293 294 291 286 287 291 290 286 285 284 280 283 283 284 283 280 281 280 281 283 282 282 281 278 278 277 279 276 274 283 285 280 282 284 283
300 300 300 300 299 299 300 300 301 301 300 297 291 294 293 289 288 291 292 293 292 289 286 286 285 285 285 282 282 283 282 282 282 276 285 279 281 279 279 277 282 283 282 284 286 284 283

GFSGBSN_sfc_thetae_126.txt.gz
Theta_e
320 321 326 325 324 323 323 322 319 318 317 316 315 314 311 309 308 308 308 307 308 308 308 309 310 311 307 297 295 305 312 313 308 305 301 299 297 296 293 295 296 294 296 297 297 297 297
317 318 320 324 323 323 323 322 320 318 316 316 314 313 310 309 308 307 307 307 307 308 308 309 310 310 303 293 304 309 309 306 305 304 302 301 298 299 295 294 293 295 294 295 296 296 297
315 316 317 318 320 322 322 321 319 318 317 316 314 312 310 309 308 306 306 307 307 308 309 309 309 307 300 297 308 310 308 304 305 303 300 302 302 298 297 294 297 295 292 295 295 294 294
313 313 314 314 315 317 320 320 319 318 317 316 314 311 310 309 307 305 306 306 307 308 310 310 309 306 296 306 310 306 306 303 304 304 302 303 303 300 297 298 295 292 293 289 292 294 294
314 312 312 313 313 313 315 318 319 318 317 316 313 311 310 308 307 306 305 306 309 310 310 309 306 302 295 307 301 303 304 299 301 302 302 302 301 297 296 293 291 292 288 288 290 294 293
314 313 312 313 313 312 313 315 318 317 317 315 313 311 310 308 306 305 306 306 310 310 309 308 306 298 299 296 300 301 303 301 299 300 298 297 297 293 294 291 285 286 286 288 288 291 293
312 314 314 313 313 312 312 314 315 317 316 314 312 311 309 307 306 306 306 308 299 297 301 296 295 295 296 300 301 299 301 299 299 296 292 294 291 289 291 291 290 288 287 286 290 293 290
311 312 313 313 313 312 311 313 313 316 316 314 311 310 308 306 306 306 303 296 297 297 292 294 294 295 297 299 294 297 301 295 294 291 292 292 289 291 291 290 288 288 286 287 290 292 291
310 311 311 312 313 313 312 312 312 315 315 312 311 309 307 307 306 301 298 297 302 300 292 291 295 295 297 298 293 294 297 296 293 290 290 289 290 291 290 290 288 289 287 287 287 290 292
310 308 308 309 310 310 310 311 312 313 314 311 309 307 306 306 300 298 295 301 301 302 288 289 292 295 297 297 292 297 299 296 294 290 290 291 292 290 290 288 289 285 291 289 287 286 283
309 308 307 307 307 308 309 310 311 313 315 311 308 306 306 304 298 296 299 300 302 301 277 290 291 300 297 293 294 294 300 297 292 291 291 290 290 290 288 289 290 287 291 289 288 287 287
309 308 306 306 307 307 308 309 310 311 314 310 307 305 305 300 302 299 302 301 301 283 276 284 290 290 291 292 293 295 296 299 297 292 293 292 295 292 292 292 292 292 290 290 290 288 281
307 307 305 305 306 308 309 309 310 310 312 308 306 305 303 300 299 302 303 298 282 279 286 283 286 289 290 289 290 292 292 292 292 287 288 291 290 293 293 290 292 290 287 283 280 281 280
307 306 305 305 309 311 312 311 310 311 308 305 304 304 302 302 303 303 300 288 278 285 284 289 289 289 286 289 289 290 290 289 293 291 290 287 284 290 294 291 289 289 288 282 275 278 281
306 305 304 310 314 314 313 312 311 308 305 304 303 299 299 299 303 304 292 281 284 285 287 286 287 285 285 287 289 289 289 290 291 292 284 284 286 293 293 295 293 289 285 290 284 286 282
305 303 302 310 312 313 312 310 309 305 304 303 296 295 296 301 305 301 290 284 285 289 290 290 284 286 283 286 286 288 289 292 291 294 295 289 283 292 293 295 295 292 294 284 286 278 277
304 303 302 309 311 311 310 307 305 304 303 302 296 288 297 303 304 294 286 287 288 292 292 288 285 285 286 285 287 287 287 291 293 292 294 291 288 288 292 290 288 290 289 288 288 287 280
303 302 301 302 307 306 305 304 304 302 302 299 293 284 297 302 290 291 287 288 292 290 293 290 290 288 287 286 286 286 286 290 295 293 289 292 289 284 287 294 296 294 290 290 284 282 286
302 302 302 300 302 304 304 303 302 303 302 297 288 287 298 298 283 286 288 290 291 290 290 289 288 289 289 286 284 286 287 292 293 292 291 293 287 283 285 291 291 288 290 292 291 291 285
300 302 302 302 300 299 301 302 302 302 301 298 289 283 288 292 292 288 287 287 286 291 290 290 289 290 287 284 284 283 286 290 292 293 293 295 289 284 281 280 285 282 286 290 288 286 284
300 299 300 301 301 300 301 300 301 302 300 298 290 287 289 283 287 289 290 288 285 285 290 291 287 288 286 281 283 283 286 289 291 293 294 293 285 285 286 286 285 283 283 285 283 284 282
300 300 299 299 299 301 301 301 302 302 300 296 287 288 292 290 290 289 289 288 287 286 287 286 286 288 288 284 285 283 286 289 290 293 293 293 286 287 284 287 285 281 283 284 283 282 281
299 300 299 300 299 299 299 300 301 301 299 295 294 294 293 289 289 289 288 288 287 288 289 290 290 288 286 288 290 291 291 291 292 291 289 289 287 286 283 285 285 279 280 282 283 284 284
299 300 299 301 301 301 301 302 301 301 300 297 295 296 291 286 289 288 288 289 288 288 288 290 291 288 290 294 294 294 292 291 292 292 293 288 287 286 285 285 277 281 286 285 282 283 284
300 300 301 301 301 301 300 300 301 301 300 299 298 297 293 289 290 289 289 289 290 291 289 288 289 292 295 292 290 287 288 289 290 292 292 292 288 286 283 282 281 282 284 283 283 280 284
301 301 301 300 300 300 300 301 301 301 299 300 298 300 298 291 289 291 289 290 287 288 288 288 292 295 294 290 289 282 281 284 284 287 292 290 292 286 285 279 277 282 284 287 288 280 284
300 301 301 300 299 299 300 301 301 301 299 302 298 300 299 292 292 293 289 288 291 289 287 288 289 290 292 288 286 284 284 288 283 282 283 285 286 284 284 281 281 284 286 289 279 279 285
300 301 300 298 298 299 300 301 301 301 300 301 297 300 300 294 293 294 293 291 290 290 285 289 288 289 289 286 286 286 286 287 286 285 284 283 283 283 284 281 278 285 286 283 285 287 287
300 300 300 299 299 299 300 301 301 301 301 300 297 300 302 296 293 297 296 296 295 294 291 290 289 290 291 289 289 290 286 288 286 281 288 283 286 285 282 281 285 286 287 290 290 287 286

GFSGBSN_sfc_thetae_129.txt.gz
Theta_e
317 318 320 321 325 324 324 323 321 319 318 318 317 316 315 313 310 310 309 309 308 308 309 309 310 311 311 302 300 308 313 314 310 307 304 302 300 300 297 298 299 297 299 300 301 300 299
316 317 318 319 318 324 324 323 321 319 318 317 316 316 315 312 310 309 309 308 308 308 309 310 311 310 308 296 307 310 309 308 307 306 304 304 301 302 299 298 297 299 298 298 299 299 300
314 315 315 316 316 317 321 322 321 320 318 317 316 315 314 312 310 309 308 307 308 308 309 310 311 310 303 300 309 312 308 305 306 305 302 304 304 301 301 297 300 298 295 298 299 298 296
314 314 314 314 314 314 315 316 320 320 318 317 316 315 312 311 310 309 307 307 307 309 310 311 311 310 299 308 312 308 307 305 306 306 304 305 305 302 300 302 299 296 297 293 297 297 299
312 315 315 314 314 313 313 313 315 317 319 318 316 314 312 310 309 308 306 306 308 311 310 310 309 306 299 306 304 306 306 302 303 304 305 304 303 301 300 296 294 297 291 293 294 299 297
311 312 314 315 313 313 313 313 313 314 317 318 316 314 311 310 308 307 306 306 311 309 310 310 307 300 301 299 303 303 306 304 301 302 300 300 299 297 297 295 289 290 290 292 291 296 296
310 310 312 314 314 314 314 313 312 312 314 317 316 313 311 310 308 307 304 306 301 302 305 301 300 298 300 303 304 301 304 302 302 300 295 299 294 292 295 295 293 292 290 290 293 296 294
309 310 310 311 312 313 313 314 312 312 312 314 316 313 311 309 307 307 305 299 296 297 294 302 299 299 301 303 297 300 304 298 298 294 297 294 292 296 294 293 292 291 290 290 294 295 294
310 309 309 309 310 311 311 312 312 312 312 312 314 313 310 307 307 304 302 298 302 302 291 298 298 297 299 300 296 298 300 299 296 295 295 293 295 295 293 293 291 292 291 291 290 293 294
309 309 310 310 310 310 310 310 310 311 311 311 312 312 308 306 299 302 296 301 302 303 286 293 292 296 299 299 294 301 302 300 297 294 294 294 297 293 293 291 292 289 294 292 290 289 286
308 308 309 310 310 309 308 308 308 309 310 310 313 310 306 303 301 298 302 303 304 303 278 294 295 303 300 295 297 296 303 300 295 295 295 294 293 293 291 292 293 290 294 292 291 290 290
306 308 308 308 309 309 308 307 307 308 309 310 312 308 305 302 303 304 303 305 301 283 277 288 293 292 293 294 295 298 298 301 301 296 297 295 299 295 294 294 294 295 293 294 293 291 284
306 307 307 308 308 307 307 307 307 307 308 310 311 307 303 304 298 303 306 299 282 279 292 287 287 291 291 290 292 294 294 294 293 288 290 294 294 296 296 292 296 294 292 286 284 284 283
306 306 307 308 307 306 306 307 308 310 308 309 309 305 304 305 304 305 303 291 278 290 289 291 290 290 288 292 291 292 293 292 296 294 292 289 286 293 296 294 292 292 291 285 278 280 283
304 305 306 307 306 307 307 308 312 311 308 309 307 300 299 302 304 302 295 283 287 292 292 289 288 286 288 289 290 291 291 292 295 296 290 288 288 296 295 296 295 292 288 294 286 288 284
305 305 306 305 306 308 310 311 313 311 309 307 298 296 296 303 304 301 289 288 294 294 294 292 286 289 285 287 287 289 290 295 293 297 298 293 286 294 296 297 297 294 296 287 287 279 279
303 304 304 304 306 308 311 312 310 309 307 304 297 290 297 305 302 294 284 289 293 294 294 290 289 287 288 287 289 288 290 294 296 295 297 294 290 291 294 292 291 292 290 290 291 288 282
302 303 303 304 306 310 311 310 308 304 304 302 295 284 298 301 287 288 287 294 294 292 294 292 293 291 291 290 288 290 290 293 298 297 292 294 291 286 290 296 297 294 291 291 286 285 288
302 303 303 304 305 307 305 304 304 304 304 296 287 288 298 298 285 286 293 292 293 291 292 292 289 291 294 289 286 289 293 297 297 296 293 295 289 286 287 293 294 290 291 292 290 291 286
301 302 302 303 303 304 304 304 304 303 303 299 290 282 288 289 292 290 290 289 289 294 293 294 292 291 289 287 288 286 290 293 296 296 295 296 291 288 285 285 288 284 287 289 290 285 286
300 299 301 301 302 301 302 301 302 301 301 298 293 289 292 284 288 291 291 290 287 288 292 294 290 290 288 284 286 286 291 291 294 294 295 294 287 288 288 288 287 284 284 285 286 286 283
300 299 300 301 301 300 301 301 301 301 301 296 287 291 292 291 292 289 289 288 287 288 290 288 289 291 291 286 288 285 289 292 292 296 293 295 286 287 284 288 286 282 285 285 285 284 283
300 300 299 300 301 301 301 300 302 301 301 295 297 299 295 290 289 287 287 288 288 290 291 292 291 290 289 289 293 295 296 296 296 294 293 291 290 286 284 287 286 282 282 284 285 287 286
301 300 300 299 299 301 301 301 301 300 300 302 300 299 293 286 287 288 289 290 289 290 289 292 294 291 293 297 297 296 294 294 295 295 296 291 290 289 286 286 278 282 289 288 285 285 286
300 299 300 300 299 300 300 299 300 301 301 301 300 298 294 288 290 289 290 291 292 293 292 292 293 295 297 295 292 289 289 290 291 294 294 295 291 287 284 284 282 283 286 286 285 282 287
300 300 300 301 300 300 300 300 301 301 301 302 301 302 300 292 289 293 291 292 289 290 290 290 295 298 296 291 290 283 282 286 285 287 294 293 293 289 287 281 279 286 290 291 290 281 288
301 301 301 300 300 300 301 301 301 301 300 302 303 307 303 296 297 296 292 291 294 291 289 291 292 292 295 289 287 285 285 289 284 284 285 287 289 285 286 284 283 289 290 291 280 282 288
301 301 301 299 299 299 300 301 300 301 300 303 303 307 304 297 297 298 297 293 293 293 289 292 291 291 289 287 286 287 287 288 288 289 287 286 285 284 286 283 279 290 289 284 287 290 289
300 300 300 299 299 299 300 301 300 301 300 301 300 307 307 299 296 301 300 300 299 298 295 294 292 291 292 290 291 291 289 291 289 284 291 285 289 287 285 282 286 289 290 292 292 290 289